GFSNGP_sfc_temp_000.txt.gz
Temp
41 44 44 44 43 43 40 39 31 37 39 45 44 45 47 49 50 50 49 48 48 47 47 47 47 47 46 45 45 44 42 41 39 41 41 41 41 41 43 43 42 41 39 39
37 43 41 38 42 42 41 42 40 41 41 44 47 47 47 47 48 47 46 48 50 49 48 48 47 45 45 44 43 44 43 43 43 43 43 41 41 42 42 41 40 38 37 35
34 35 34 32 36 39 42 44 41 33 40 44 43 45 46 47 47 46 45 47 47 47 47 46 43 44 42 42 42 45 43 43 42 42 41 41 41 41 39 37 35 34 34 33
28 32 26 41 47 47 42 44 45 43 43 45 45 47 48 50 48 45 46 48 48 46 45 43 43 41 41 41 41 41 41 42 42 41 39 39 38 37 35 34 33 32 32 31
27 29 35 40 45 40 36 39 44 42 44 45 45 44 43 48 48 49 49 48 46 43 42 41 40 40 40 40 41 41 39 39 39 39 39 38 36 33 33 31 30 30 30 29
30 26 26 36 45 49 47 32 45 45 43 42 41 36 43 47 48 50 49 45 42 42 41 39 40 41 38 38 38 38 39 40 41 40 38 36 33 32 31 29 30 29 29 28
20 23 28 41 47 48 28 34 42 45 45 44 41 43 47 47 48 46 42 42 42 41 39 40 45 44 39 38 37 41 41 40 39 38 36 34 32 31 29 28 26 19 18 21
27 27 27 46 47 37 41 42 46 47 45 43 44 44 45 46 46 44 40 40 41 39 39 44 43 41 38 36 40 40 38 37 36 35 34 34 30 29 28 25 20 19 14 17
33 33 43 46 48 48 48 48 45 44 47 44 43 43 44 42 40 39 38 37 38 37 42 41 41 39 37 36 38 36 34 33 32 32 32 31 28 27 25 23 18 17 21 18
37 43 46 48 52 53 49 45 47 46 45 45 43 43 42 42 41 39 37 35 37 40 39 38 38 37 36 36 36 33 32 31 30 29 29 28 27 27 26 18 17 23 20 21
39 44 46 48 49 48 49 48 47 47 46 44 44 45 42 40 40 37 36 37 37 38 37 37 37 35 36 35 34 32 31 31 28 27 26 26 27 26 24 23 21 21 18 23
37 47 45 47 48 49 46 44 43 42 43 46 46 42 42 40 38 37 36 37 38 39 38 38 36 35 35 34 32 31 30 28 23 22 21 25 24 25 30 29 31 30 30 26
46 50 48 47 47 46 45 44 46 47 48 45 43 42 40 38 39 38 40 39 39 39 38 35 35 34 34 31 27 25 24 26 23 23 22 20 19 19 14 20 28 28 29 28
52 48 42 44 42 46 47 48 48 48 48 45 42 41 39 38 38 37 36 37 38 38 37 34 34 33 33 31 26 21 19 20 20 21 19 20 12 13 12 10 9 13 22 26
47 46 45 45 47 47 48 47 44 42 42 41 40 38 37 35 34 34 34 34 34 35 35 35 31 30 31 31 29 27 26 20 15 18 17 13 12 12 10 9 10 10 12 22
45 43 44 43 44 45 45 43 40 38 38 37 36 34 34 33 34 33 33 32 28 28 29 24 20 27 29 30 29 27 25 23 21 20 18 17 16 12 13 10 10 9 11 18
38 36 38 38 38 39 38 38 36 35 35 35 32 28 30 27 28 28 29 27 23 21 21 23 26 31 30 30 29 25 20 23 26 23 16 18 12 11 11 8 7 8 14 16
43 42 40 39 38 36 34 34 31 30 30 30 25 22 25 21 25 27 26 24 23 21 27 27 27 29 24 28 27 22 18 22 23 16 17 12 11 14 8 9 6 10 15 16
41 41 40 39 38 34 33 32 30 28 29 32 28 26 24 22 27 25 23 21 24 22 26 21 29 28 26 28 26 17 16 16 16 18 14 10 9 9 7 6 8 10 12 14
40 40 39 38 35 29 29 28 25 28 31 30 28 26 25 27 27 25 27 24 28 28 26 28 28 27 27 25 25 20 20 16 17 14 8 9 9 8 8 12 12 10 9 11
35 35 32 30 30 25 34 33 31 32 32 30 29 26 27 23 23 25 19 27 27 30 30 29 28 27 28 23 23 18 24 24 18 12 8 10 8 6 5 10 12 10 9 11
34 30 29 28 27 29 30 33 29 31 31 30 23 26 24 25 20 19 20 27 29 30 27 27 26 28 26 25 24 26 25 25 20 9 11 12 10 7 5 10 11 9 9 9
34 32 32 29 31 31 31 33 30 32 32 30 26 27 28 25 23 19 22 27 29 29 27 28 28 28 27 26 27 26 25 25 18 14 13 13 10 5 3 10 10 9 8 10
33 32 32 32 25 30 30 30 28 31 31 27 29 30 29 25 22 25 28 29 29 29 28 29 27 27 27 25 26 26 25 24 16 15 16 14 13 8 4 9 11 9 9 9
32 31 30 28 27 29 29 30 30 29 28 29 29 30 30 30 29 23 27 26 29 29 27 27 29 27 25 26 26 26 26 18 13 14 14 13 13 8 5 7 9 9 8 8
33 33 33 31 32 34 33 28 30 29 29 29 28 30 31 28 28 28 28 27 26 28 27 27 28 26 27 25 24 26 25 23 22 12 10 9 10 8 7 5 5 8 8 7
31 25 28 30 30 31 30 30 30 29 30 30 30 31 29 29 28 28 30 28 27 27 27 27 27 27 27 25 25 23 19 24 22 13 13 13 9 12 10 7 8 8 7 6

GFSNGP_sfc_temp_003.txt.gz
Temp
39 41 41 41 40 42 37 37 33 36 36 42 43 42 44 47 47 47 49 48 47 48 47 46 45 44 43 43 42 42 40 39 38 41 41 39 39 40 41 42 43 41 39 38
33 40 39 37 40 39 39 39 37 38 37 45 44 45 45 45 46 45 45 46 48 48 47 45 45 43 42 42 41 40 40 40 42 42 41 41 40 41 40 40 40 39 37 35
27 34 32 29 34 37 38 41 40 32 38 41 42 43 43 44 45 44 44 44 46 46 45 44 42 42 40 39 40 40 39 41 42 41 41 40 40 40 39 37 36 35 34 33
24 32 23 40 44 45 41 42 43 41 41 43 43 46 45 46 43 43 45 48 48 47 43 43 42 40 38 39 39 39 39 38 39 40 39 37 37 36 34 33 33 32 31 31
30 29 32 40 43 38 37 38 43 42 42 43 47 41 40 45 43 45 46 47 47 44 43 41 38 37 37 37 38 38 38 38 39 38 36 35 34 32 32 31 30 30 30 29
29 26 25 36 43 45 43 31 44 42 42 45 42 36 42 44 45 44 46 48 44 42 41 38 39 39 39 37 38 37 39 38 37 37 35 33 31 31 31 29 29 29 28 28
28 27 29 40 44 45 30 34 43 45 46 44 40 44 43 44 44 46 46 44 43 40 38 39 40 39 36 36 35 38 38 37 36 36 34 32 31 30 28 27 26 20 18 20
27 26 24 44 45 37 42 43 44 43 42 41 43 43 42 44 44 45 41 40 39 37 37 39 39 37 35 34 36 36 35 34 33 32 32 32 29 27 27 25 21 19 14 17
36 33 42 45 48 49 48 44 41 41 45 44 42 41 42 43 44 42 39 37 37 35 36 41 39 38 36 35 36 34 32 31 30 31 30 29 27 26 25 23 19 17 21 19
37 43 46 48 50 53 48 44 46 46 43 39 37 41 43 44 41 40 38 35 34 35 35 35 39 38 37 36 35 33 31 31 30 28 27 26 27 27 25 19 17 22 20 20
40 45 46 48 48 46 47 45 42 43 41 41 42 43 44 42 40 39 36 35 36 35 35 36 36 34 35 34 34 32 32 31 28 27 25 26 26 25 25 23 20 21 18 21
36 47 45 47 45 44 42 42 43 42 42 44 45 43 42 39 38 36 36 35 36 36 35 35 34 32 33 34 32 30 30 29 23 21 21 25 24 24 29 28 30 29 29 25
45 50 46 44 45 46 43 44 45 44 45 41 42 40 39 38 37 37 38 37 35 35 34 34 32 32 31 27 26 24 22 25 22 22 22 22 19 18 12 19 26 27 27 27
49 47 42 43 40 45 45 45 45 45 44 43 41 39 38 37 36 35 34 34 34 34 34 30 30 30 30 30 25 20 18 18 16 16 16 18 12 13 7 8 7 13 20 24
44 43 42 43 43 44 45 45 41 39 39 38 38 35 34 33 32 34 35 33 32 32 30 29 27 28 28 29 28 25 27 21 13 13 13 12 13 9 8 8 9 10 11 16
41 41 41 40 42 42 40 38 36 35 34 34 33 32 32 31 34 34 32 29 27 25 26 18 20 28 30 31 29 26 26 21 17 20 14 14 12 9 11 8 8 9 7 12
35 35 38 37 36 35 35 35 34 33 32 31 29 27 30 30 29 27 27 23 18 18 26 26 25 31 29 29 29 24 20 20 24 20 16 13 9 9 8 5 5 8 7 12
40 39 39 38 37 36 34 34 33 31 30 31 28 30 29 28 25 24 23 20 16 23 25 21 20 30 25 29 28 20 16 19 20 14 13 9 9 9 6 6 9 8 8 12
40 40 40 40 39 35 33 32 30 27 25 25 25 30 28 27 23 26 22 20 20 24 25 24 28 28 27 27 27 23 15 14 13 15 11 7 6 7 5 5 9 6 8 10
37 37 37 36 35 30 31 29 30 31 32 30 27 25 27 26 22 25 23 21 23 26 27 28 27 26 25 25 24 20 17 17 19 13 5 5 3 2 2 6 11 6 5 6
33 33 31 30 30 29 24 29 29 30 33 32 30 30 28 25 20 20 22 26 25 27 30 28 26 26 27 26 25 17 23 23 21 8 6 5 1 2 1 1 6 5 5 7
33 30 29 29 28 29 30 27 27 33 31 32 32 29 21 25 25 25 26 26 28 29 27 26 26 27 26 26 25 25 25 24 21 10 9 6 1 0 1 -0 5 5 5 6
32 31 31 28 28 31 29 26 27 29 29 32 32 27 27 27 27 25 25 24 28 29 27 27 27 28 27 25 25 25 24 23 23 10 12 12 7 0 -1 1 3 5 4 6
32 31 31 31 27 23 25 32 27 27 27 27 25 30 28 27 26 26 27 25 28 25 27 28 28 26 26 22 25 25 25 24 22 10 12 13 7 3 -1 -1 2 1 3 6
29 29 29 26 27 29 30 31 27 25 26 26 26 29 29 29 28 24 22 20 24 27 26 27 19 18 17 23 23 25 25 24 17 13 9 9 11 11 -0 -1 -1 -0 1 4
31 31 32 31 30 31 30 30 30 31 29 27 22 26 29 30 30 29 27 27 25 26 26 26 25 20 19 19 22 20 17 20 21 15 10 9 8 14 8 2 -1 -0 2 3
28 24 29 31 31 30 31 31 31 31 30 24 22 25 29 29 28 28 26 27 26 25 25 26 25 25 15 14 13 15 20 18 15 17 14 14 13 14 13 12 8 4 1 -0

GFSNGP_sfc_temp_006.txt.gz
Temp
38 40 39 39 38 38 34 36 33 38 35 41 43 42 43 45 45 45 46 46 45 45 49 48 47 45 42 43 42 40 39 39 38 40 39 37 38 38 39 39 40 40 40 38
32 36 36 33 37 37 37 37 36 37 36 45 43 41 42 44 45 44 43 43 44 45 46 46 45 42 42 41 40 40 39 39 40 42 42 40 40 39 39 39 39 39 36 33
26 32 31 28 35 35 36 39 38 33 41 40 39 42 43 45 42 42 41 44 43 46 47 46 43 41 40 40 39 39 41 41 39 41 41 40 39 38 37 35 34 33 32 32
25 32 24 39 43 44 39 41 43 40 40 41 42 43 44 43 41 40 42 43 45 47 46 42 42 40 37 37 37 37 36 37 39 38 36 35 35 34 33 33 32 30 30 30
30 29 32 40 43 37 36 36 41 38 41 42 44 41 40 41 41 42 43 44 45 44 42 40 38 36 36 36 36 36 36 36 36 35 34 33 32 30 31 30 30 29 30 29
29 26 25 36 41 43 41 30 40 43 45 46 42 34 41 42 43 44 46 46 44 42 40 38 38 37 39 35 35 35 36 35 34 33 31 29 29 29 30 28 29 29 28 27
32 28 30 39 42 45 31 33 43 43 46 41 37 39 39 41 43 46 46 44 43 40 37 38 38 38 36 35 34 36 35 34 33 31 30 29 28 28 27 26 26 20 18 20
27 26 23 42 42 36 41 43 46 45 42 41 40 40 40 42 43 44 42 41 41 37 36 38 38 37 36 33 36 36 33 31 30 30 30 30 27 26 27 24 21 18 14 17
36 32 41 47 46 49 48 44 42 39 41 40 38 39 41 40 42 43 41 40 38 34 35 36 37 38 34 36 35 34 32 30 30 29 29 29 26 25 24 22 18 18 21 20
37 41 43 47 50 47 44 43 42 41 40 41 40 40 39 40 41 42 38 36 34 34 34 34 36 36 34 34 33 32 31 30 29 28 27 26 27 27 25 19 17 21 19 19
37 44 45 45 42 42 42 43 42 43 43 42 40 38 38 38 37 37 36 35 35 34 34 34 34 33 33 32 32 31 31 31 29 27 25 26 26 25 24 22 19 21 18 18
38 45 43 44 44 44 43 42 43 42 40 40 39 38 38 37 36 35 35 35 34 34 33 34 34 33 32 31 30 29 30 28 22 21 21 24 24 23 29 27 29 29 28 24
45 49 47 44 44 45 43 41 43 40 40 38 38 37 36 34 34 36 35 34 34 33 33 32 32 31 30 26 24 23 21 23 20 21 19 18 17 17 13 19 25 26 26 26
48 46 39 40 40 44 45 43 42 41 40 39 37 36 33 33 34 33 32 32 33 33 32 30 29 29 29 28 25 19 17 17 18 17 14 14 8 11 8 7 7 11 19 23
41 41 40 42 44 43 41 39 37 36 36 34 34 32 32 31 31 32 34 32 32 31 29 28 26 27 29 30 28 25 25 20 12 10 10 10 8 8 6 6 6 10 14 16
39 39 40 39 37 38 37 36 34 33 33 32 31 31 31 30 30 32 34 31 25 26 26 24 26 27 29 30 29 26 25 20 16 15 12 12 10 8 10 8 9 13 10 10
35 36 37 34 34 35 35 35 34 32 32 32 30 27 30 29 25 28 26 21 18 19 23 26 22 31 29 30 29 22 18 18 18 17 14 12 8 7 7 8 11 12 7 8
37 37 38 37 36 34 33 34 32 31 30 30 25 25 30 28 25 27 19 19 18 25 26 21 21 27 25 29 28 25 20 16 15 12 12 8 7 7 4 6 9 8 8 10
37 37 37 36 35 33 32 32 31 30 25 32 30 28 29 30 27 23 23 26 23 24 24 23 29 29 26 25 26 24 22 16 12 14 9 6 3 4 1 -1 5 4 5 9
35 34 34 33 32 28 30 30 28 28 30 29 33 30 30 30 28 22 24 25 25 26 28 28 28 25 25 25 24 23 16 16 18 11 3 4 -1 -1 -3 0 5 3 2 3
32 32 29 28 28 28 25 26 24 26 29 25 32 32 31 32 23 22 23 25 27 26 28 28 26 25 27 26 25 24 22 23 15 8 5 5 2 -1 -4 -5 -3 -0 0 3
32 28 26 26 26 28 29 27 25 24 25 30 33 31 31 24 24 23 24 27 28 28 27 26 25 26 25 26 25 25 25 24 21 12 5 6 6 3 -0 -5 -3 0 -1 2
31 29 29 25 26 29 29 27 26 25 25 28 30 31 30 26 23 20 22 25 24 27 27 21 25 27 27 23 24 24 24 24 23 20 14 12 10 9 1 -0 -3 -1 -2 -0
30 29 29 29 25 23 24 30 28 27 24 25 25 30 28 23 23 22 23 27 27 22 17 20 27 25 25 22 23 24 24 24 24 15 9 5 2 5 3 -2 -2 -4 -5 -3
27 27 26 24 26 29 29 29 29 28 26 26 30 29 25 25 23 20 18 20 21 20 20 24 25 20 19 23 24 21 20 24 24 20 9 6 7 5 5 -1 2 3 -3 -4
29 29 30 28 29 30 29 29 30 32 31 30 28 24 20 25 25 27 28 28 20 19 23 23 24 22 17 17 23 24 19 18 17 18 15 13 12 14 13 12 6 6 5 6
26 24 26 27 28 29 28 32 32 32 32 32 30 19 25 29 29 28 27 26 25 23 18 22 21 23 23 14 13 13 15 16 16 17 16 15 14 13 16 14 13 10 6 4

GFSNGP_sfc_temp_009.txt.gz
Temp
42 44 43 42 42 42 40 42 36 42 43 48 51 51 51 53 53 52 53 51 50 50 50 52 51 50 49 50 48 47 47 46 45 46 46 43 45 46 46 47 46 46 44 43
35 39 39 35 41 41 42 42 41 42 41 52 52 51 50 51 51 50 48 46 47 47 48 50 49 48 47 47 46 46 45 44 45 45 46 46 45 45 45 44 43 42 41 39
32 35 35 33 39 40 42 44 44 39 48 48 48 48 51 51 49 43 43 44 46 50 50 49 49 46 46 46 45 45 44 44 45 44 44 43 43 43 42 41 41 40 39 39
32 33 28 45 48 48 44 46 48 46 46 47 49 51 51 46 43 42 42 45 48 50 49 49 49 47 45 45 44 44 43 44 44 43 41 42 41 40 40 40 39 38 37 37
30 31 36 43 47 45 42 44 47 46 46 48 51 49 45 43 43 42 42 47 49 50 49 48 47 46 44 44 44 43 43 42 42 41 40 39 38 38 38 38 37 37 36 35
31 29 27 40 47 49 47 37 47 48 47 47 47 36 42 40 42 45 48 51 50 50 48 46 47 45 44 44 43 42 42 41 41 40 39 38 37 37 37 37 36 35 34 35
33 30 35 44 46 48 34 36 44 47 48 44 39 38 40 42 43 48 49 49 50 48 46 46 46 45 43 42 41 43 42 41 40 39 38 38 37 37 37 36 33 30 29 30
29 29 27 47 46 39 45 45 46 46 45 39 41 41 42 45 45 47 47 48 48 46 45 45 45 44 43 42 44 43 41 40 39 39 38 37 36 37 36 34 31 29 28 29
36 37 46 49 50 50 47 45 42 42 41 41 39 40 45 44 45 46 46 47 46 45 43 44 45 44 42 44 42 42 40 39 39 38 37 37 36 35 34 34 31 29 29 28
37 44 47 49 50 46 45 42 44 44 42 43 43 44 43 44 44 44 45 44 44 42 42 42 44 43 42 42 41 40 38 38 38 37 36 37 36 35 33 31 29 29 28 26
38 46 47 47 47 44 44 44 44 45 45 44 44 44 44 43 43 42 42 42 42 41 41 41 42 41 42 40 39 38 38 38 36 35 34 34 34 33 32 31 29 28 27 27
38 48 44 45 46 45 43 43 45 44 44 45 44 43 43 42 41 40 40 41 40 41 40 39 39 38 38 37 37 36 35 35 34 33 33 33 33 32 31 29 28 28 28 26
46 47 46 44 45 47 45 44 45 44 45 42 44 42 40 39 40 38 40 40 39 38 38 37 37 36 35 33 31 31 31 31 33 29 32 31 30 28 27 29 26 26 26 26
48 46 40 43 42 46 46 46 44 44 44 42 42 41 39 38 38 39 38 39 38 38 36 35 34 33 33 35 32 28 29 24 30 31 30 29 28 27 26 24 22 23 24 24
42 43 43 44 45 45 45 44 42 41 41 40 41 39 38 37 37 37 38 38 37 36 35 34 32 32 34 34 31 30 31 32 29 29 29 26 27 27 26 25 24 23 23 23
41 42 43 42 43 43 42 41 40 40 40 40 38 37 37 35 33 33 35 35 29 31 31 28 29 31 32 34 32 32 32 27 24 29 29 28 28 26 25 24 23 22 21 20
39 38 40 39 39 39 39 40 39 38 38 37 35 32 33 31 31 30 31 29 26 25 28 28 29 33 31 33 33 32 30 30 23 30 28 27 26 25 24 23 22 21 20 19
42 41 40 38 37 37 37 37 36 35 34 36 30 31 30 29 29 29 31 28 26 27 29 29 28 30 31 32 31 30 28 28 29 28 27 26 25 25 23 22 22 21 20 20
40 38 38 37 37 35 35 35 34 33 31 30 28 29 33 32 31 32 29 26 27 27 29 29 30 32 30 29 30 29 28 28 28 28 26 22 25 25 23 22 22 22 20 19
37 38 37 37 35 32 31 32 30 31 32 30 28 28 31 34 33 32 28 27 30 32 31 32 31 29 29 29 28 29 28 28 28 28 25 24 24 24 23 19 20 21 20 20
34 35 31 30 30 29 27 28 27 28 31 29 24 27 31 33 33 30 27 28 32 30 31 32 32 31 31 31 31 30 28 28 29 28 26 24 23 24 23 22 21 21 21 20
34 31 29 28 28 29 31 30 30 28 27 27 27 29 32 31 32 29 28 29 33 28 32 33 32 31 31 29 31 29 29 29 29 28 26 25 24 23 23 22 21 21 21 20
33 32 31 28 27 31 30 29 28 27 27 28 29 30 30 32 33 29 28 32 31 29 32 32 27 31 31 30 29 29 29 29 29 28 27 26 25 23 23 22 22 20 21 20
32 31 31 31 28 26 28 33 32 31 30 30 30 30 30 31 31 30 31 30 30 30 30 29 29 29 24 30 29 29 29 29 29 29 27 20 24 22 22 21 20 22 19 17
30 29 29 27 29 31 31 32 31 33 33 33 33 33 32 31 31 31 29 31 29 30 30 25 28 26 29 29 29 29 28 27 28 29 28 26 25 24 24 23 20 21 20 19
32 32 32 30 30 31 31 32 31 32 32 32 33 33 31 30 31 30 30 30 30 27 30 30 30 29 29 28 27 27 27 28 27 27 26 26 26 25 24 24 22 21 20 20
30 25 30 32 33 34 32 31 31 31 32 32 32 33 31 31 32 31 31 31 31 30 30 29 29 29 29 28 27 26 25 26 24 25 25 25 25 25 24 24 24 23 22 19

GFSNGP_sfc_temp_012.txt.gz
Temp
52 54 54 51 50 52 50 50 42 47 50 56 59 59 60 60 61 60 59 57 56 56 56 59 58 57 58 57 56 56 55 54 52 52 52 52 52 52 51 51 51 50 49 48
43 49 51 47 52 53 52 52 51 51 50 59 60 60 57 57 56 54 53 52 49 50 56 57 56 56 55 56 56 55 54 52 52 52 52 51 50 50 49 49 49 48 47 46
37 44 44 37 47 51 52 53 52 45 54 57 55 54 54 55 54 49 47 45 49 54 57 56 57 55 55 55 55 54 52 52 51 50 49 49 49 49 48 47 47 45 45 45
36 37 31 49 58 56 52 54 57 57 54 54 55 56 59 53 49 42 45 51 54 57 56 57 57 57 56 56 54 52 51 51 50 49 48 48 48 47 46 46 45 44 44 43
32 36 44 49 52 50 48 48 54 52 54 56 57 57 54 45 43 45 51 54 56 58 57 57 57 57 55 54 54 53 49 48 49 48 47 47 46 45 45 45 44 43 42 41
35 30 30 47 53 55 54 43 53 50 48 49 51 38 39 44 50 52 54 56 56 57 57 57 57 57 54 53 53 50 50 49 50 48 46 46 45 45 45 45 43 42 39 39
36 32 41 53 54 55 36 40 52 47 46 45 39 40 45 47 52 55 56 56 57 57 56 56 57 55 52 52 50 52 51 50 49 48 46 46 45 45 44 43 40 34 32 34
35 31 30 54 54 41 50 52 46 45 44 43 43 46 49 52 53 55 55 56 56 54 54 55 56 54 52 51 53 53 50 49 47 47 46 45 45 45 43 41 37 32 32 32
44 45 57 59 56 58 54 50 43 45 50 46 47 49 51 52 53 55 55 55 55 53 51 53 54 54 50 52 51 48 45 46 46 46 45 45 44 42 40 39 33 31 32 31
44 52 55 56 59 56 50 44 48 50 50 50 49 50 51 52 53 53 54 52 52 50 49 49 51 49 47 46 43 43 45 45 46 45 43 44 43 41 39 34 31 31 30 31
47 52 54 57 52 50 46 46 46 52 51 50 51 51 52 51 51 51 51 50 50 48 48 48 49 47 47 46 45 44 44 44 43 42 41 41 41 40 37 35 31 30 31 30
38 51 47 49 48 48 45 48 50 49 50 52 52 51 51 50 50 50 49 49 48 48 47 47 46 45 44 43 42 40 39 41 41 39 39 39 39 38 31 30 28 28 27 27
48 48 50 49 48 51 50 50 50 51 52 51 52 51 50 48 49 46 48 48 47 46 45 45 42 41 41 38 36 34 36 36 39 36 36 36 35 33 31 34 29 27 26 26
52 50 46 48 47 50 50 52 52 53 53 52 51 50 49 48 48 48 47 47 46 45 44 42 40 38 39 39 36 34 34 30 36 37 35 34 32 31 31 29 28 30 29 26
47 51 51 50 51 51 53 52 49 50 50 49 50 48 47 45 45 44 44 43 42 41 42 42 38 36 39 37 35 34 35 35 34 34 33 31 31 31 30 30 30 29 29 29
49 50 50 48 49 50 49 49 47 46 46 47 46 44 45 45 44 41 37 37 33 34 36 32 31 35 36 38 36 35 35 31 31 33 32 32 31 30 30 30 30 28 28 25
44 43 45 45 46 46 45 46 45 45 43 43 41 39 40 37 34 35 36 34 33 31 31 31 32 37 35 37 34 35 35 35 29 33 32 31 30 30 30 29 28 28 27 25
48 48 47 46 45 44 43 43 41 40 40 40 35 33 32 32 33 34 34 33 32 31 32 33 32 35 34 36 35 34 34 33 33 32 32 30 30 30 29 28 28 27 27 27
47 46 46 45 45 42 41 41 39 37 34 34 33 32 32 32 34 34 34 32 31 30 35 33 31 32 34 33 33 34 33 32 32 32 31 29 29 29 29 28 28 27 27 27
45 46 45 44 42 38 36 36 34 36 37 35 33 32 32 32 33 33 33 32 33 36 34 34 34 33 33 34 31 34 32 31 31 31 30 30 29 28 28 27 27 27 27 27
41 41 38 35 35 34 33 33 32 33 34 33 31 31 31 32 33 33 32 33 36 33 34 33 34 37 37 35 34 33 32 31 31 31 30 30 29 29 28 28 27 27 27 27
41 38 34 34 34 34 36 35 35 33 32 32 32 32 31 32 33 33 34 33 38 32 36 35 37 35 36 31 34 32 32 32 31 31 30 30 29 28 28 28 27 27 27 27
39 39 37 34 33 36 35 34 33 32 32 32 32 31 32 34 34 33 32 35 37 34 36 35 34 32 32 32 32 31 31 31 31 31 31 30 30 29 28 28 28 27 27 27
40 39 38 36 34 33 33 38 36 36 32 34 34 34 34 33 33 37 35 33 32 32 33 34 32 31 31 32 32 31 31 31 31 31 31 29 30 29 29 28 28 28 27 25
36 37 36 33 35 39 37 37 35 35 36 35 34 35 35 35 32 34 34 33 32 32 33 32 31 31 31 32 31 31 31 30 31 30 31 31 30 30 29 29 28 28 27 27
39 41 41 39 38 39 39 38 34 35 35 33 34 34 34 34 34 33 34 33 34 33 33 33 32 32 32 31 31 30 30 31 30 30 29 30 30 30 30 29 29 28 28 28
40 35 38 39 42 41 39 38 34 33 34 32 32 34 34 33 33 33 33 33 33 32 32 33 32 32 32 31 31 31 30 30 29 29 28 28 28 29 29 29 29 29 28 28

GFSNGP_sfc_temp_015.txt.gz
Temp
57 59 59 57 56 57 55 55 46 51 54 59 62 62 63 64 64 62 62 60 59 59 60 61 63 62 62 60 60 60 59 58 57 56 55 53 53 52 52 52 52 52 51 50
47 56 57 52 56 58 58 57 56 56 53 64 65 65 62 60 60 58 56 56 56 58 60 61 61 60 60 60 59 59 57 56 57 54 51 51 51 51 51 51 50 50 49 48
41 49 46 39 50 56 57 59 56 47 55 63 60 57 54 55 56 55 50 49 55 58 60 60 61 61 60 60 60 59 57 57 55 52 50 50 50 51 50 49 49 48 47 47
38 38 33 54 63 61 57 58 61 61 61 60 55 56 55 57 55 49 51 54 57 59 60 61 62 62 62 61 59 58 57 55 53 52 50 50 50 50 49 48 47 46 46 45
35 40 47 53 55 53 51 51 61 57 57 58 58 57 53 52 52 52 53 57 59 61 61 61 62 62 61 58 58 57 56 55 53 51 49 49 49 48 48 47 46 45 45 42
38 32 32 49 59 60 59 44 56 57 54 52 51 41 46 54 55 56 59 60 60 61 61 61 60 60 58 57 56 55 55 55 54 51 49 48 48 47 48 47 46 44 41 40
37 34 43 58 58 60 40 44 56 54 52 46 44 46 50 53 56 59 60 60 62 61 59 59 59 58 55 56 55 56 55 55 52 48 48 49 48 48 47 46 44 38 35 37
38 33 32 59 57 43 52 57 55 49 46 46 51 51 53 56 57 58 59 60 61 58 57 57 58 56 54 54 55 54 52 48 44 45 47 48 47 47 46 44 40 36 33 33
48 47 61 61 57 59 59 55 50 45 48 50 52 53 55 55 56 58 59 59 59 57 55 55 56 55 52 52 52 48 46 43 44 47 46 48 46 45 43 42 37 33 33 33
49 56 57 58 59 57 56 52 50 48 51 55 53 54 54 55 56 56 57 56 57 54 53 52 54 53 52 49 47 46 43 44 45 45 45 46 46 45 42 39 33 33 32 32
50 57 57 60 55 53 53 51 48 55 55 54 54 54 55 55 55 55 55 55 54 52 51 51 52 51 49 47 45 43 43 44 43 44 44 43 44 42 40 38 33 32 31 30
44 55 50 50 51 53 51 50 54 53 53 56 56 55 55 53 54 53 52 52 53 52 51 51 49 46 45 46 43 40 38 41 41 41 40 38 41 40 33 31 30 29 28 27
55 57 52 49 51 55 54 54 55 54 55 54 56 56 54 52 53 49 52 52 51 50 49 47 44 43 44 42 40 36 35 36 37 36 36 36 36 33 32 34 30 30 27 27
55 52 44 49 49 55 54 55 55 57 57 56 55 54 53 51 51 50 50 50 49 47 44 44 43 42 41 42 40 36 36 34 35 35 35 34 32 32 32 30 30 32 29 28
49 50 50 52 55 55 56 56 53 53 53 51 52 50 50 48 47 47 49 48 44 40 43 43 41 41 42 40 38 38 35 35 34 33 33 32 32 32 32 31 31 32 32 32
52 54 54 52 52 53 53 52 50 49 49 48 47 45 46 46 46 45 45 43 35 34 35 33 32 37 40 40 40 40 39 33 33 33 33 33 32 31 31 31 31 31 30 29
48 47 48 47 49 50 49 50 49 47 45 45 43 41 41 38 36 39 40 39 34 33 33 32 33 39 38 39 38 39 37 35 33 33 33 32 32 31 31 30 30 30 30 27
53 51 51 50 49 48 47 46 44 44 42 42 36 34 33 33 33 34 34 35 34 33 33 34 34 37 36 38 37 37 34 33 33 32 32 32 31 31 30 30 30 30 30 29
51 50 50 49 49 46 44 43 43 40 35 35 34 33 33 33 34 35 35 33 33 32 36 36 32 32 35 35 33 35 33 32 32 32 33 31 31 31 30 30 30 29 30 29
49 50 49 48 46 41 39 40 36 39 41 37 34 33 33 33 33 33 33 32 34 37 36 37 35 35 35 36 32 35 33 32 31 32 32 32 31 30 30 30 30 29 29 28
44 45 43 39 39 36 34 34 33 35 38 34 32 32 32 32 33 33 33 35 38 35 36 35 35 37 40 38 35 34 33 32 32 32 32 31 31 30 30 30 30 29 29 28
45 42 35 35 36 37 39 38 39 34 34 33 33 33 33 33 33 34 34 34 40 33 37 36 37 36 38 32 37 33 33 33 32 32 32 32 31 30 29 29 29 30 29 29
44 43 41 36 34 39 39 36 34 33 33 33 33 33 33 34 34 33 34 37 37 35 36 36 35 33 32 32 32 32 32 32 32 32 32 32 31 31 29 29 29 29 28 29
43 43 42 41 37 36 34 42 41 38 34 34 33 34 34 33 34 37 39 36 32 32 33 35 33 32 32 32 32 32 32 32 32 32 32 32 32 31 30 30 29 29 29 29
41 41 40 37 37 41 44 44 42 40 38 38 37 37 36 37 33 34 34 34 33 33 34 33 32 32 32 32 32 32 32 32 32 31 31 31 32 32 31 31 30 29 29 29
42 43 44 44 44 44 44 43 41 40 38 36 37 35 36 35 35 34 34 34 35 35 34 33 32 32 32 32 32 32 32 32 31 31 30 30 30 31 31 31 30 30 30 29
44 39 43 43 44 45 44 42 37 36 35 33 33 35 37 35 34 34 33 33 33 33 33 33 33 32 33 32 32 32 32 32 31 30 30 29 29 29 29 29 29 30 30 30

GFSNGP_sfc_temp_021.txt.gz
Temp
48 51 52 49 49 49 47 45 35 40 45 48 48 48 50 52 53 53 51 51 50 49 49 50 51 51 51 51 51 51 50 49 48 49 48 45 45 45 45 44 43 42 41 40
37 49 48 43 47 48 49 49 47 47 45 52 51 52 50 51 51 49 49 50 50 50 52 52 52 51 52 50 50 51 50 50 50 47 46 45 43 45 42 43 41 40 39 39
31 40 37 30 41 48 49 51 48 38 45 49 47 48 46 45 47 48 47 47 49 50 51 51 50 51 47 48 49 48 49 47 47 45 45 44 43 43 42 41 39 38 37 36
26 29 22 45 54 52 49 50 51 50 48 48 46 47 46 48 46 45 47 49 50 50 50 50 49 48 48 48 47 47 46 45 45 44 43 41 41 40 40 39 38 37 36 33
26 27 36 46 51 47 43 42 50 47 47 47 47 48 43 48 47 46 48 49 49 49 49 48 47 47 47 46 45 46 43 43 42 41 39 38 37 35 36 38 36 35 33 32
28 21 19 39 52 55 52 31 48 48 44 43 44 30 38 46 49 48 50 50 50 49 48 46 47 47 45 44 43 42 43 43 43 42 39 39 36 37 37 36 34 32 32 31
23 20 31 47 54 55 32 34 46 47 44 42 38 39 44 47 48 49 50 50 49 48 45 45 47 46 44 42 41 43 43 42 41 39 38 39 36 35 36 33 30 27 27 28
30 29 24 52 52 39 43 47 47 45 43 44 45 45 47 49 49 50 47 48 48 45 44 45 47 45 42 40 42 42 41 39 39 38 39 41 38 37 34 29 28 25 17 20
35 33 47 52 49 49 50 46 44 44 47 47 45 47 47 47 48 47 46 45 46 43 44 45 45 43 40 40 41 39 37 36 36 37 38 38 33 30 29 28 23 23 24 18
40 47 50 49 49 49 48 46 47 49 48 49 46 47 46 46 45 45 44 43 44 44 43 42 43 43 40 40 39 37 34 34 34 33 33 33 33 31 27 22 20 25 21 19
40 47 49 49 49 49 47 48 49 51 51 49 48 46 45 44 43 43 42 43 43 42 41 41 41 40 40 40 38 35 33 33 30 29 30 30 30 28 27 25 24 21 19 19
34 47 46 44 47 49 47 48 49 48 48 50 47 44 44 42 42 41 41 42 42 42 40 39 39 39 39 39 36 33 30 29 27 26 26 28 28 27 32 31 33 32 30 18
46 48 47 47 48 49 47 49 50 49 49 45 45 43 42 40 41 40 41 41 40 40 39 37 35 36 36 34 33 31 30 30 26 27 26 28 28 28 27 27 32 33 32 30
50 48 44 46 43 50 52 51 50 49 47 45 43 42 40 39 39 39 39 39 40 39 38 37 39 37 36 35 33 28 28 27 24 23 27 28 27 28 27 21 21 20 29 30
48 48 46 47 49 50 51 48 45 43 42 41 41 39 38 36 36 36 37 38 35 34 34 35 36 37 38 34 33 31 30 26 24 28 28 28 27 27 26 26 25 20 22 23
49 48 48 47 48 47 45 43 41 39 39 39 37 35 36 36 35 35 34 33 30 30 31 30 33 34 34 34 34 30 28 27 25 28 27 27 27 25 26 25 25 24 17 16
45 44 45 43 43 43 42 41 40 38 37 37 34 33 33 31 29 30 30 29 27 31 29 32 33 36 34 34 33 26 24 24 25 28 27 27 26 26 26 25 25 23 19 16
49 48 47 45 42 41 38 36 35 34 34 33 28 22 20 21 26 27 32 32 32 33 31 33 34 34 31 33 32 26 24 22 23 21 22 24 26 27 25 22 24 23 21 16
48 47 45 44 42 38 36 35 34 32 28 26 23 24 24 24 27 32 32 32 32 32 33 30 32 32 30 29 27 23 20 20 27 27 27 24 23 25 26 20 24 25 23 16
43 43 42 41 38 35 32 34 28 32 33 28 21 20 29 31 31 32 33 31 32 33 33 33 34 31 29 29 25 24 20 17 25 27 20 22 21 24 23 25 24 18 19 21
37 37 35 33 32 29 29 27 24 28 31 24 25 32 27 27 26 31 30 30 33 29 33 34 33 31 31 29 26 24 22 19 18 28 23 19 20 22 24 26 23 17 16 21
36 34 29 29 29 32 32 31 32 27 28 25 24 23 22 25 25 27 32 31 33 33 33 32 33 32 32 32 30 28 25 24 22 25 27 25 20 22 24 23 26 25 18 19
35 35 34 29 27 33 32 30 27 29 28 27 30 28 24 29 29 29 29 30 31 34 34 33 33 33 32 32 31 30 26 22 20 22 29 28 28 27 26 26 25 26 26 25
35 35 34 34 29 29 30 34 32 32 29 29 27 27 26 27 31 30 33 34 33 33 33 33 33 32 32 31 27 26 29 29 25 24 25 27 27 27 26 24 24 25 27 26
32 34 34 29 31 32 33 34 32 31 31 30 29 29 27 27 29 32 34 34 34 32 33 33 33 32 30 30 30 29 29 29 28 27 29 28 28 27 25 21 23 26 28 27
34 31 32 34 33 32 32 31 31 31 27 24 24 22 22 23 28 29 30 30 33 33 33 33 33 33 32 32 31 30 29 29 29 29 29 27 28 27 25 24 25 24 25 25
33 29 29 30 31 31 31 28 24 27 25 23 28 23 24 24 25 25 24 28 32 33 33 33 33 32 32 32 32 30 30 30 30 29 28 27 25 24 24 24 25 26 25 25

GFSNGP_sfc_temp_024.txt.gz
Temp
45 47 47 45 44 44 43 41 34 38 40 43 44 45 47 49 48 47 47 48 48 48 46 47 48 49 48 47 47 47 47 45 44 45 44 43 43 43 41 41 42 42 42 41
37 44 43 40 44 44 44 45 45 43 39 47 47 47 46 47 46 47 48 47 46 47 48 49 48 46 46 46 46 46 45 44 45 43 43 41 41 40 39 40 40 39 39 38
30 36 36 30 40 45 45 45 45 38 42 45 43 45 42 43 45 45 44 44 47 47 48 47 45 46 45 45 46 44 43 43 42 41 41 40 40 39 40 35 35 36 36 35
25 27 21 42 49 50 46 46 45 44 44 45 44 43 43 45 43 43 45 46 47 46 45 45 45 45 45 45 44 42 41 41 41 40 39 38 36 37 36 34 34 35 32 31
23 26 34 42 47 45 43 41 46 44 44 44 44 43 40 46 45 43 44 46 45 45 45 44 44 45 44 42 41 41 40 40 40 39 38 37 37 36 33 32 32 32 32 30
28 20 19 37 48 52 49 32 47 45 42 42 42 30 36 44 45 46 46 47 45 45 44 43 44 44 41 39 39 39 39 39 39 39 37 36 35 34 33 32 32 31 31 29
17 17 29 42 50 51 32 35 45 45 42 41 38 38 42 44 45 46 46 47 45 43 42 42 42 41 39 38 38 40 40 39 38 37 36 36 35 35 33 29 29 26 25 26
24 18 24 47 48 39 42 44 45 43 43 41 42 43 44 47 46 46 44 44 44 42 41 41 41 40 37 36 39 39 38 36 35 35 36 36 32 30 29 27 27 23 13 18
35 34 45 48 47 48 47 44 43 43 45 46 45 45 46 44 44 43 42 41 43 39 40 41 40 39 37 38 39 37 34 32 32 33 33 32 29 28 27 26 21 21 23 16
38 45 46 48 46 47 46 44 46 48 48 48 46 45 42 42 41 40 39 39 40 39 39 38 39 40 38 38 37 35 32 32 31 30 31 30 30 29 27 20 19 23 20 19
37 44 44 46 45 45 45 46 48 51 50 48 43 41 42 40 39 39 38 39 39 38 37 37 37 37 37 37 36 33 32 32 29 28 28 29 29 27 27 25 23 20 19 18
34 46 45 43 45 46 44 47 50 48 44 43 43 41 41 38 38 38 37 38 37 37 36 36 36 35 35 35 35 33 31 29 27 25 24 27 27 27 32 31 33 33 32 18
45 48 47 45 46 48 48 48 48 44 43 41 41 40 39 37 37 37 37 37 36 36 35 34 33 33 35 35 34 32 30 31 26 26 25 24 25 28 23 26 31 31 32 32
48 47 42 43 43 49 50 48 46 44 42 41 40 39 37 36 36 35 34 35 35 35 34 33 33 32 35 36 34 31 30 27 25 25 23 23 25 26 26 19 15 17 26 30
46 46 45 46 49 48 47 45 41 39 38 38 38 36 35 34 33 33 34 34 33 32 32 33 32 32 36 35 33 32 31 24 20 27 26 27 26 25 23 21 20 22 16 20
45 46 47 48 47 45 43 41 39 38 37 36 35 34 34 33 32 32 32 32 28 29 32 31 26 31 35 34 33 32 32 24 20 25 27 25 26 24 25 21 24 23 16 13
43 42 42 41 41 41 40 41 39 38 36 35 34 32 32 29 28 30 30 29 30 30 32 32 29 35 34 34 32 31 29 25 26 28 27 26 25 25 24 23 23 16 22 18
48 45 45 43 40 38 37 36 35 34 34 33 27 20 19 20 25 26 28 31 31 33 33 30 32 33 33 33 32 30 24 24 21 21 21 16 20 22 26 22 19 16 16 15
45 43 43 42 41 38 36 35 34 33 27 24 21 22 20 24 27 28 28 24 30 31 32 28 31 32 32 32 29 23 18 16 18 21 21 22 13 18 23 23 19 24 22 15
42 42 40 39 38 35 33 34 28 32 32 26 18 22 28 26 25 24 24 25 29 31 30 30 32 32 31 31 29 24 19 16 18 20 22 21 14 16 23 22 25 18 13 12
36 38 36 33 32 29 26 26 23 28 31 23 26 29 25 26 24 21 21 26 30 28 29 28 32 31 32 31 30 27 25 23 22 21 24 23 16 16 19 24 23 24 15 8
35 34 28 27 28 31 31 30 31 27 26 29 29 26 21 25 23 22 23 27 32 25 30 31 32 33 33 32 31 30 30 27 26 25 24 25 25 18 18 22 21 24 20 13
35 35 33 27 25 32 32 29 27 25 27 27 26 26 30 27 24 22 27 30 30 32 33 32 33 33 33 32 32 30 29 28 26 25 25 25 27 24 25 25 25 24 22 23
34 34 34 33 28 27 28 34 32 32 28 29 28 28 27 23 22 26 28 27 31 27 32 33 33 32 33 32 31 31 29 28 27 26 26 25 26 26 27 25 22 21 24 24
31 33 33 27 30 31 33 33 31 30 30 30 30 29 26 30 28 30 24 25 24 26 32 34 33 33 33 32 31 29 29 29 29 29 27 26 27 26 27 25 23 22 22 24
34 31 31 33 31 31 31 29 28 27 24 24 23 23 30 31 29 26 24 21 24 29 32 32 32 33 33 32 32 32 32 31 30 29 29 29 28 27 26 25 23 23 22 23
31 27 30 30 31 31 29 27 27 31 25 27 29 30 27 27 24 20 19 26 20 29 27 27 28 30 32 32 32 32 32 32 31 30 30 29 29 28 26 23 23 22 22 23

GFSNGP_sfc_temp_027.txt.gz
Temp
41 43 43 43 43 42 40 39 34 37 38 43 43 43 44 46 44 44 45 47 47 46 48 46 45 44 44 44 44 44 43 42 41 41 41 40 40 40 40 38 39 40 40 38
36 41 40 38 43 41 41 41 41 40 38 45 45 45 45 45 44 44 48 47 47 46 46 45 44 43 45 44 44 43 42 41 41 41 40 39 38 37 37 40 38 37 36 35
29 34 35 30 39 42 43 44 43 34 41 43 42 43 42 42 43 44 44 44 44 44 45 43 43 44 43 43 43 41 41 41 40 39 38 37 37 36 37 36 34 34 32 32
24 26 21 41 45 46 44 44 43 41 41 44 43 42 43 43 43 42 43 44 43 43 43 43 43 43 42 42 41 39 39 39 39 38 37 36 35 37 37 36 31 30 30 31
22 25 34 41 45 43 41 40 44 42 42 42 41 41 39 44 44 43 44 44 43 43 43 42 42 42 41 39 38 39 38 37 37 37 36 35 34 33 33 31 30 30 31 29
26 19 19 37 45 49 47 32 45 43 41 41 39 29 37 43 44 45 45 44 43 42 42 41 41 40 39 37 37 37 37 37 37 36 35 34 33 32 34 33 32 31 30 28
16 17 29 41 47 49 33 35 43 44 43 39 37 39 42 45 45 45 44 44 43 41 40 39 40 39 37 36 36 38 38 37 36 34 33 33 32 32 30 28 28 25 26 26
26 19 26 46 45 38 42 41 44 43 42 41 44 44 45 46 43 44 42 41 40 39 39 39 39 38 36 35 38 37 36 34 33 32 33 33 29 28 29 28 27 25 12 17
34 34 44 46 44 46 45 44 43 43 43 45 43 45 44 42 43 41 39 38 39 37 38 38 38 37 35 36 36 35 33 32 32 32 32 31 29 27 27 26 21 21 22 16
37 44 44 45 46 45 45 44 44 45 46 46 45 44 42 40 39 38 37 36 37 37 35 35 37 37 35 35 35 33 33 33 32 30 30 29 30 29 26 20 18 22 20 18
36 42 43 46 46 45 44 45 46 47 47 46 44 40 39 38 37 37 36 36 36 35 34 34 35 34 34 34 34 34 34 33 31 30 28 29 29 27 27 26 23 21 20 19
35 45 44 44 45 45 43 44 46 46 44 44 41 39 39 37 36 36 35 35 34 34 33 33 33 32 33 34 33 34 32 32 30 28 24 27 28 27 31 30 32 32 32 19
44 46 45 43 43 45 45 47 47 44 44 41 41 39 38 36 36 36 35 34 33 32 32 31 30 30 32 32 31 32 32 31 30 28 26 24 25 27 24 26 31 31 32 32
47 45 40 42 42 46 47 45 45 44 43 41 39 38 36 35 35 34 33 32 32 31 30 30 30 31 32 32 33 32 31 29 28 28 28 27 26 27 25 23 15 17 26 29
44 44 44 45 46 45 45 43 41 39 38 37 37 35 34 33 32 32 32 31 30 30 30 32 33 33 32 32 33 32 32 29 28 25 27 23 26 22 24 24 18 18 16 19
43 43 44 44 43 43 42 40 38 37 37 36 35 34 34 32 31 31 31 30 28 28 31 32 32 32 31 34 33 32 31 30 27 24 25 24 24 21 24 23 22 23 14 14
40 39 39 39 39 39 39 40 40 37 36 36 34 32 32 27 26 29 29 27 24 25 30 31 32 35 31 34 33 33 30 30 28 27 23 22 21 22 24 24 24 18 15 12
43 43 41 38 35 36 36 36 36 35 35 34 26 20 19 21 25 25 25 24 23 25 28 30 30 33 32 33 33 32 28 27 25 21 19 14 18 18 18 19 19 20 17 15
40 38 38 39 40 37 36 35 35 33 27 24 21 23 21 22 25 26 24 21 22 24 30 27 29 29 32 32 31 30 26 21 20 20 18 16 12 15 16 18 22 23 23 17
39 40 39 39 37 35 33 34 29 32 33 26 19 24 26 24 22 23 20 23 28 30 30 29 27 28 31 32 31 30 27 23 21 19 14 18 18 16 14 16 19 21 21 17
35 36 35 32 32 29 27 27 25 28 31 22 21 28 29 26 23 21 20 25 29 27 29 26 29 32 32 32 32 30 28 27 25 24 22 23 23 21 17 16 18 19 18 20
35 33 29 27 28 30 30 29 30 24 24 24 23 30 29 27 25 22 23 25 30 24 26 28 32 32 32 32 32 32 30 29 28 27 23 23 24 24 22 21 19 20 23 20
34 34 33 28 26 32 31 29 25 24 25 26 25 25 25 28 28 23 26 28 27 24 30 32 33 33 32 32 32 32 31 30 29 28 27 26 26 26 26 24 24 24 24 21
34 34 34 32 26 27 28 34 32 31 26 27 26 25 25 26 27 25 29 29 23 20 27 31 32 32 32 32 32 32 31 31 30 29 28 27 27 27 27 26 25 25 24 23
30 32 32 26 30 30 32 32 30 29 29 28 28 28 26 25 26 23 22 24 20 26 24 26 30 30 31 31 31 31 32 31 30 29 29 28 27 27 27 27 27 25 23 23
32 30 30 31 30 29 30 30 28 28 25 26 27 24 25 22 28 30 26 20 26 20 18 21 19 22 25 27 27 28 30 31 32 31 30 30 29 28 28 28 27 24 23 24
28 25 28 29 30 30 29 28 28 29 31 30 29 32 29 31 31 28 23 24 21 21 19 17 16 18 18 18 18 19 21 24 27 30 32 31 29 30 29 28 26 23 23 21

GFSNGP_sfc_temp_030.txt.gz
Temp
38 39 40 40 41 40 39 38 35 36 36 42 44 43 43 43 42 42 43 44 45 44 44 47 45 44 44 43 43 43 42 40 39 39 39 38 37 36 36 36 37 39 39 37
35 38 38 37 40 40 39 38 38 37 38 44 41 43 42 42 42 42 44 45 45 45 47 46 44 42 43 43 42 42 40 39 39 39 38 37 36 35 35 36 37 36 34 32
29 32 33 29 38 40 39 40 40 35 41 41 40 42 41 41 42 42 43 44 46 46 46 43 42 42 42 42 41 40 39 39 39 38 37 36 35 34 35 34 31 31 31 31
24 26 20 39 43 42 42 43 43 40 41 42 41 40 42 42 42 41 42 45 45 43 42 42 41 41 40 40 39 38 38 38 38 36 35 34 34 37 33 34 35 29 29 29
22 24 34 41 43 41 40 40 44 42 40 40 40 41 40 43 43 43 44 43 43 43 42 41 40 40 39 38 37 37 37 36 36 35 34 33 33 32 32 32 31 30 30 29
21 20 19 37 42 46 45 33 44 44 40 39 40 32 40 42 44 44 44 43 43 42 41 39 40 38 38 37 36 35 36 36 35 34 33 31 31 30 31 31 30 30 30 28
17 17 29 40 45 46 33 36 41 43 41 38 37 40 42 42 43 44 43 42 43 42 40 38 38 38 36 35 34 36 36 35 34 33 31 31 29 30 30 28 28 25 26 26
25 17 25 44 45 38 42 40 42 42 41 42 41 41 41 43 42 42 42 42 40 39 38 38 37 36 34 33 35 35 34 33 32 32 32 32 29 28 28 27 27 24 13 17
33 33 43 44 43 44 44 44 42 42 43 44 42 42 42 40 41 42 40 39 39 38 37 37 36 35 33 34 34 33 32 32 34 34 32 31 28 27 26 25 21 21 22 16
36 42 42 43 45 46 45 44 44 44 44 44 43 42 40 40 38 37 38 37 37 36 34 34 34 34 33 33 33 32 32 32 34 33 31 30 30 29 26 20 18 22 20 19
35 41 41 45 45 45 44 44 43 45 45 45 41 40 40 37 37 38 37 36 36 34 33 33 33 32 32 31 31 31 31 33 33 32 29 29 29 27 28 26 24 22 21 19
34 44 43 44 45 44 43 43 45 44 41 41 41 39 39 38 38 37 35 35 34 33 32 32 31 30 31 31 31 30 30 32 32 30 27 27 27 28 31 30 31 32 32 22
44 44 44 42 42 42 43 44 44 42 41 41 41 40 39 37 36 36 34 34 33 32 31 30 29 29 30 30 29 29 29 32 31 29 28 26 25 24 25 28 32 31 32 32
45 43 40 40 42 45 45 43 44 43 42 40 39 39 37 36 35 34 33 33 33 31 30 29 29 30 31 30 29 28 31 30 30 29 28 28 24 24 25 23 19 17 26 29
44 42 42 43 43 41 42 43 40 38 37 36 38 36 35 34 33 34 33 33 32 30 30 29 29 32 32 31 30 31 32 31 29 28 27 26 25 24 22 20 22 20 17 19
42 42 42 40 40 41 40 37 34 33 35 35 36 34 35 35 34 33 33 32 28 27 29 24 25 31 33 32 30 32 33 31 29 26 27 22 21 23 24 22 23 23 20 16
38 36 36 36 35 35 35 35 36 36 36 36 34 34 34 31 28 30 30 27 24 23 25 25 27 31 33 33 32 32 32 32 29 26 26 21 20 18 20 20 22 23 22 17
38 38 38 37 35 33 33 35 35 35 34 35 29 26 24 25 27 27 26 24 19 23 26 28 28 30 30 30 30 31 30 30 28 26 23 16 19 19 18 17 17 18 19 17
37 35 35 35 35 35 35 34 34 33 29 27 25 27 26 25 25 27 23 19 20 21 29 27 28 27 28 28 29 30 30 29 27 24 22 19 16 18 16 13 15 16 17 18
37 37 36 36 36 34 33 34 30 32 33 26 22 25 26 26 22 22 20 23 28 29 29 28 27 26 27 31 31 30 30 29 26 25 22 21 20 21 22 18 19 19 18 19
35 35 34 31 31 29 28 27 25 28 30 23 23 25 24 29 30 24 23 25 30 27 28 24 24 26 31 32 32 31 31 30 27 25 25 24 23 23 24 24 22 22 21 18
33 31 26 26 27 29 29 29 30 24 24 21 19 21 25 29 29 25 24 26 32 24 24 24 28 31 31 31 31 31 31 30 30 29 27 26 26 25 25 25 25 24 23 23
33 33 32 26 25 31 29 28 24 22 23 24 24 24 22 27 26 21 26 28 25 23 26 28 31 31 31 31 31 31 31 30 30 29 29 28 27 27 27 27 26 25 25 24
33 33 32 31 25 27 29 31 30 30 23 25 25 24 23 25 28 25 27 25 23 29 26 29 30 30 29 29 29 29 30 30 30 30 29 29 28 28 27 27 27 26 27 26
29 30 29 27 28 28 29 29 28 28 28 29 28 28 26 24 25 29 22 24 27 26 28 22 22 20 19 23 25 24 24 25 27 28 29 30 29 28 27 27 27 28 27 26
28 27 28 29 28 28 26 26 25 27 29 29 30 32 31 27 26 24 28 30 27 26 24 22 18 15 14 15 15 15 16 18 19 20 22 25 28 29 29 28 28 28 27 26
27 24 25 25 25 25 24 24 24 24 25 25 26 30 31 31 31 31 31 27 19 20 20 17 14 13 13 12 11 11 12 13 13 13 14 17 20 25 29 29 29 28 26 24

GFSNGP_sfc_temp_033.txt.gz
Temp
44 44 46 47 46 45 46 45 43 46 44 51 54 54 53 51 50 49 50 50 52 52 53 53 53 51 52 52 52 53 51 50 48 48 48 47 46 45 44 43 44 43 42 42
41 42 42 43 46 46 45 45 45 45 45 53 52 52 50 49 49 48 50 51 51 51 52 52 50 52 50 51 51 50 48 48 47 47 46 45 45 43 43 43 42 42 41 40
36 37 39 36 43 46 45 46 49 43 52 49 48 48 50 49 49 49 50 50 51 50 51 51 51 50 51 51 49 47 47 46 46 45 45 44 44 43 43 42 41 39 40 40
34 32 31 47 49 49 47 49 49 48 49 50 50 49 50 52 50 49 50 50 50 49 48 50 51 50 49 48 47 46 45 45 45 44 43 43 43 42 42 42 41 40 38 38
33 33 39 48 45 45 44 48 51 50 49 47 46 49 50 50 52 52 51 50 51 51 50 50 50 48 47 46 46 45 44 45 45 43 42 41 41 40 41 41 39 37 39 37
30 32 31 43 49 51 52 41 51 50 46 45 48 43 52 50 50 50 51 50 49 49 49 49 48 46 46 46 44 43 43 44 44 43 41 40 40 39 40 41 39 39 37 36
26 33 37 46 50 52 40 44 47 49 48 45 46 51 50 49 48 50 49 48 48 48 48 47 46 45 44 43 42 43 43 43 43 42 40 40 39 40 39 39 37 35 33 34
27 29 32 48 50 44 50 49 49 49 48 46 48 47 46 46 46 46 46 46 47 45 45 44 45 44 43 42 43 43 42 41 41 40 40 39 39 39 38 37 35 33 30 31
39 40 48 50 50 51 50 50 51 48 49 49 46 46 45 43 45 45 44 43 45 45 43 43 43 43 41 42 41 41 40 40 40 40 40 39 38 37 36 36 34 33 32 32
41 48 46 48 51 50 51 51 52 51 51 49 48 46 44 43 42 41 42 44 43 42 41 40 40 40 40 40 40 38 38 39 40 39 39 38 38 37 36 34 33 32 32 31
41 46 46 49 49 52 51 50 50 50 50 49 47 43 43 41 39 40 41 41 42 40 39 38 39 39 39 39 38 37 37 38 38 38 36 36 36 37 35 36 34 33 33 32
40 48 49 50 52 51 48 49 49 48 45 45 46 42 40 38 39 40 41 40 39 38 38 38 37 37 37 37 36 35 35 37 37 36 36 35 35 36 33 32 32 32 32 31
48 50 50 50 49 49 49 48 46 45 45 42 41 40 39 37 37 37 39 38 38 38 37 36 35 36 37 36 35 34 34 34 36 34 35 34 33 33 32 34 33 33 33 33
49 48 47 47 46 47 45 44 44 43 42 40 39 37 37 38 38 39 38 39 38 37 36 36 35 36 37 38 36 33 34 33 33 34 35 34 33 32 32 30 30 32 32 31
45 46 45 44 44 43 44 42 38 36 35 34 37 37 38 37 38 38 38 37 36 35 36 36 35 36 39 37 36 35 36 34 33 34 33 32 32 32 31 30 30 30 32 29
41 42 42 40 39 39 38 36 33 32 32 33 36 37 37 38 37 37 37 36 32 34 36 31 30 35 37 37 37 37 37 34 33 34 33 32 32 31 31 30 30 30 30 31
40 35 36 34 34 34 34 34 34 34 35 38 36 36 37 34 31 33 35 33 30 29 30 29 30 37 36 36 36 37 36 34 33 34 32 32 31 31 31 30 30 30 30 31
38 36 36 35 34 34 34 34 36 37 36 37 32 31 30 29 31 31 31 30 27 27 30 32 32 34 33 36 36 36 34 34 33 32 32 31 31 31 30 30 30 29 30 31
38 37 37 37 38 37 37 36 36 35 32 31 31 31 30 30 30 30 30 27 27 29 34 34 32 32 34 34 33 34 33 32 32 32 32 30 30 30 29 29 29 29 29 29
37 38 38 37 37 36 34 35 32 34 35 31 29 29 30 30 29 27 27 27 31 35 36 34 33 32 32 32 31 33 32 31 31 31 30 30 30 30 30 28 29 29 29 29
36 36 34 33 33 31 30 30 29 32 32 27 27 29 28 28 29 31 29 29 36 33 33 31 32 32 33 34 33 32 32 32 32 32 31 31 30 30 29 30 30 30 29 30
36 34 29 28 30 32 32 32 31 28 28 27 26 24 24 28 30 30 31 30 36 29 31 33 33 32 34 32 34 32 32 31 31 31 31 32 31 31 30 30 30 30 30 30
34 34 32 29 28 32 31 30 28 28 26 27 27 28 29 30 31 29 30 35 33 33 31 32 32 31 32 32 32 32 31 31 31 31 32 32 32 31 31 31 31 31 31 30
33 32 30 30 28 28 27 29 29 29 27 27 28 26 28 29 31 34 33 32 29 27 30 31 31 30 26 28 28 28 28 27 26 27 27 28 30 31 31 31 31 31 31 30
28 29 29 28 27 27 27 27 27 28 28 28 28 30 30 33 29 32 32 31 30 30 30 30 26 23 24 23 22 21 20 20 21 21 22 23 24 26 28 30 31 31 31 31
28 27 28 27 25 25 24 24 23 25 23 22 24 26 27 28 29 31 32 33 32 31 29 26 23 21 20 18 18 17 17 17 16 16 15 17 17 18 19 21 26 31 31 31
25 22 23 23 23 22 20 19 18 18 19 20 20 23 24 24 26 26 28 30 31 26 23 20 19 17 16 16 16 15 15 15 13 12 13 14 14 16 16 18 21 28 31 31

GFSNGP_sfc_temp_036.txt.gz
Temp
55 55 55 56 57 57 56 58 50 58 58 65 67 68 69 68 67 64 62 62 63 63 63 63 61 62 62 61 61 61 60 59 58 57 55 54 53 52 52 50 51 51 48 47
49 52 52 51 57 58 59 59 58 60 58 70 69 67 66 63 63 62 61 62 62 63 63 62 61 61 60 60 59 59 58 56 56 53 53 52 51 50 50 50 50 49 48 47
46 47 48 40 52 58 59 60 59 54 62 66 62 62 64 64 63 62 62 61 61 62 61 61 60 60 59 59 58 57 56 54 53 52 51 51 51 50 50 49 49 46 46 47
43 39 35 57 59 59 59 61 65 63 65 64 65 65 64 67 65 62 62 62 62 62 60 61 60 60 59 59 57 55 53 52 52 51 50 50 50 49 49 48 47 45 43 45
38 43 51 58 56 54 53 57 64 63 65 62 59 59 61 64 65 64 63 63 63 63 60 59 58 58 58 56 55 52 51 51 51 51 50 49 48 47 47 47 47 44 44 44
40 37 36 53 56 59 59 50 61 61 60 57 58 52 63 64 62 63 64 64 60 58 58 55 58 56 54 53 51 50 50 51 51 50 49 48 47 46 47 47 45 42 43 44
40 38 48 58 58 59 45 51 61 60 61 58 56 63 61 64 61 63 62 60 57 53 53 56 54 54 52 51 49 50 50 50 50 50 48 47 47 47 47 46 44 42 39 41
39 36 36 58 56 50 58 61 60 60 61 59 61 57 58 59 58 58 57 54 55 53 51 51 52 51 51 49 51 50 49 48 48 48 47 46 46 46 45 44 42 39 34 36
51 52 58 60 61 63 61 59 61 60 62 60 58 57 56 56 55 55 55 54 54 52 48 50 50 50 47 50 48 47 46 46 47 46 46 46 46 44 43 43 40 38 36 36
49 58 59 60 63 64 64 61 62 63 62 61 59 59 55 54 53 52 49 49 48 48 48 46 47 46 48 47 47 45 44 45 45 45 45 46 45 42 42 40 37 35 34 34
51 58 60 61 61 60 60 61 60 61 59 58 59 56 54 52 48 47 44 42 47 47 48 47 46 45 47 46 45 44 43 44 43 44 44 44 44 42 40 40 38 36 36 35
49 54 54 57 60 59 57 58 58 57 53 54 56 53 52 45 44 42 40 45 47 46 44 44 43 45 45 45 43 41 40 42 43 42 42 41 41 40 36 34 33 33 33 33
52 56 56 56 57 56 54 54 54 53 52 50 49 46 44 42 39 38 43 43 43 43 43 42 42 43 44 43 40 39 39 38 38 36 36 37 37 36 35 36 34 33 33 33
54 54 53 51 49 51 51 50 47 46 44 41 39 39 37 38 40 42 43 43 44 43 42 42 42 42 43 43 42 39 39 35 38 37 36 36 37 36 35 34 32 34 34 34
49 52 50 51 50 48 46 41 37 37 36 34 35 36 39 40 40 41 43 42 41 41 42 42 42 43 46 43 41 41 41 41 40 36 35 35 35 35 34 33 32 33 35 34
47 48 45 43 41 40 38 36 34 34 36 38 43 42 43 43 43 42 42 42 37 39 42 36 36 40 43 44 44 43 43 37 36 38 36 35 34 33 33 33 33 33 33 33
41 36 37 36 36 36 36 38 41 42 43 43 42 41 42 39 36 38 40 40 34 33 34 34 35 44 43 43 42 43 42 42 37 38 36 35 34 34 33 33 32 33 34 34
44 43 43 41 39 37 38 40 41 41 41 40 35 33 33 33 35 35 35 34 33 33 35 37 38 42 42 43 42 41 39 37 36 34 34 34 34 34 34 33 33 33 34 34
44 43 43 43 43 42 41 41 41 39 35 34 33 33 33 33 36 36 35 32 31 32 41 42 37 35 40 40 36 36 35 34 33 32 33 33 33 33 33 32 32 33 33 33
43 43 43 42 41 39 38 39 35 40 40 36 33 33 33 33 33 32 33 32 35 39 41 41 40 39 39 39 33 35 34 33 33 33 32 33 32 32 32 32 32 32 32 32
41 41 38 38 37 35 33 33 33 35 36 32 31 31 31 31 32 32 33 37 41 39 40 36 38 40 42 39 37 35 34 33 33 32 32 31 31 32 32 32 32 32 32 32
42 37 33 33 36 36 36 36 34 31 31 31 30 31 31 33 33 33 33 33 38 34 36 36 37 36 38 33 35 34 33 32 33 33 32 32 32 32 32 32 32 32 32 32
39 38 35 32 32 34 34 32 30 30 29 29 30 30 30 33 34 31 30 37 35 34 35 33 33 33 32 32 33 32 32 31 31 31 30 30 30 31 31 31 32 32 32 32
36 33 32 33 33 32 31 33 32 32 30 30 30 29 29 30 31 34 35 33 33 33 33 33 32 32 31 32 31 30 29 29 28 27 27 26 27 27 27 28 29 31 32 32
32 33 33 31 32 32 31 30 31 31 30 30 29 30 30 32 28 30 31 31 30 31 32 33 30 27 29 28 27 26 26 26 24 23 22 23 23 23 24 24 24 25 27 30
33 32 32 30 29 29 29 28 26 28 26 25 27 27 27 28 28 29 29 28 29 27 27 26 23 24 24 22 22 22 22 22 21 20 20 20 20 21 20 20 21 23 24 26
29 27 29 29 28 27 25 23 22 22 23 22 21 23 25 25 25 25 24 23 23 22 22 21 20 18 18 18 18 18 19 19 16 16 17 17 17 17 17 17 19 20 22 23

GFSNGP_sfc_temp_042.txt.gz
Temp
63 65 65 62 62 64 61 61 51 56 59 67 71 71 73 74 74 73 74 74 74 72 70 69 67 67 65 63 60 60 59 59 58 58 57 56 54 52 52 50 50 50 49 48
55 62 62 58 61 63 63 63 63 63 61 73 75 73 71 72 72 72 72 73 72 71 71 69 68 65 64 61 60 60 58 57 58 57 56 53 51 51 50 49 49 49 47 46
45 55 53 42 54 59 62 65 64 55 64 72 70 71 69 70 71 70 70 71 71 70 69 68 67 64 61 62 61 58 57 57 57 56 54 52 52 51 49 48 47 45 45 45
43 40 35 57 68 66 61 64 67 67 67 69 66 69 71 72 70 69 70 70 70 69 68 68 66 65 62 61 59 55 56 56 56 54 52 51 51 50 48 47 45 44 43 43
38 43 52 58 63 61 58 58 65 64 65 68 68 67 66 72 69 68 68 70 69 69 68 67 65 62 60 58 56 54 54 54 54 52 51 50 49 47 47 45 44 43 44 42
43 37 33 55 62 67 65 48 64 64 63 63 66 51 58 68 69 69 70 70 68 68 67 64 61 60 57 54 53 52 52 51 52 51 50 48 47 46 46 45 45 43 41 40
41 39 47 63 65 65 46 48 63 63 63 62 59 60 63 66 67 69 69 68 67 64 61 60 59 57 52 49 48 50 51 52 52 51 49 48 46 45 44 43 41 38 36 36
44 35 34 66 63 52 58 63 63 63 63 61 63 64 65 65 65 66 65 62 62 57 52 51 51 49 47 46 51 51 49 47 48 47 47 48 44 43 43 41 38 37 32 32
50 49 62 67 64 67 65 63 62 62 63 63 62 63 64 63 63 62 60 59 58 51 48 47 47 46 44 47 49 48 45 43 44 46 47 47 43 41 40 40 34 33 32 31
55 62 64 66 67 64 63 61 63 64 64 61 59 61 62 60 58 52 49 48 46 44 42 41 45 48 49 47 45 44 42 43 44 44 43 43 43 42 40 35 32 32 31 32
57 61 63 62 60 59 61 61 60 62 59 58 60 58 57 53 48 44 42 42 43 42 43 46 48 46 46 46 46 43 43 44 42 41 40 41 43 41 36 36 34 32 32 33
49 57 56 53 57 59 56 55 56 56 52 52 52 47 43 39 40 41 41 43 43 44 44 45 47 47 47 47 45 43 41 40 37 36 36 38 38 37 39 36 36 36 36 33
56 59 58 55 55 54 50 50 49 48 46 41 41 40 39 38 39 39 42 43 43 44 46 46 45 44 45 46 43 39 37 36 36 34 35 34 34 34 32 36 37 36 35 35
58 57 51 55 48 49 47 45 45 45 44 43 43 43 41 40 41 42 43 46 47 47 45 45 45 45 47 47 43 38 38 36 37 37 36 37 36 35 34 32 32 32 35 34
54 56 52 51 50 48 48 46 43 41 41 42 44 43 45 45 46 46 47 47 46 45 45 46 43 42 47 43 42 40 39 39 38 38 36 34 34 34 33 33 32 31 33 32
50 50 49 47 46 46 45 44 41 40 43 44 43 43 46 46 45 45 45 41 36 36 38 33 34 38 41 44 44 43 43 38 36 37 36 35 34 34 33 32 32 32 32 32
43 42 43 42 43 44 44 44 43 42 43 40 38 36 38 36 38 38 39 37 33 32 33 34 35 43 40 43 43 42 41 40 37 37 36 34 34 33 33 32 32 32 32 33
49 48 47 45 43 42 42 43 41 40 37 35 32 32 31 30 33 34 34 34 33 33 35 37 34 36 38 41 40 38 37 37 37 36 35 33 33 34 32 32 31 31 32 31
48 46 46 46 46 44 42 40 38 36 33 32 31 31 31 31 32 32 33 30 30 33 35 37 34 35 36 37 35 36 35 35 35 35 34 33 32 32 32 31 31 32 32 31
45 45 44 41 40 39 36 36 36 37 35 31 27 28 29 28 28 28 30 31 34 32 34 34 34 34 35 36 34 34 33 32 33 31 32 32 32 31 31 30 31 31 31 32
43 41 37 36 34 33 31 32 30 32 33 26 27 26 25 27 29 27 30 31 33 32 32 31 31 31 30 29 30 31 32 31 32 31 32 32 31 29 30 30 30 30 31 31
39 35 33 34 36 35 34 34 32 27 27 25 23 21 23 28 27 29 27 29 31 28 28 29 29 24 24 23 29 29 29 30 31 31 31 31 28 27 26 27 26 25 26 26
37 35 34 33 33 35 34 33 28 28 25 24 24 25 27 28 30 26 25 30 29 25 27 26 23 20 19 24 25 25 25 26 25 25 25 25 25 24 24 24 23 23 22 22
38 37 36 36 34 34 33 33 34 34 26 28 25 23 27 26 26 29 29 26 24 22 23 24 21 19 19 21 21 20 20 20 19 20 20 22 22 21 21 21 20 20 20 21
36 36 35 34 35 33 33 32 33 32 30 30 29 29 27 29 25 25 25 24 23 23 22 22 21 17 18 18 18 17 17 17 16 15 16 16 17 17 17 16 16 16 17 17
37 35 33 33 32 31 30 29 27 28 26 26 26 25 26 27 26 25 24 22 23 21 21 21 20 18 17 16 16 15 14 14 13 13 13 13 13 13 13 13 13 14 14 14
31 32 34 32 31 29 27 26 24 22 24 22 21 22 25 25 23 22 20 21 21 20 19 19 18 17 16 15 14 14 14 13 12 12 11 10 11 10 10 11 12 12 13 14

GFSNGP_sfc_temp_045.txt.gz
Temp
53 56 56 55 54 55 55 51 41 47 50 56 57 58 59 60 61 63 64 63 63 62 58 58 58 58 60 57 57 57 57 56 54 54 53 51 50 49 48 47 49 48 46 45
45 55 54 48 53 53 54 54 52 52 51 59 60 60 60 62 63 62 61 63 62 60 60 60 59 57 58 57 56 57 55 54 54 52 51 50 49 48 48 47 47 46 45 44
36 46 46 35 47 51 53 54 52 44 51 56 56 58 57 58 60 60 60 61 63 61 60 59 59 58 56 56 56 54 53 53 52 52 51 49 49 49 47 45 44 43 43 43
32 33 26 48 58 59 54 54 54 55 55 56 56 56 58 57 57 58 60 60 61 60 59 56 56 57 56 56 54 53 51 51 49 49 49 49 47 47 45 44 43 42 41 41
31 30 42 50 54 52 50 47 54 52 54 56 57 55 53 59 59 58 58 59 58 57 55 54 55 55 55 53 52 51 49 49 49 47 46 47 45 43 43 43 42 41 41 40
31 28 24 43 55 59 57 37 54 54 52 52 53 38 45 56 58 58 58 56 55 54 54 52 50 51 49 49 47 46 47 47 48 47 46 44 43 42 42 42 42 40 39 38
26 25 35 54 58 58 37 38 52 54 53 52 47 49 54 57 57 56 53 49 48 46 45 45 47 47 45 46 45 47 47 47 46 46 45 44 42 42 42 40 38 35 34 34
32 31 30 58 55 44 47 52 52 53 52 51 52 54 56 55 53 53 47 45 45 42 42 43 45 45 44 43 46 46 45 45 45 44 43 44 41 41 40 38 34 34 28 30
40 37 50 55 51 53 53 51 52 51 52 53 52 52 52 46 44 43 42 41 42 41 41 44 45 45 42 44 46 45 43 40 40 41 42 43 39 37 35 35 31 32 30 27
45 51 53 52 54 55 54 52 53 52 51 52 50 49 44 42 41 40 39 38 40 41 41 41 45 46 44 43 42 40 38 38 38 38 38 38 38 37 34 28 26 29 28 28
46 49 49 50 51 52 52 52 49 47 46 45 43 42 40 39 39 41 41 42 42 42 41 42 42 42 43 42 41 40 39 38 37 36 35 35 36 34 31 31 29 28 28 28
36 47 46 45 48 50 47 46 48 43 41 41 41 38 40 39 40 40 39 40 40 40 40 40 41 40 41 42 40 38 36 34 30 30 30 32 32 31 35 34 36 36 36 30
47 50 47 45 45 45 42 42 42 41 40 39 39 38 37 35 36 37 38 39 39 40 40 39 39 39 40 40 38 35 33 32 31 31 30 31 30 30 31 33 36 36 36 36
52 49 43 45 40 43 42 42 42 41 40 38 37 37 36 35 37 38 38 40 40 40 39 38 38 37 38 39 37 34 33 32 32 32 31 32 32 32 32 30 30 30 32 34
47 48 45 45 43 42 43 41 38 36 37 36 38 38 39 38 37 37 37 38 37 36 36 36 35 35 38 36 35 34 33 31 32 33 33 33 34 34 32 31 28 29 30 28
45 45 44 42 42 41 40 38 36 35 38 38 36 35 36 36 36 36 36 34 30 29 30 28 28 33 35 38 38 37 36 34 35 35 33 33 33 32 32 31 31 31 30 28
39 38 40 40 41 41 40 40 40 38 36 32 29 30 31 31 31 31 30 30 30 29 30 31 32 36 34 38 36 35 33 33 30 32 32 33 32 33 32 32 31 31 28 27
46 45 44 41 40 38 37 36 34 32 30 29 30 30 29 29 27 27 27 27 24 24 31 31 30 31 32 33 31 30 30 30 30 29 31 31 31 33 33 29 25 24 25 27
45 43 43 43 41 38 36 34 31 30 28 29 25 25 25 22 27 28 27 21 23 24 27 29 29 29 28 27 26 25 25 25 27 27 28 29 29 31 32 29 27 24 23 25
40 39 37 36 35 34 32 33 31 29 29 25 20 16 20 18 16 17 20 23 26 25 27 28 27 24 24 24 21 22 24 25 26 27 28 29 29 28 31 29 26 26 27 27
36 34 32 31 30 30 28 27 27 28 27 17 18 13 13 17 18 14 21 23 25 24 25 23 23 20 21 19 23 22 21 22 22 22 23 23 24 24 25 24 23 18 18 19
35 33 31 31 30 29 29 29 27 22 20 14 9 10 11 22 17 20 15 22 24 15 21 23 21 14 18 16 20 18 18 18 16 18 18 19 20 20 21 21 19 18 18 16
33 33 32 30 29 29 29 27 20 20 16 13 12 14 17 21 21 16 19 24 23 17 21 20 11 10 11 15 15 14 13 14 12 13 14 15 16 16 16 15 15 15 15 16
33 32 31 32 29 29 27 29 28 27 16 20 14 11 19 13 11 21 21 16 11 9 11 15 13 11 6 6 10 11 11 11 10 10 12 12 12 13 12 12 12 13 13 13
32 32 31 29 28 26 27 27 27 26 24 25 23 23 22 21 12 14 11 12 14 12 9 11 12 11 4 0 1 2 3 5 7 8 9 8 9 9 9 10 10 11 11 11
30 28 28 28 26 25 24 24 21 20 19 14 14 8 12 15 15 13 10 10 12 12 9 4 5 7 6 0 -0 -0 4 6 5 7 4 5 6 6 6 7 8 9 9 10
28 27 26 24 25 24 22 20 15 14 13 7 7 9 14 14 7 11 5 3 3 8 3 3 4 2 5 5 -1 2 -1 -1 0 5 -4 -1 2 2 4 5 6 7 8 8

GFSNGP_sfc_temp_048.txt.gz
Temp
50 52 52 51 51 51 48 47 40 45 46 53 54 55 54 57 58 57 58 59 58 57 56 56 56 55 54 53 53 53 53 53 52 52 51 50 48 46 45 46 45 45 46 44
44 50 51 46 49 48 50 50 49 48 46 51 53 54 55 56 57 57 57 57 58 57 56 56 55 54 53 52 52 53 54 52 51 50 50 47 46 45 46 46 45 46 45 44
36 42 43 34 45 49 49 49 51 42 48 51 51 53 52 52 54 55 55 56 56 55 56 55 54 53 51 51 52 50 51 50 50 49 48 47 47 47 46 45 44 43 41 41
30 32 25 46 54 53 48 49 50 51 50 50 51 50 51 53 52 54 54 55 55 54 52 51 52 51 51 51 50 48 47 47 48 47 46 46 46 45 43 43 42 41 40 40
30 30 39 47 52 50 46 43 49 49 50 52 51 51 50 53 52 51 50 49 49 49 49 50 50 51 49 48 47 46 45 45 45 44 45 45 42 41 42 40 40 40 40 38
29 28 25 42 51 55 53 35 51 50 49 50 49 38 43 49 49 45 46 46 45 45 46 45 46 47 45 44 45 43 43 44 45 45 42 41 41 40 40 40 39 38 37 36
24 26 33 47 55 55 38 38 50 50 49 48 45 46 48 47 45 45 44 43 44 43 42 43 45 46 44 43 41 45 45 45 43 43 42 41 39 39 38 37 36 33 33 33
29 25 30 52 52 45 45 48 49 49 49 47 47 48 47 45 43 42 41 41 42 42 43 45 46 45 43 42 45 45 43 42 42 40 40 40 36 36 35 33 32 31 26 30
38 36 47 49 49 50 50 49 48 47 49 49 45 42 42 39 39 40 39 39 43 43 43 44 44 43 40 42 43 42 41 38 38 38 38 38 34 33 32 32 28 29 29 28
42 45 46 48 49 50 49 45 46 47 47 47 42 41 39 39 38 38 41 42 42 42 41 41 42 42 41 41 40 38 36 36 36 35 35 34 34 33 31 26 24 28 27 27
40 44 47 46 46 46 45 44 43 43 43 42 40 39 39 38 41 41 41 41 42 41 40 40 40 39 39 39 39 37 36 36 34 33 33 32 33 32 31 31 30 29 28 28
35 46 43 42 43 46 43 42 42 40 38 40 40 38 38 37 40 40 39 40 40 39 37 37 38 38 38 38 37 35 34 33 31 30 29 31 31 33 35 34 34 35 35 30
43 46 43 41 42 43 40 40 40 39 38 36 37 37 36 34 36 37 36 37 36 36 36 35 34 34 36 35 34 33 31 31 31 31 31 30 30 30 30 35 35 36 36 36
45 44 39 41 37 40 40 39 40 38 38 36 35 34 34 34 35 34 34 34 35 34 34 33 32 32 34 35 33 32 31 31 30 30 30 31 30 30 31 31 31 32 34 34
43 44 42 41 40 39 40 39 36 34 34 34 35 34 35 34 33 32 32 32 31 30 30 32 31 32 34 34 33 32 32 31 31 31 31 30 32 32 33 33 32 33 34 29
41 41 40 38 38 38 37 36 34 32 33 33 32 32 33 33 32 31 31 29 28 29 32 29 28 30 31 32 31 30 29 28 27 29 29 29 29 29 31 31 31 32 31 29
36 34 36 36 37 36 36 36 35 33 31 29 29 31 31 30 29 29 29 28 24 28 28 26 26 29 29 28 26 25 24 25 24 26 26 26 26 26 27 27 28 30 32 29
42 42 42 41 38 36 34 33 31 30 30 30 29 25 23 23 26 27 25 24 21 22 26 27 26 25 26 26 24 24 23 22 24 24 26 25 26 27 27 28 28 29 30 27
43 42 41 40 38 35 33 30 29 30 28 26 24 23 23 21 26 26 25 18 18 21 24 26 24 23 23 23 22 22 21 20 20 21 22 22 23 25 24 23 25 27 26 24
38 38 37 36 35 32 29 29 29 29 27 24 20 20 22 18 15 16 20 21 22 23 25 23 22 21 21 20 18 19 16 17 16 16 15 16 18 18 20 21 20 20 19 19
34 33 32 31 29 30 29 28 27 27 26 19 19 15 14 18 16 13 19 21 23 22 23 21 19 18 19 15 17 14 12 13 10 10 11 12 13 15 15 14 15 15 16 16
32 30 29 29 29 29 29 29 27 24 21 17 13 11 15 21 17 17 15 20 22 11 18 20 18 8 13 8 14 9 11 11 8 8 9 9 9 10 10 10 11 12 13 13
32 31 30 29 28 29 28 26 22 21 19 17 15 15 18 21 20 14 14 22 21 14 18 14 7 4 3 1 -0 -2 -2 1 5 5 6 6 7 8 7 8 9 9 10 11
32 31 30 31 29 28 26 27 28 25 19 19 14 10 18 12 9 19 19 11 6 4 4 6 4 4 0 -5 -6 -6 -3 -4 -5 1 2 -1 3 3 3 5 6 7 9 9
32 31 30 28 28 26 27 27 25 25 23 22 20 21 19 21 12 13 7 7 9 8 4 2 3 3 -4 -7 -8 -9 -6 -8 -8 0 -8 -4 -0 -0 -0 2 3 5 6 7
29 27 27 27 25 25 24 23 20 20 18 13 13 4 5 13 13 11 6 4 7 6 1 -3 -5 -5 -7 -1 -6 -8 -7 -4 -8 -2 -10 -8 -5 -3 -3 -1 1 2 4 6
26 25 24 23 23 22 20 18 14 13 11 3 5 3 12 7 4 5 -3 -5 -5 -2 -5 -3 -7 -6 -5 -6 -0 -4 -8 -9 -10 -7 -14 -13 -10 -7 -6 -2 -1 -1 1 3

GFSNGP_sfc_temp_051.txt.gz
Temp
47 49 50 50 48 47 46 45 39 43 43 50 51 54 53 53 55 54 55 56 55 54 54 54 53 52 51 50 51 51 52 52 50 51 50 49 47 44 44 45 46 46 45 44
39 46 48 45 49 49 48 47 46 45 45 49 49 49 50 52 53 53 53 53 56 55 54 54 52 50 50 49 50 51 51 50 50 48 48 47 46 45 45 45 46 45 44 43
36 41 41 34 43 48 48 48 48 41 48 49 47 49 47 48 51 51 52 53 53 51 52 51 50 50 48 49 50 49 48 49 48 48 46 45 45 45 45 44 43 42 41 41
30 32 25 45 50 51 47 45 46 47 47 48 47 46 47 48 48 48 48 47 47 48 47 47 47 47 48 48 47 47 47 46 45 45 44 45 46 44 42 41 40 40 39 38
30 29 38 44 47 46 45 42 47 45 46 47 48 47 47 47 46 44 44 43 43 44 46 46 46 47 46 45 45 45 44 44 45 45 44 44 42 40 40 39 38 37 37 36
28 27 25 41 49 53 50 35 49 48 47 47 45 37 41 44 43 42 42 42 42 43 43 43 43 45 43 41 41 41 44 44 45 45 43 41 39 39 38 37 36 35 35 34
25 27 34 45 51 52 38 39 48 48 47 46 44 43 41 41 40 41 41 41 42 42 41 41 43 43 41 42 41 44 45 44 43 43 41 41 38 36 35 34 33 31 32 32
28 25 30 49 49 43 45 45 47 47 47 43 42 41 41 40 39 39 39 40 42 41 41 42 43 45 43 42 43 44 43 43 41 41 39 38 35 33 33 31 30 30 26 29
39 36 45 46 48 46 47 48 46 47 46 44 41 39 39 37 38 38 38 38 41 41 42 43 44 44 41 41 41 40 39 37 36 36 36 35 32 32 30 30 28 29 29 28
40 43 43 44 45 45 46 45 45 47 45 43 39 38 37 37 37 37 37 39 42 41 40 40 42 42 41 39 39 37 35 34 34 33 33 33 32 32 30 27 27 30 29 29
38 41 44 44 42 42 41 42 41 42 42 40 39 38 38 37 37 38 39 41 41 40 39 39 39 38 36 35 35 34 33 33 33 32 32 32 32 32 32 31 31 32 32 31
36 45 43 41 42 43 41 39 40 39 38 39 39 37 37 36 38 39 38 40 39 38 36 35 33 32 33 34 32 31 32 31 29 29 29 30 30 31 35 34 35 35 35 33
46 49 42 41 40 41 39 39 39 38 38 36 37 37 36 34 35 37 37 37 35 32 31 30 30 30 32 32 32 31 30 30 30 30 30 29 29 29 28 33 36 35 36 36
43 43 38 39 35 39 38 38 38 37 36 36 34 35 34 33 34 33 32 31 31 30 31 29 29 29 30 31 31 29 28 28 26 26 27 27 27 28 29 29 27 29 34 35
41 42 40 38 38 37 38 37 35 33 33 32 33 33 32 30 29 29 29 30 31 32 30 27 27 27 29 29 27 27 26 25 25 23 24 23 25 25 25 25 25 26 28 30
38 38 38 36 36 36 36 34 32 30 31 32 32 31 31 30 30 29 29 29 29 26 25 19 25 26 28 27 25 24 24 22 21 23 23 25 25 25 26 25 25 25 26 27
34 32 34 34 34 34 34 36 34 31 30 31 30 30 30 29 29 27 27 26 24 23 25 24 23 26 26 25 23 22 21 22 20 22 22 22 21 21 23 22 20 21 22 26
41 40 39 38 36 34 32 32 31 31 30 29 27 25 24 25 26 25 23 22 21 20 24 24 23 24 24 23 23 22 19 19 18 17 18 16 16 19 20 19 18 18 18 20
43 41 40 39 37 34 32 30 30 30 27 26 25 23 23 23 27 25 22 18 17 19 23 23 23 21 21 21 19 18 14 14 12 14 13 12 13 13 15 13 14 15 16 17
39 38 36 34 34 32 29 29 29 28 28 25 24 23 21 18 19 18 19 19 21 22 24 21 21 19 19 18 12 15 11 8 9 8 8 9 8 9 10 8 10 10 11 13
34 33 32 30 29 29 29 28 27 27 26 23 21 19 19 19 17 15 17 19 22 21 22 18 18 16 17 13 14 7 3 1 -0 3 3 4 4 6 5 5 6 6 8 9
32 30 29 29 29 28 29 29 26 23 21 18 16 16 17 19 17 17 14 19 22 12 18 17 16 6 11 5 11 -1 5 3 2 -0 -1 1 0 3 1 3 3 4 6 7
30 30 30 28 28 28 27 25 23 21 19 17 16 17 19 21 20 15 15 20 20 11 16 11 6 2 -0 -5 -6 -9 -8 -8 -8 -3 -7 -9 -5 -1 -2 -1 1 2 3 4
30 30 30 29 27 26 25 25 26 23 19 18 14 12 19 14 12 19 18 8 4 1 2 2 -0 1 -4 -10 -11 -12 -10 -13 -14 -9 -8 -9 -11 -8 -6 -5 -2 -1 1 2
30 30 29 28 28 26 27 26 24 23 22 21 20 20 19 18 10 11 6 5 7 5 1 -2 -1 -3 -10 -12 -12 -13 -12 -14 -15 -11 -16 -17 -11 -11 -10 -9 -6 -4 -2 -2
28 28 27 27 26 25 24 23 20 19 17 12 12 4 10 11 12 10 3 1 3 1 -1 -7 -10 -11 -12 -9 -8 -9 -12 -9 -14 -12 -16 -16 -14 -12 -12 -9 -8 -5 -5 -4
24 23 23 22 22 21 20 18 16 15 13 8 7 4 9 9 6 4 -5 -9 -9 -8 -9 -9 -11 -9 -10 -13 -10 -6 -9 -13 -15 -14 -20 -20 -16 -17 -15 -12 -10 -7 -6 -5

GFSNGP_sfc_temp_054.txt.gz
Temp
44 46 47 47 46 44 43 43 38 43 41 48 49 48 50 50 52 52 53 53 53 53 52 52 52 50 50 49 48 50 49 49 49 49 50 49 47 45 44 43 42 46 45 44
38 44 44 42 44 44 45 44 43 43 43 49 46 46 48 48 50 50 49 50 52 53 52 51 50 49 48 47 47 50 48 48 49 48 47 46 45 43 43 44 45 45 43 43
36 39 41 34 43 45 45 45 46 39 47 47 44 47 44 46 47 47 46 46 47 47 48 48 47 46 45 47 48 47 47 48 47 47 45 44 45 45 44 43 42 41 40 40
30 32 25 44 47 48 46 46 46 45 44 45 45 43 43 43 44 43 43 42 42 43 43 43 44 44 45 45 45 44 45 45 45 45 45 45 45 43 42 41 40 39 38 37
31 30 37 41 46 45 44 44 46 44 44 44 45 45 42 42 41 39 39 40 39 41 41 42 42 43 43 42 43 44 45 45 45 45 44 43 42 41 41 39 38 36 36 35
28 27 26 40 47 50 49 37 47 46 43 44 44 38 39 39 40 38 39 39 39 40 40 40 40 42 41 42 44 43 44 43 44 43 42 41 40 39 38 36 35 34 33 33
23 26 33 45 48 50 37 39 46 47 46 44 43 41 38 38 38 38 39 39 40 40 39 39 42 43 41 42 42 43 43 43 43 42 41 40 38 36 34 32 31 31 31 31
28 25 31 49 49 43 45 42 45 45 45 43 38 38 37 38 37 38 37 38 39 39 38 39 40 41 39 40 42 43 43 40 40 38 37 37 33 32 32 31 30 30 27 30
39 38 46 47 47 47 47 45 46 45 44 42 38 37 37 36 36 36 37 38 39 39 38 39 40 41 39 39 39 38 36 35 34 34 34 33 32 31 30 30 28 29 29 29
41 44 43 44 45 44 44 44 45 45 44 42 37 37 36 36 36 36 36 36 38 38 37 37 38 38 37 37 37 34 33 32 32 31 32 31 31 31 29 27 27 30 29 30
39 41 43 45 42 42 41 42 42 41 40 39 38 36 36 35 35 36 36 37 38 36 36 35 35 34 34 33 32 32 31 31 30 30 29 30 30 29 29 29 29 29 30 30
38 47 46 44 42 42 41 39 40 39 37 38 38 36 36 34 35 36 35 37 36 35 33 32 31 30 30 31 30 30 30 29 27 27 26 28 28 28 33 33 34 34 35 32
49 48 40 41 39 40 38 38 38 38 38 36 36 36 35 32 32 35 36 34 32 31 30 29 28 27 28 29 29 28 26 27 25 25 25 25 25 24 22 27 31 31 32 32
43 42 38 39 36 38 37 37 38 36 36 35 34 34 33 32 33 33 32 31 31 29 28 27 27 26 27 27 27 26 24 23 22 22 21 21 20 23 24 24 23 24 28 29
39 40 40 37 37 35 36 36 33 32 32 32 33 32 32 31 31 30 30 31 29 27 27 26 25 24 26 27 25 25 24 22 21 19 19 22 23 23 21 22 23 20 21 23
37 37 37 35 34 34 34 34 32 31 32 32 31 31 30 29 28 28 29 29 26 24 24 20 22 25 26 25 24 23 23 21 19 20 19 18 18 18 19 20 18 17 17 17
34 32 33 33 33 33 33 34 33 33 33 32 30 30 29 28 27 26 25 25 23 23 23 22 22 25 25 24 23 21 19 20 16 17 16 15 14 15 15 15 13 14 14 15
40 38 38 36 34 32 31 32 32 32 31 31 29 27 26 26 25 24 23 22 22 21 22 23 23 24 23 21 21 18 16 15 14 13 13 11 11 12 13 10 10 10 10 12
40 37 37 36 36 33 32 31 30 30 28 27 26 24 25 25 25 24 22 19 17 20 21 22 22 20 20 19 17 14 12 7 8 10 7 6 5 6 8 5 6 6 6 8
38 37 34 32 32 31 29 30 30 29 28 25 24 23 22 21 20 19 20 19 21 22 22 21 20 18 17 16 12 12 7 1 6 3 0 3 -4 -3 -1 0 3 3 2 5
32 32 30 30 29 29 29 28 27 27 26 25 23 22 21 20 19 17 18 19 21 22 21 18 17 16 16 12 12 3 -2 -5 -5 -4 -6 -8 -9 -6 -7 -6 -2 -1 0 2
30 29 28 28 27 27 28 28 26 23 22 20 20 20 19 19 17 17 16 20 21 15 18 17 16 7 9 4 9 -3 2 -1 -5 -7 -10 -11 -13 -11 -10 -11 -6 -3 -2 -1
29 28 27 27 27 26 26 24 22 21 20 19 18 19 20 20 20 16 16 20 19 12 16 11 5 1 -2 -6 -8 -10 -10 -12 -13 -11 -15 -18 -17 -15 -13 -9 -7 -7 -6 -4
28 29 28 28 27 26 23 25 25 22 19 19 16 14 19 14 12 18 17 9 6 3 2 1 -0 1 -5 -12 -13 -14 -14 -16 -17 -18 -13 -15 -21 -18 -15 -15 -11 -8 -7 -6
28 27 26 25 26 25 26 24 23 22 21 21 20 20 19 18 11 12 8 9 10 6 1 -2 -1 -4 -12 -14 -14 -14 -14 -17 -18 -19 -19 -22 -18 -17 -16 -16 -15 -12 -9 -7
27 25 25 27 25 25 24 23 20 19 17 14 14 8 8 10 11 10 6 4 5 2 1 -6 -9 -12 -14 -13 -14 -14 -9 -8 -16 -16 -20 -21 -21 -17 -18 -15 -15 -13 -11 -9
23 23 21 20 21 20 19 19 17 15 14 9 10 8 9 7 3 5 -4 -6 -8 -9 -9 -9 -13 -12 -13 -16 -15 -12 -11 -13 -17 -16 -23 -25 -25 -23 -20 -18 -16 -15 -13 -10

GFSNGP_sfc_temp_057.txt.gz
Temp
50 51 51 52 51 49 49 51 46 51 47 56 59 60 58 56 58 57 57 59 60 60 61 62 61 59 58 56 54 54 53 52 51 51 50 49 49 49 46 46 45 44 44 44
46 48 50 48 51 50 50 50 50 50 49 58 58 57 55 53 55 54 53 53 55 57 59 58 56 56 54 54 54 56 54 51 50 50 49 47 46 44 44 44 44 45 45 44
41 45 46 39 47 49 50 52 53 46 55 55 54 53 52 52 52 50 49 49 50 50 52 53 53 53 52 52 53 53 52 51 48 46 46 45 44 45 43 43 45 44 42 41
37 37 33 52 53 54 52 53 54 52 54 54 53 49 49 49 51 47 47 47 48 49 49 50 51 50 51 52 51 49 47 47 47 46 45 47 45 44 44 43 42 43 42 45
35 38 43 49 51 51 50 54 54 54 53 51 50 51 47 45 46 45 45 45 46 47 48 48 49 50 50 50 50 48 46 45 45 45 44 45 43 42 42 42 43 45 45 45
35 35 33 47 54 55 57 45 55 54 50 49 50 48 52 45 44 43 44 45 45 46 47 47 48 50 49 48 46 45 46 47 48 46 43 42 42 43 46 46 44 44 44 44
33 37 41 49 53 55 44 50 53 54 53 51 50 50 47 44 43 44 45 44 45 46 45 47 49 50 48 47 45 45 46 45 44 44 45 45 45 45 44 44 42 41 40 41
35 34 37 52 52 48 54 52 53 52 52 50 43 42 42 43 42 43 43 44 46 44 44 46 48 48 46 44 46 46 43 42 44 43 43 43 42 42 42 42 40 39 35 38
44 45 53 54 56 55 53 55 51 53 52 46 42 41 42 41 41 42 44 44 46 44 43 44 46 46 43 42 44 43 42 41 40 41 40 41 41 40 40 40 38 37 36 35
47 49 50 51 51 50 52 53 52 52 50 46 43 41 40 41 41 42 43 43 44 42 40 39 40 40 39 39 40 40 39 38 39 38 38 39 39 39 38 36 35 34 34 34
44 48 48 51 50 50 48 48 46 47 47 44 42 40 40 40 40 42 42 42 42 39 38 36 37 35 36 37 39 38 37 36 35 35 35 35 36 35 34 35 33 32 32 32
44 52 52 54 52 48 46 46 46 43 41 43 43 41 41 40 41 41 39 40 38 36 34 33 32 32 34 36 37 36 34 34 31 32 32 32 32 32 31 30 31 31 31 30
53 52 44 43 43 46 44 43 43 43 42 40 41 41 40 38 38 37 38 37 34 32 31 30 32 31 32 33 33 31 30 30 30 29 29 28 28 28 27 30 30 30 29 28
46 46 42 43 43 42 41 41 41 41 41 40 39 39 38 37 37 36 34 33 32 31 30 31 30 29 30 31 30 29 28 25 28 28 27 27 27 26 26 25 24 25 27 26
44 43 45 41 40 38 39 39 36 35 35 36 38 37 37 35 34 32 32 31 31 30 30 30 28 27 30 30 29 28 27 26 25 25 25 23 24 24 24 24 22 22 23 24
39 39 39 39 37 37 37 37 35 34 35 35 35 36 35 34 32 30 31 31 29 26 27 22 25 27 28 28 27 27 26 22 22 23 23 21 21 21 21 20 19 19 19 18
35 33 34 34 35 35 36 37 36 35 35 35 33 32 31 30 29 28 28 26 24 23 24 24 24 27 26 26 25 24 24 22 18 21 19 18 18 18 18 17 16 16 16 16
42 40 40 37 35 34 34 35 35 35 33 31 30 29 28 28 26 25 24 24 23 22 24 24 25 25 23 23 22 21 19 18 18 17 17 15 14 15 15 14 14 13 13 14
41 39 38 37 36 34 33 32 31 30 28 28 27 26 26 26 26 25 24 22 21 21 22 24 23 22 21 20 19 17 16 14 14 14 13 11 11 11 11 11 11 11 11 11
35 34 34 33 34 32 29 29 29 27 27 27 26 25 23 22 22 22 23 22 24 24 24 22 21 20 19 17 16 16 14 12 12 11 10 9 8 7 8 7 7 8 8 8
32 32 30 30 29 29 28 28 26 26 27 27 25 24 23 22 21 21 21 21 22 23 22 20 20 19 19 17 17 14 12 11 10 9 7 6 5 6 6 5 6 6 6 7
29 28 27 27 26 26 27 28 27 25 24 23 23 22 21 21 20 20 21 22 23 20 21 20 19 13 15 12 15 13 13 11 9 8 7 6 5 3 3 3 3 3 4 4
28 28 27 26 25 26 26 25 24 24 23 22 22 22 23 23 23 21 19 21 22 18 20 18 12 9 7 12 12 11 10 8 7 6 5 4 3 2 1 1 0 1 1 2
27 27 26 28 27 26 24 25 25 23 21 22 21 21 22 20 19 21 20 16 14 16 15 14 11 8 6 10 9 9 7 7 6 5 5 -3 3 1 1 -1 -2 -0 -1 -1
27 27 27 26 25 24 23 24 24 23 23 22 22 22 22 21 20 18 17 16 14 15 14 5 6 4 9 8 8 7 6 6 6 4 3 2 1 -1 -1 -1 -3 -3 -3 -2
25 24 24 24 24 24 23 23 21 21 20 19 18 17 16 17 16 16 14 12 13 10 12 10 8 7 8 7 6 5 5 6 5 4 1 0 -1 -2 -3 -4 -5 -4 -4 -3
22 22 21 20 21 21 21 21 19 17 18 17 17 16 16 14 13 13 9 10 9 8 8 8 7 5 6 5 5 5 4 5 1 2 1 -1 -2 -3 -5 -6 -6 -6 -5 -5

GFSNGP_sfc_temp_060.txt.gz
Temp
62 64 64 62 62 62 59 60 54 59 61 66 70 73 74 70 69 69 68 69 72 73 73 73 71 69 63 58 56 56 54 54 52 52 51 49 48 48 49 49 47 48 45 44
55 62 61 58 62 63 63 63 61 62 61 72 74 72 68 66 66 65 64 64 66 68 69 67 66 65 63 61 59 58 55 52 51 51 50 49 50 50 52 50 49 46 44 43
49 56 55 44 56 61 62 63 63 58 66 73 69 67 66 65 64 63 61 62 62 63 64 63 63 63 61 60 61 59 56 54 54 55 54 54 53 50 46 46 45 43 43 44
48 43 36 59 64 68 63 66 68 68 68 70 70 68 64 64 63 60 60 59 60 61 61 61 62 61 61 61 59 57 56 55 54 53 51 50 50 48 46 45 45 45 46 44
41 45 55 56 58 59 59 62 70 68 71 70 64 61 57 58 61 60 58 59 59 60 60 60 60 61 60 58 56 54 54 54 54 54 51 49 47 45 45 45 45 45 52 51
44 42 37 57 67 69 67 53 72 70 69 66 61 55 65 56 56 55 57 57 57 58 59 59 59 60 58 56 55 54 54 53 53 54 52 47 45 46 52 54 53 53 50 51
45 43 53 63 64 66 50 56 71 71 70 64 59 65 61 56 55 57 56 56 57 58 57 58 59 58 55 55 52 53 54 53 51 50 51 52 52 52 52 52 50 47 46 48
46 40 39 61 61 58 67 66 70 68 68 64 60 56 54 54 53 54 54 54 56 55 55 57 58 57 54 52 54 54 52 49 50 51 50 51 50 50 50 50 46 45 41 43
51 54 63 64 70 71 68 71 66 68 67 65 55 53 53 52 52 53 54 55 56 54 53 54 56 56 52 51 52 51 50 49 48 48 48 48 48 47 48 46 44 42 41 40
52 64 62 63 68 64 66 66 66 67 65 59 56 54 52 51 51 52 54 54 54 51 49 48 50 50 49 49 50 49 47 46 46 44 46 46 47 46 45 41 39 38 37 37
58 63 58 60 64 68 63 61 61 64 63 60 56 53 51 50 51 53 53 52 52 49 47 46 46 45 45 47 48 46 45 44 43 42 42 44 43 41 39 38 34 34 35 34
53 66 62 69 66 68 63 61 61 60 58 59 57 53 52 51 52 52 50 50 48 46 43 41 40 39 41 45 46 44 41 41 37 39 40 41 41 41 30 31 31 31 29 29
64 67 67 56 55 61 61 61 60 58 59 55 55 54 52 50 50 46 48 47 44 41 38 37 37 37 40 40 40 39 38 37 37 36 37 36 36 36 34 35 31 30 29 28
63 58 57 55 60 54 55 57 53 57 56 54 53 52 50 48 45 46 44 43 41 38 36 36 36 36 39 39 37 36 34 29 36 36 35 34 34 33 33 30 29 30 30 27
58 58 57 56 54 52 53 51 49 49 49 48 50 47 46 44 43 42 41 39 38 36 36 38 36 35 37 36 36 35 35 34 33 32 30 29 30 30 30 29 28 28 29 29
57 53 52 51 51 49 48 48 48 44 45 45 45 45 45 44 40 39 38 37 35 34 35 28 30 33 34 35 35 34 32 25 27 31 30 29 28 27 27 27 26 25 25 25
48 45 47 47 47 47 47 48 47 45 44 44 43 43 40 37 36 34 31 29 27 27 28 28 30 32 31 32 32 33 31 29 22 29 28 26 25 25 24 24 23 23 23 23
52 51 51 50 47 44 43 44 43 42 40 38 34 31 29 28 26 25 25 25 25 26 28 29 29 28 28 28 28 27 26 26 26 24 25 23 21 23 22 21 21 20 21 21
48 46 46 45 45 43 40 39 37 34 31 31 29 27 26 26 26 25 25 23 22 23 25 27 24 26 25 22 25 25 23 22 23 22 21 18 20 20 19 19 18 18 18 18
36 37 36 35 35 34 31 31 30 30 30 28 28 26 24 24 24 24 25 25 27 26 27 25 25 24 23 21 21 23 21 20 20 20 19 18 18 16 17 15 15 16 16 16
31 31 30 30 29 29 29 29 28 28 28 28 26 25 24 23 24 24 24 24 24 25 25 23 25 25 24 23 23 21 20 19 18 18 17 16 15 16 15 14 14 14 14 14
29 28 28 29 28 28 28 28 28 27 26 25 25 24 23 23 24 23 25 26 26 24 25 25 24 18 20 17 22 21 20 18 18 17 16 15 14 13 12 12 12 12 12 12
30 30 29 27 27 27 27 27 26 26 25 25 25 25 27 27 27 25 23 25 26 23 25 24 17 14 13 20 20 19 18 16 15 15 14 13 12 12 11 10 10 9 10 10
28 28 28 29 30 29 26 27 27 26 25 25 25 26 27 25 24 26 25 22 20 22 21 19 17 12 12 18 18 17 16 16 14 14 13 9 12 11 10 9 8 9 8 8
28 28 28 27 26 25 26 26 27 27 26 25 25 26 25 26 26 24 23 21 18 20 21 12 11 10 16 16 16 14 14 14 14 12 12 11 11 9 9 9 7 7 5 5
26 26 26 27 26 26 26 26 24 25 26 23 23 24 23 23 22 22 21 19 19 17 19 18 17 15 16 15 14 13 13 13 13 12 10 10 10 9 7 7 5 5 5 5
24 24 24 23 24 24 25 25 24 22 23 23 22 22 23 22 20 19 17 19 18 17 17 16 16 14 13 13 13 13 12 12 10 9 8 9 8 7 6 5 4 3 3 2

GFSNGP_sfc_temp_063.txt.gz
Temp
64 67 67 65 64 65 62 63 56 60 63 70 73 75 78 78 78 77 76 77 79 80 80 78 76 70 65 60 59 59 56 54 52 51 51 50 49 48 48 48 48 47 45 45
58 65 65 61 65 67 67 66 65 66 64 76 78 79 76 75 74 74 72 72 74 77 78 75 72 67 60 56 55 55 53 51 51 51 50 49 49 48 47 47 47 47 46 44
50 62 61 51 61 65 66 69 67 59 67 75 74 75 75 76 74 72 69 69 71 73 72 70 69 66 61 59 58 56 54 54 54 54 53 53 53 51 50 49 47 44 43 43
48 46 39 60 71 70 66 69 72 71 73 75 76 78 78 76 74 69 68 67 67 68 67 68 68 67 65 65 63 61 60 60 58 57 56 56 55 53 50 47 45 46 46 47
45 47 55 62 64 64 63 64 73 72 75 77 76 72 67 71 73 69 67 67 67 68 67 67 66 66 64 63 62 60 59 58 57 56 54 54 51 49 50 47 48 49 51 53
49 43 39 57 68 74 73 56 74 75 73 73 71 59 69 67 69 66 66 66 65 66 66 65 65 65 62 61 60 58 58 57 57 56 54 52 50 50 50 54 54 56 54 53
47 45 54 67 71 75 52 56 75 76 75 74 69 71 70 66 64 66 65 64 65 65 64 64 65 63 61 60 58 58 58 57 55 53 52 55 55 55 54 54 53 50 48 49
47 43 41 67 66 59 67 75 76 76 76 73 72 66 65 64 63 63 62 62 64 62 62 62 63 62 59 56 58 58 57 54 54 55 55 55 53 53 53 52 49 47 44 45
55 55 67 67 69 71 76 74 75 75 77 75 66 63 63 62 61 61 61 62 62 61 60 61 62 61 57 56 57 55 54 53 52 53 53 53 51 50 51 50 46 43 42 41
58 64 67 69 71 72 74 73 76 75 76 73 65 64 62 61 60 60 62 61 61 59 58 57 59 58 56 56 56 54 51 51 50 50 49 50 51 50 48 44 42 40 39 38
58 64 68 69 69 69 74 73 72 72 74 71 67 63 62 60 60 61 61 60 58 56 54 54 54 53 54 54 54 51 50 49 47 46 47 47 46 43 41 37 34 35 37 35
53 65 63 67 72 72 72 72 69 70 70 70 68 63 62 60 60 61 58 57 56 54 52 51 50 49 50 52 52 49 46 44 42 42 42 45 45 40 31 32 31 30 29 29
63 69 69 67 63 66 69 72 71 69 70 67 67 64 62 59 59 53 57 56 54 50 48 46 45 45 47 47 47 45 42 40 38 39 40 40 40 39 38 31 32 31 29 28
71 69 61 65 64 63 64 67 62 67 68 66 64 62 60 58 55 55 54 53 50 46 44 43 42 41 43 43 41 38 37 32 40 40 39 38 38 36 36 33 31 33 31 30
66 67 64 66 63 62 62 61 59 61 62 61 61 58 57 54 52 52 51 47 45 43 42 42 39 39 42 40 40 39 38 37 36 35 33 32 33 33 33 32 31 31 32 32
67 68 66 59 61 60 58 57 58 56 56 56 56 54 54 53 49 45 44 43 40 38 36 31 33 36 38 40 39 36 32 28 30 33 32 31 31 30 30 30 29 29 28 28
56 55 56 56 57 56 55 56 56 54 53 53 51 50 48 42 40 37 33 32 28 27 29 31 32 34 33 36 36 36 35 30 24 31 30 29 28 27 27 27 26 26 26 26
58 56 56 56 56 53 52 52 51 50 47 44 38 35 34 31 27 27 26 26 25 25 26 26 26 29 30 30 30 29 28 27 27 27 27 26 24 25 25 25 25 24 24 25
53 51 51 52 51 47 43 36 34 33 32 32 30 27 27 26 25 24 24 23 22 21 22 25 25 26 24 24 27 26 25 25 25 26 24 22 23 24 23 23 22 22 22 22
36 38 36 33 33 33 31 31 30 28 28 27 27 26 24 24 24 24 26 25 25 24 25 25 26 25 24 23 23 25 24 24 23 23 23 20 22 20 21 20 20 20 20 20
29 30 29 30 30 31 31 31 29 28 28 27 26 25 24 25 25 24 23 21 23 26 25 25 26 26 25 25 25 25 23 22 21 21 21 20 20 20 19 19 18 18 18 18
30 29 29 30 29 29 30 30 29 28 26 25 25 24 24 24 24 24 26 24 25 25 27 26 25 19 22 19 25 23 22 22 21 20 20 19 18 17 17 17 16 16 16 16
31 31 30 29 29 29 29 29 28 27 26 26 26 26 26 26 27 25 23 27 27 26 27 24 18 17 17 21 21 21 20 20 19 19 18 17 17 16 15 15 15 14 14 14
30 30 29 30 30 30 27 27 27 26 26 26 26 28 29 26 26 28 27 24 24 24 23 20 18 16 14 20 20 19 18 18 18 17 17 15 15 15 14 14 13 13 12 12
29 29 28 27 26 26 27 27 27 27 27 28 28 28 28 29 27 26 25 22 21 23 22 16 15 14 18 19 18 17 17 17 16 15 14 14 14 13 13 13 12 11 10 9
27 27 27 28 28 29 29 29 27 28 28 26 26 26 26 26 25 25 23 22 21 20 21 20 19 18 18 18 17 16 16 15 15 15 13 13 13 13 12 11 11 10 9 9
26 27 27 26 27 27 27 26 25 23 24 25 23 24 24 24 22 22 20 21 20 20 19 19 18 17 16 15 14 15 15 14 13 13 11 11 11 11 10 10 9 8 7 6

GFSNGP_sfc_temp_066.txt.gz
Temp
62 64 64 63 62 63 60 61 53 58 60 66 72 73 75 76 76 77 77 78 77 77 76 76 69 63 62 60 59 57 54 52 50 50 49 48 47 48 47 47 47 46 45 45
55 63 63 60 64 64 64 64 63 64 63 74 76 78 75 76 75 75 75 75 75 77 75 70 63 59 57 55 54 54 51 49 49 49 49 47 48 46 46 45 45 45 44 44
46 59 59 48 59 64 65 67 66 58 66 73 72 74 74 75 75 74 72 72 72 74 71 64 61 58 54 53 53 52 51 51 50 50 49 48 48 47 46 45 45 44 43 43
44 43 37 58 70 69 64 67 70 70 72 73 74 77 77 78 75 73 71 70 70 69 66 64 62 59 58 57 55 54 54 54 53 52 51 51 51 50 47 45 43 43 43 44
41 43 52 59 64 64 61 61 71 69 72 75 77 74 69 74 73 70 68 68 67 67 66 65 63 62 61 59 59 58 56 55 55 54 53 52 48 46 46 45 45 45 46 46
44 40 36 54 67 72 70 51 70 72 70 72 71 56 65 69 70 68 68 68 66 66 65 64 63 63 60 59 57 56 55 55 55 54 52 49 48 47 47 48 48 49 49 46
42 41 49 63 67 70 50 52 70 73 72 71 67 68 67 69 68 68 67 66 66 65 63 62 63 61 59 58 56 57 56 56 54 53 51 50 50 50 49 47 46 41 41 41
43 39 38 67 66 56 62 67 72 72 71 69 65 66 66 66 65 65 64 64 64 62 61 62 62 60 58 55 57 56 55 53 52 53 53 52 48 47 48 45 41 38 36 35
51 50 64 63 64 66 69 68 68 70 72 72 65 64 64 63 63 64 64 63 64 62 59 60 61 60 55 55 56 54 52 51 50 51 51 51 46 45 43 42 37 33 33 32
46 61 65 66 66 68 69 68 73 73 73 72 66 65 63 63 62 61 63 62 63 60 58 57 59 59 56 55 54 52 49 48 48 46 46 46 46 45 40 34 32 32 32 30
51 59 60 64 65 66 67 69 71 72 70 70 67 64 63 62 61 62 62 62 61 58 56 56 57 54 55 54 53 50 48 47 44 43 43 42 38 37 31 30 30 29 29 29
51 62 60 62 64 66 65 67 70 69 67 69 68 65 64 62 62 61 60 60 58 57 54 54 52 51 52 53 51 47 44 42 37 36 36 40 36 34 33 31 31 31 30 27
61 66 65 67 67 66 63 65 69 67 68 67 68 67 64 61 61 55 60 57 55 52 51 49 47 47 49 48 46 43 37 37 35 35 34 34 33 32 27 29 32 31 30 29
69 66 63 66 62 63 63 65 64 68 67 64 66 65 61 59 58 58 55 55 53 48 46 45 43 41 42 41 38 35 35 34 36 34 34 33 32 31 30 28 26 26 29 29
65 66 65 65 66 63 63 63 60 61 62 61 62 59 59 57 55 54 51 48 46 44 42 42 39 39 40 39 38 36 35 34 32 31 28 28 30 29 29 28 27 27 27 28
62 65 63 62 61 61 60 58 56 56 57 57 57 55 55 54 47 43 43 42 39 34 33 29 32 34 36 36 33 31 29 28 29 30 28 28 28 27 28 27 26 25 24 24
55 54 55 56 57 57 56 56 57 55 54 53 48 44 39 32 30 29 29 30 29 28 29 28 29 32 31 32 32 30 27 24 23 29 28 26 25 25 25 24 23 23 22 18
55 56 55 55 54 52 44 39 38 38 36 34 31 29 27 25 24 24 24 25 24 23 24 24 24 24 23 24 25 25 25 26 26 24 25 24 22 23 23 22 22 21 20 21
44 43 43 42 41 38 36 33 32 31 30 28 26 24 24 24 24 23 24 22 21 20 21 23 23 22 22 23 25 24 23 23 24 24 23 21 20 22 21 20 20 18 18 18
32 33 33 32 32 30 28 28 28 27 27 26 25 24 23 23 24 24 24 22 22 22 23 23 23 22 22 22 23 24 22 21 21 21 21 19 19 19 18 18 17 16 16 15
29 29 29 29 28 29 29 28 28 26 27 26 25 24 23 23 23 23 21 19 22 23 23 24 25 24 23 23 24 23 22 21 20 20 19 19 17 18 17 16 16 15 14 14
30 29 28 29 28 27 28 28 27 25 25 25 24 24 23 23 23 23 23 21 22 23 25 23 21 18 20 17 23 22 21 21 19 19 18 18 16 15 14 14 14 14 13 11
29 29 28 28 27 27 28 27 27 27 26 25 25 25 25 25 25 22 20 24 26 26 23 19 17 17 15 18 20 20 19 18 18 17 17 16 15 14 13 13 12 12 11 10
29 29 28 28 29 28 25 25 26 26 25 25 25 26 26 23 23 25 25 23 22 20 19 18 16 15 12 18 19 18 17 16 16 16 15 14 14 14 13 12 11 10 10 8
28 28 27 27 26 25 26 27 26 26 26 26 26 26 26 26 23 23 22 21 20 21 17 14 14 14 17 18 17 15 15 15 14 13 12 12 11 11 11 11 9 9 7 5
25 25 25 26 26 27 27 27 25 26 26 23 23 24 24 24 23 22 21 20 19 19 19 18 16 15 16 15 13 13 14 14 13 12 11 10 9 9 9 9 8 7 6 5
24 24 24 23 24 24 24 23 21 20 22 23 21 22 22 22 21 21 19 19 18 18 17 17 16 15 14 13 13 13 12 12 11 9 9 8 8 7 7 6 5 5 4 3

GFSNGP_sfc_temp_072.txt.gz
Temp
49 52 53 51 52 54 52 49 44 49 50 56 58 59 62 63 63 62 63 63 63 60 55 54 55 55 55 54 53 55 53 52 50 50 50 49 49 49 49 48 48 48 46 45
42 51 52 48 52 55 54 53 52 52 50 60 63 60 61 64 64 62 63 62 63 61 56 53 54 53 53 52 51 52 51 49 49 48 48 48 47 46 46 45 45 45 44 44
35 48 47 38 46 50 52 54 54 47 54 62 62 61 60 61 62 62 61 60 59 60 58 53 53 52 51 51 52 51 49 49 49 48 47 46 46 45 44 44 44 43 43 43
32 39 29 44 57 56 52 56 58 58 59 59 61 62 61 62 61 61 61 60 59 57 53 51 52 52 51 52 51 50 49 49 48 48 46 46 46 45 44 43 42 42 42 43
33 34 40 47 54 54 53 52 60 58 61 62 60 57 54 60 61 64 58 56 55 54 51 50 49 51 51 50 51 50 49 48 48 48 46 46 44 43 42 41 42 43 44 44
31 31 27 43 57 62 60 43 60 61 59 59 56 46 52 58 59 57 56 55 53 52 52 51 50 51 49 49 49 49 49 49 49 49 47 45 43 42 40 41 43 45 42 40
29 29 36 50 58 61 44 43 59 62 60 58 53 55 58 57 57 57 56 54 54 53 51 50 51 51 49 49 48 51 51 50 49 47 44 42 42 41 40 39 38 34 33 34
32 28 30 54 56 49 51 56 58 59 60 59 58 55 55 56 54 54 53 53 53 51 49 50 51 50 47 46 49 50 48 46 45 44 45 43 41 39 39 37 33 31 30 27
39 38 50 51 53 54 55 54 57 57 59 59 55 54 54 54 54 54 53 51 52 50 48 49 50 50 46 46 47 46 45 44 43 43 42 41 38 36 35 34 32 30 29 26
43 47 50 52 55 55 55 55 58 58 60 56 55 53 53 52 51 50 50 51 51 51 49 46 48 49 47 46 46 44 42 42 40 37 35 35 35 34 32 28 28 30 28 26
43 47 51 51 54 56 56 56 57 59 58 58 55 54 51 51 53 52 49 50 51 49 47 45 46 45 46 45 45 42 41 39 35 33 32 31 29 29 28 28 29 29 27 27
38 52 50 52 54 56 55 57 58 57 58 56 56 54 51 49 49 51 48 49 46 45 43 40 41 42 44 45 44 40 36 34 32 31 30 31 30 29 32 32 32 32 30 27
50 54 53 56 57 57 56 58 58 55 57 56 56 53 51 50 48 45 47 45 40 38 37 36 36 36 39 39 38 36 33 33 32 32 31 30 29 28 26 29 31 31 31 29
51 53 50 52 52 55 56 55 55 54 51 50 50 50 49 46 44 42 39 38 38 36 35 34 33 33 35 35 33 31 30 30 29 28 28 28 27 27 27 26 25 26 29 29
45 50 53 53 53 53 53 53 49 45 42 40 43 43 42 39 37 36 36 35 34 33 32 32 31 29 32 32 31 30 29 27 27 27 26 26 26 26 26 26 25 25 26 26
44 48 49 49 48 48 49 46 41 36 35 34 32 31 31 31 30 29 30 31 28 25 27 27 27 28 29 29 28 27 27 27 27 26 26 25 25 24 24 23 23 22 22 21
38 38 40 40 39 38 37 37 35 33 31 29 29 29 29 27 27 26 25 25 24 24 24 24 24 26 26 26 24 24 25 25 24 24 24 23 22 21 22 21 20 20 18 18
37 36 35 36 35 32 30 30 30 29 28 28 27 26 25 24 23 22 22 22 21 20 21 22 23 23 24 24 24 23 23 23 22 22 21 20 19 20 20 19 19 18 17 18
34 32 32 31 31 29 28 27 27 27 26 26 25 23 23 22 21 21 21 19 18 17 18 21 23 22 22 23 22 22 21 20 20 20 20 19 18 18 17 16 16 14 14 14
28 28 28 27 28 27 25 25 25 24 24 23 22 21 19 20 20 19 19 18 19 20 21 21 21 20 21 21 22 21 20 19 19 18 17 17 15 13 13 14 13 11 8 10
24 24 24 24 23 24 24 24 23 22 22 22 21 20 19 20 20 20 18 17 18 20 19 20 20 19 20 22 21 19 17 16 15 13 12 11 9 9 7 6 6 6 6 5
24 24 24 24 23 23 24 24 24 23 22 21 21 20 19 19 19 19 20 18 19 18 18 17 17 15 17 18 17 15 14 13 12 11 10 10 9 7 6 4 4 2 -0 -2
24 24 24 23 22 22 23 23 22 22 20 20 20 20 19 20 20 17 15 18 18 16 16 14 14 14 13 12 11 9 7 6 3 2 2 0 0 -3 -1 1 2 2 -1 -0
24 24 24 25 24 23 20 22 22 22 21 21 20 20 19 16 16 18 17 14 13 13 13 12 12 11 9 7 6 5 4 3 -0 -7 -5 -6 -10 -11 -8 -9 -1 -1 -1 -4
22 22 23 23 22 21 22 22 21 21 20 20 20 20 20 19 15 16 16 15 15 12 11 10 9 7 5 3 0 -3 -5 -7 -8 -9 -11 -14 -15 -16 -14 -10 -9 -8 -11 -14
20 19 19 20 20 20 21 21 18 19 18 16 15 15 16 16 16 15 13 11 10 9 9 7 5 2 -2 -2 -6 -10 -10 -1 -3 -6 -14 -15 -16 -14 -14 -14 -16 -18 -19 -16
18 18 18 17 17 18 17 17 15 13 13 11 9 11 13 12 10 9 6 5 4 2 -2 -7 -5 -4 -5 -10 -8 -10 -11 -11 -10 -12 -18 -19 -15 -17 -19 -20 -21 -20 -20 -18

GFSNGP_sfc_temp_075.txt.gz
Temp
48 52 51 49 49 50 46 49 44 47 48 54 57 58 59 59 59 59 59 58 59 60 58 56 57 58 61 60 60 61 61 60 58 54 54 54 55 57 54 53 53 51 49 47
43 49 52 48 50 48 47 49 49 49 48 56 61 58 56 60 61 61 60 61 59 58 55 54 54 52 52 53 53 55 53 53 51 51 50 49 49 48 47 47 47 47 45 45
35 45 45 35 43 50 48 49 48 43 50 58 56 59 58 59 59 61 61 61 58 59 57 54 52 54 54 52 53 52 52 50 50 49 48 47 47 46 45 46 46 44 43 44
33 38 27 42 53 54 50 52 55 54 56 58 59 63 60 60 61 59 60 60 60 60 54 52 52 54 52 52 52 51 50 50 50 49 47 47 46 45 44 44 43 43 43 43
31 32 39 43 49 50 47 47 55 54 57 58 59 56 56 59 58 60 60 60 56 54 52 54 54 52 52 51 51 50 49 49 49 48 46 46 44 43 43 42 42 43 43 43
32 29 24 40 54 59 55 38 56 57 55 54 54 45 52 58 57 57 57 53 51 50 52 52 52 52 51 50 50 49 49 48 48 48 46 44 43 42 43 44 43 43 40 39
32 31 36 48 54 58 39 39 56 58 60 57 51 54 58 54 54 55 53 53 51 50 49 50 51 52 50 50 49 50 50 49 48 47 45 44 43 42 43 42 39 35 32 33
31 29 30 52 51 46 49 53 56 54 57 56 54 55 57 56 54 54 51 50 50 49 48 49 49 49 47 48 50 50 49 46 45 44 44 43 42 40 39 37 34 32 30 29
40 36 50 51 52 53 54 54 54 53 54 55 54 54 52 53 52 51 50 49 49 49 47 48 49 49 45 45 48 47 45 43 42 42 41 39 39 36 34 34 31 30 29 27
41 48 49 52 52 53 54 55 56 55 55 55 55 55 51 50 49 48 49 48 49 48 46 44 47 47 46 45 45 44 41 39 39 37 35 35 35 35 34 32 31 30 27 25
43 47 50 51 52 54 54 56 56 57 56 55 55 54 51 50 49 49 48 47 48 47 44 43 45 45 45 45 44 40 38 37 35 33 32 31 31 32 31 30 32 30 29 28
40 49 49 50 54 55 53 55 57 55 56 57 56 53 49 48 47 47 46 46 43 41 41 41 42 41 42 43 42 38 35 34 32 32 31 32 30 29 32 32 32 32 30 27
42 47 50 52 54 54 54 54 55 53 53 55 55 52 49 46 43 40 40 40 37 36 36 35 34 34 36 38 37 35 32 32 31 31 31 29 29 28 25 28 31 31 30 29
45 43 49 49 50 52 53 51 49 46 45 46 47 47 44 40 38 36 35 35 34 32 31 31 31 30 33 34 32 31 30 30 29 29 29 28 27 27 28 27 25 25 28 29
40 41 44 48 49 48 49 48 42 39 37 37 38 38 36 33 31 31 32 32 31 29 29 30 29 29 32 32 31 30 29 27 27 27 26 26 26 26 26 25 24 25 25 25
38 42 43 41 40 40 42 41 36 33 32 30 29 29 29 28 27 27 28 29 27 25 26 25 26 27 29 29 27 27 27 26 26 25 24 23 23 23 23 23 22 22 22 21
34 34 33 36 32 32 32 33 32 31 29 28 28 28 27 26 25 24 23 24 23 23 24 24 23 25 25 25 25 24 24 24 24 23 22 22 21 21 21 20 20 19 18 18
35 34 33 32 31 29 28 28 28 28 27 27 26 24 22 22 21 21 21 21 21 20 21 22 23 23 23 23 23 23 22 22 22 20 20 18 20 19 17 18 17 17 16 16
30 30 30 30 29 28 27 26 25 25 24 23 22 20 20 20 20 19 19 18 17 16 18 21 23 22 21 22 22 21 20 20 20 19 19 17 16 16 15 14 13 11 11 12
26 26 27 26 27 26 23 24 24 22 23 22 21 19 18 18 18 18 18 16 17 17 19 20 20 20 21 21 21 20 18 17 17 16 14 13 11 10 9 10 10 7 5 7
23 23 23 23 22 23 23 23 22 20 21 21 19 18 18 19 18 18 16 13 15 17 18 19 19 19 19 19 18 15 14 13 11 10 8 6 5 5 3 2 2 -1 -2 -4
23 22 22 22 22 21 22 22 22 21 20 20 19 19 18 16 15 15 15 14 16 17 17 16 16 14 14 14 13 11 11 9 7 6 3 3 -2 -5 -7 -9 -8 -7 -7 -7
23 22 22 21 21 21 22 21 20 19 18 18 17 17 18 18 17 13 11 16 17 15 15 13 12 10 9 8 7 5 4 2 -0 -4 -8 -11 -13 -15 -14 -13 -12 -11 -12 -9
23 23 22 22 22 21 19 20 20 20 18 18 17 18 16 13 13 16 15 13 12 11 10 9 7 6 5 2 0 -2 -5 -8 -10 -13 -11 -14 -20 -19 -18 -18 -14 -15 -16 -15
21 21 22 21 20 19 19 19 19 18 18 17 17 18 17 18 14 14 13 12 12 9 7 5 4 1 -2 -5 -8 -8 -9 -11 -15 -17 -18 -20 -20 -20 -20 -19 -20 -20 -21 -21
18 18 18 18 19 19 19 18 15 16 15 12 13 12 12 12 11 10 8 7 7 5 2 -1 -3 -4 -7 -9 -12 -13 -12 -9 -15 -16 -20 -20 -19 -18 -20 -19 -22 -21 -22 -20
17 17 16 16 16 16 15 14 11 9 10 9 9 10 9 7 6 5 2 -0 -3 -5 -7 -9 -10 -9 -12 -17 -15 -16 -16 -16 -17 -17 -23 -22 -20 -22 -24 -24 -25 -25 -24 -24

GFSNGP_sfc_temp_078.txt.gz
Temp
43 46 49 47 46 48 45 43 40 43 44 54 55 57 60 58 57 57 57 57 56 56 56 58 57 57 59 59 59 59 59 59 59 60 60 58 55 55 55 55 57 56 52 50
38 44 46 44 47 46 45 45 44 44 45 57 57 58 56 59 59 58 58 58 57 57 56 55 55 54 54 55 56 58 58 57 59 56 55 54 53 52 52 51 50 50 49 48
32 42 43 34 43 45 46 47 46 39 46 55 55 55 56 59 58 59 58 60 61 60 60 59 53 52 51 52 51 55 56 55 53 52 51 50 49 48 47 46 46 45 45 45
30 33 25 41 51 53 50 51 51 50 52 56 58 59 57 59 59 57 60 60 59 60 57 51 51 50 52 53 52 52 52 51 50 50 48 47 47 46 44 44 44 43 43 43
30 29 35 41 47 48 44 44 51 51 54 57 58 53 54 58 59 62 61 63 60 59 50 51 52 52 52 52 51 51 50 49 49 49 47 46 45 43 43 43 43 43 43 43
32 29 26 39 49 54 52 36 53 53 51 52 52 43 50 56 56 58 56 54 50 50 51 51 51 52 51 50 50 49 49 48 48 48 47 44 43 42 43 43 42 40 38 39
32 29 35 46 51 53 36 39 53 55 54 51 49 52 57 55 56 53 52 49 49 51 51 50 52 52 50 50 48 49 49 48 47 46 44 44 43 43 43 39 36 34 32 33
33 30 29 50 51 43 46 50 52 53 54 53 53 52 54 53 54 51 49 49 49 49 50 52 53 52 49 48 49 49 47 45 44 44 44 43 41 39 38 36 33 31 30 29
36 35 46 49 50 52 53 51 53 53 54 55 53 54 53 52 50 49 48 50 49 48 48 48 50 51 47 47 47 46 44 42 41 41 41 41 39 36 35 34 32 31 30 28
39 44 46 49 51 54 53 53 56 56 55 54 54 52 51 48 48 47 48 47 48 48 46 45 46 45 44 45 46 43 41 39 39 37 36 36 36 36 35 33 31 31 30 28
38 44 46 49 51 53 55 53 53 55 55 56 54 52 51 48 46 47 46 46 46 45 44 43 44 43 43 42 43 41 39 38 35 35 34 32 31 32 31 31 33 31 29 27
32 41 39 43 51 54 51 52 54 54 54 55 52 48 47 45 45 44 43 43 41 41 39 38 38 39 40 41 40 36 33 31 31 31 31 31 29 28 31 30 31 30 30 28
39 42 42 44 45 50 51 51 49 46 46 45 47 46 44 39 39 37 36 36 35 33 33 33 33 33 35 36 35 33 31 30 30 29 29 28 28 27 25 28 31 31 31 30
41 40 40 41 40 45 47 46 44 41 40 40 39 39 37 35 34 33 31 32 32 32 31 31 31 30 33 33 32 31 30 30 30 30 29 28 27 27 27 26 24 25 28 28
38 40 41 41 41 40 42 41 35 33 33 32 33 32 31 29 28 28 30 30 30 29 29 30 29 29 32 32 31 30 29 27 27 26 26 26 26 25 25 24 24 24 25 24
35 39 37 35 34 35 37 36 32 31 29 29 27 27 27 26 25 25 27 28 26 24 25 25 25 27 28 28 27 26 25 25 25 24 23 23 23 22 22 21 21 20 19 19
33 33 32 33 30 28 28 30 30 28 28 27 26 26 26 25 23 23 22 23 22 22 23 23 22 24 25 25 24 23 23 22 22 22 21 21 20 20 20 19 18 17 16 16
33 33 32 32 30 28 27 27 26 26 24 24 23 22 20 20 19 19 20 20 20 20 21 21 22 22 22 23 23 22 21 21 20 19 19 18 17 17 16 15 15 14 13 12
28 28 28 28 29 28 26 25 24 24 22 21 19 18 19 19 18 18 18 17 16 16 18 21 22 21 21 21 21 20 19 18 18 17 17 14 13 12 11 9 7 4 5 6
25 25 25 24 25 25 23 23 22 21 21 20 19 17 16 15 15 15 15 14 16 17 19 19 19 18 18 19 19 18 16 15 14 11 10 9 6 2 2 4 3 -1 -5 -2
22 22 22 21 20 21 21 21 21 19 19 19 17 16 15 16 16 16 14 13 15 17 17 17 17 17 17 17 16 13 12 9 8 6 4 -1 -3 -4 -6 -9 -8 -10 -9 -9
21 21 20 20 20 19 20 20 20 19 18 16 16 15 14 13 13 14 15 14 15 15 15 14 13 12 12 13 11 8 8 6 4 2 -2 -5 -8 -10 -14 -13 -13 -13 -14 -15
21 21 20 19 18 18 19 19 18 17 16 16 16 16 15 15 15 12 10 14 15 13 12 10 9 8 7 6 4 2 -0 -2 -3 -5 -8 -13 -15 -18 -17 -17 -18 -19 -19 -16
21 21 20 21 20 19 17 18 18 17 16 16 15 15 14 11 12 14 13 10 9 8 7 6 4 3 2 1 -1 -2 -4 -8 -12 -16 -13 -18 -23 -22 -21 -22 -19 -21 -21 -20
20 20 20 19 18 17 17 17 17 16 15 15 15 16 16 16 11 10 10 8 8 6 3 1 1 -1 -5 -9 -10 -11 -15 -17 -20 -20 -22 -22 -23 -24 -24 -24 -24 -24 -24 -24
17 16 16 17 16 16 16 16 14 14 13 10 9 9 9 9 9 8 6 5 4 1 -1 -6 -10 -14 -15 -13 -16 -18 -17 -13 -18 -20 -23 -22 -23 -20 -24 -23 -25 -23 -24 -25
16 16 15 14 14 13 13 13 11 9 10 8 6 7 6 5 4 2 -1 -3 -6 -8 -16 -17 -17 -13 -15 -19 -17 -19 -18 -19 -21 -20 -25 -25 -25 -27 -28 -28 -27 -27 -26 -26

GFSNGP_sfc_temp_081.txt.gz
Temp
40 43 44 45 48 52 49 50 45 49 51 57 60 63 65 63 65 66 66 64 63 65 65 65 64 63 64 64 63 63 63 63 62 63 63 65 65 63 64 63 64 64 63 62
36 43 44 41 48 50 51 51 50 50 50 61 64 65 63 64 62 66 66 65 65 65 64 63 63 64 63 63 63 63 63 62 64 64 65 64 63 61 59 59 61 61 59 57
33 39 37 36 45 49 52 53 53 47 55 62 60 59 62 63 61 63 65 66 65 66 65 65 65 63 63 63 63 62 62 63 63 63 63 63 61 56 56 55 52 50 48 48
31 33 27 46 53 55 52 55 56 55 57 61 62 63 62 65 64 63 63 65 66 66 66 65 63 63 62 63 62 62 62 62 62 60 57 52 52 51 48 47 46 45 45 44
30 30 33 43 49 50 49 50 57 56 58 60 63 60 63 64 63 62 64 65 67 68 65 60 59 58 59 58 59 59 57 54 53 53 51 50 48 46 45 44 44 43 44 43
33 29 27 40 50 57 56 43 55 56 55 56 58 51 56 59 61 61 62 62 63 63 59 59 57 58 57 54 53 52 51 51 52 51 49 47 45 44 44 43 41 40 38 38
32 31 38 48 52 55 41 45 55 57 58 56 54 59 60 57 58 58 57 56 54 56 56 57 57 57 54 53 50 50 50 49 48 47 46 45 44 43 41 38 35 34 32 33
34 31 30 51 52 45 51 53 55 57 57 56 56 55 57 55 54 53 52 51 53 53 52 54 56 55 52 49 49 49 48 46 45 44 44 43 41 39 38 36 33 31 30 30
39 39 49 51 53 55 55 53 58 56 58 59 56 55 57 54 51 49 49 50 51 50 50 52 53 53 47 47 47 45 44 42 41 41 41 41 38 36 35 35 33 32 30 28
42 47 46 50 54 55 56 55 57 57 58 58 54 55 54 52 48 48 49 48 48 47 45 44 47 48 47 46 46 44 41 40 39 38 36 37 37 37 35 34 32 32 30 28
41 46 48 52 52 51 51 51 54 58 58 56 56 54 52 49 47 47 46 47 47 45 43 42 43 43 45 45 46 42 40 38 36 35 34 31 31 32 32 32 34 31 29 28
39 43 42 44 49 48 46 48 52 55 55 51 53 48 47 44 44 43 42 42 40 39 38 38 39 40 41 43 42 38 35 35 34 33 32 32 31 29 31 31 31 31 30 31
39 42 41 44 46 45 45 44 43 43 45 44 44 43 41 38 37 36 37 37 34 32 33 34 34 33 34 36 36 35 32 31 31 31 31 30 30 29 26 29 31 31 31 30
40 39 41 43 39 42 44 42 40 39 38 38 37 37 36 34 33 31 31 32 33 32 32 31 30 30 32 32 32 31 30 30 30 30 29 29 29 29 31 30 27 27 29 29
37 38 39 40 40 39 41 41 36 34 33 32 33 32 32 30 29 28 30 30 30 29 29 29 28 28 31 31 30 29 28 27 27 27 27 28 29 29 29 29 28 26 26 25
35 38 38 36 34 34 35 35 32 30 30 30 29 28 28 28 26 25 26 28 26 23 24 23 25 26 28 27 26 25 25 25 26 26 26 26 26 26 26 25 24 23 22 22
30 31 31 31 30 29 29 30 30 29 29 28 27 27 27 25 24 22 22 23 22 21 22 22 22 24 25 25 24 24 24 24 24 25 24 24 24 23 23 23 21 20 18 17
30 31 31 30 29 29 28 28 28 27 25 25 24 22 21 21 20 20 20 21 21 20 21 21 22 23 23 24 24 23 23 23 23 21 21 21 20 21 20 20 19 18 17 15
27 27 28 28 28 27 26 25 24 24 22 21 20 18 18 18 18 18 19 18 17 16 17 20 22 21 21 22 22 22 21 20 20 19 18 17 17 17 16 15 14 14 14 14
25 25 24 23 24 23 21 21 21 20 19 18 17 16 15 16 16 16 16 14 16 17 19 18 19 18 18 18 19 19 18 17 16 14 14 13 12 11 11 10 11 10 10 9
21 22 21 20 20 20 20 20 18 17 17 17 16 14 15 16 17 16 15 13 15 16 16 16 17 17 17 17 17 15 14 12 11 11 10 9 8 8 7 7 7 7 7 7
21 20 19 19 19 18 19 19 18 17 16 16 15 15 14 13 13 12 13 13 14 14 15 14 13 12 13 14 13 12 11 10 9 8 7 7 7 5 5 5 4 4 4 4
20 20 19 18 17 17 18 17 16 16 14 14 14 14 14 15 15 12 9 13 14 13 13 11 9 8 8 9 9 8 7 6 6 5 5 4 4 3 3 3 3 2 2 1
20 20 19 20 19 18 16 17 17 16 15 15 14 14 14 11 11 13 12 10 8 9 9 8 7 6 7 7 6 5 5 4 3 3 2 -1 1 2 2 0 0 0 -1 -3
19 19 19 18 17 16 16 16 15 14 13 12 13 13 14 14 11 10 10 9 9 8 7 3 4 4 5 5 4 3 3 3 2 2 2 1 0 -0 0 -1 -3 -3 -3 -4
16 16 16 16 16 16 16 16 13 13 12 9 9 9 9 10 10 9 7 6 6 4 4 3 3 4 3 2 2 2 2 2 2 1 -1 -0 -0 -0 -3 -4 -5 -5 -5 -5
16 16 15 14 14 13 14 14 12 11 11 9 7 8 8 7 6 5 3 3 2 1 1 1 2 1 2 2 2 1 1 0 -4 0 -1 -1 -2 -3 -5 -6 -6 -6 -7 -7

GFSNGP_sfc_temp_084.txt.gz
Temp
48 50 51 50 50 52 52 55 50 54 56 63 68 71 73 75 75 75 77 76 74 74 75 76 75 75 75 74 73 72 70 69 68 68 69 69 69 69 68 69 71 71 71 71
40 48 50 47 51 53 54 55 58 59 57 69 72 74 73 74 74 73 74 75 76 75 76 75 74 75 74 73 72 72 71 70 71 70 70 70 70 70 69 68 69 69 68 68
35 47 45 41 49 51 56 59 58 52 61 69 67 69 71 73 74 73 74 72 72 75 76 76 75 74 74 74 74 71 71 71 71 71 71 71 71 71 70 67 66 65 66 66
35 38 29 47 50 53 55 60 63 63 65 69 70 73 74 73 71 70 69 71 70 73 75 77 78 76 76 76 73 71 71 71 71 71 70 71 71 71 67 63 59 53 48 47
32 36 43 41 44 45 49 55 65 64 67 69 71 71 69 70 69 69 69 69 72 73 74 76 78 79 75 75 73 71 70 71 71 70 69 67 62 58 54 49 47 45 45 43
37 32 31 44 50 53 56 45 61 63 62 63 66 57 65 66 68 69 69 68 63 63 68 70 69 71 73 73 72 70 70 70 66 62 59 57 51 47 45 44 41 40 38 38
35 31 42 53 55 57 36 39 55 59 63 63 61 63 66 65 66 66 64 63 61 61 63 67 67 68 68 68 66 64 61 59 57 55 51 47 45 43 41 38 36 34 33 33
35 32 32 56 56 45 46 56 59 57 62 61 64 66 67 63 62 61 58 55 59 58 57 60 64 65 61 55 54 53 51 48 46 46 45 43 41 39 38 36 33 32 31 30
43 44 54 55 53 57 58 55 56 59 63 64 64 66 66 61 58 54 51 51 54 52 51 53 57 57 49 47 48 46 45 43 42 42 42 41 39 37 35 35 33 31 30 28
46 51 52 53 56 53 56 55 59 60 62 64 63 66 63 58 55 54 50 48 49 47 45 44 47 47 46 46 46 43 41 40 40 38 38 39 38 38 36 34 33 31 30 28
49 54 54 59 55 52 52 54 55 59 63 63 64 63 60 55 51 49 48 46 45 43 42 41 43 44 45 44 43 40 38 37 35 34 34 32 32 33 32 33 34 31 29 29
46 44 45 51 53 52 49 49 50 52 58 57 59 56 53 47 46 44 42 41 38 38 37 38 39 41 43 44 43 40 37 35 34 33 33 33 32 30 32 31 32 32 32 32
43 44 47 50 52 50 48 48 47 48 49 49 49 50 47 41 38 36 37 35 34 33 34 34 33 33 34 38 40 37 35 33 33 33 31 30 30 28 26 28 30 30 31 32
42 43 46 46 41 45 47 49 46 45 45 44 44 43 40 35 34 32 31 32 32 32 30 31 30 30 32 32 33 32 31 31 30 30 30 30 30 30 30 29 27 27 28 29
39 41 40 41 41 41 46 46 44 41 40 39 39 36 36 33 31 30 30 30 30 29 29 29 28 27 29 30 29 29 28 28 28 29 30 30 31 31 31 30 28 27 27 27
37 39 37 36 35 34 37 40 39 36 36 35 33 32 30 29 28 27 27 28 26 24 25 24 25 26 28 28 27 26 27 28 28 29 29 30 31 30 29 28 26 26 25 25
32 34 34 33 32 31 30 33 35 34 33 32 30 29 27 26 24 23 23 23 23 22 23 23 23 25 27 27 26 25 25 26 26 28 29 28 27 26 25 25 24 22 20 20
32 33 33 32 31 30 29 29 29 29 27 27 26 24 23 22 21 21 21 21 20 19 21 23 24 25 26 27 27 27 26 25 25 24 25 25 26 26 25 25 24 22 21 19
30 29 29 30 30 29 28 26 24 23 22 21 20 19 19 19 20 20 20 20 19 19 19 22 23 23 23 25 26 26 25 24 24 24 24 23 23 23 22 21 21 20 20 19
27 27 26 25 26 25 22 22 22 19 19 19 19 18 17 17 18 17 18 16 18 20 21 21 21 21 21 23 24 25 23 22 21 20 20 20 19 18 16 16 17 17 17 16
23 23 22 21 20 20 20 20 19 17 18 18 17 16 16 17 19 20 19 18 17 18 19 20 22 22 23 23 23 21 20 18 17 17 17 16 16 16 15 15 14 14 14 14
22 21 20 21 20 19 20 20 19 18 18 17 17 17 16 15 15 14 15 16 17 17 19 18 17 16 19 18 19 18 17 17 16 15 15 15 14 13 12 12 12 12 13 12
22 21 20 19 18 18 19 18 17 17 15 15 14 15 15 16 17 16 12 17 18 16 17 15 13 13 14 16 15 14 14 13 13 13 13 12 12 11 11 10 11 11 10 9
21 21 20 21 21 19 17 18 18 17 16 16 15 16 16 14 14 16 15 12 12 13 12 12 11 12 13 14 13 12 12 12 12 11 10 9 11 10 10 8 8 9 8 7
21 21 21 19 18 17 17 17 17 17 16 16 16 17 17 18 15 14 13 12 12 12 11 8 9 10 12 11 11 10 10 10 11 11 10 9 9 8 9 8 6 6 5 6
20 19 19 19 20 20 20 19 17 17 17 15 14 14 14 14 14 13 11 10 11 11 11 11 10 11 11 10 10 9 10 10 10 8 8 8 8 8 6 5 5 5 5 5
21 20 20 18 18 19 20 20 18 16 16 14 12 13 13 12 11 11 10 11 10 10 10 10 10 9 9 10 9 9 10 10 3 8 8 7 6 6 4 4 4 4 3 2

GFSNGP_sfc_temp_087.txt.gz
Temp
51 53 53 53 53 55 53 54 49 54 58 65 69 72 74 78 79 78 79 80 80 80 81 81 80 79 78 77 76 76 75 74 72 73 73 73 72 72 70 68 70 72 72 72
45 52 52 49 54 56 57 56 57 58 58 71 74 76 75 76 77 77 78 80 80 81 81 80 80 78 79 78 76 76 75 74 74 73 73 73 72 72 71 71 72 72 72 72
36 49 48 42 52 55 56 58 57 53 61 70 70 71 72 73 75 76 77 78 79 79 81 82 81 80 79 78 79 76 74 74 74 73 72 72 72 72 71 70 70 69 70 71
36 41 29 51 58 54 51 53 59 61 67 70 71 74 77 78 76 74 76 76 77 78 79 81 83 83 80 81 79 76 75 75 75 74 73 73 72 72 72 71 67 65 62 59
33 36 44 50 56 51 48 46 59 62 69 71 74 74 73 78 75 72 73 74 74 74 76 78 79 83 82 80 78 77 75 75 76 75 74 74 73 72 72 65 53 50 48 44
38 33 32 47 56 57 56 43 51 56 63 65 67 56 60 71 71 71 73 72 70 71 71 74 77 78 80 77 78 75 75 76 77 75 74 72 71 58 54 50 43 40 38 38
36 35 42 53 58 58 39 38 50 51 59 54 62 65 67 71 71 72 69 68 69 69 68 68 74 73 74 76 76 77 76 75 74 73 69 56 50 47 43 39 37 36 34 34
38 35 32 58 56 44 46 51 51 50 52 54 53 68 70 69 68 66 66 65 64 60 58 62 66 68 67 63 58 58 54 51 48 47 46 45 42 40 38 38 34 32 31 30
45 45 50 58 54 55 55 53 56 56 59 59 60 66 69 67 65 62 59 59 57 53 50 50 56 56 49 48 49 47 44 43 42 41 41 41 39 38 36 34 32 31 30 28
41 46 48 55 55 56 57 53 56 59 64 64 64 68 69 65 62 57 52 51 49 46 43 43 45 46 46 45 44 41 38 38 37 36 36 38 38 36 35 33 32 31 29 27
51 49 53 51 54 53 55 56 54 56 61 60 63 63 63 59 54 50 45 44 44 42 39 39 42 42 42 42 41 37 36 35 33 33 33 31 31 32 31 31 32 30 29 29
42 48 48 52 54 52 52 53 52 52 54 56 57 56 53 45 42 40 39 40 38 36 36 35 35 36 40 40 39 36 34 33 33 32 31 31 30 29 31 31 31 31 30 29
42 48 50 50 54 51 49 52 52 51 51 50 51 49 44 37 35 34 34 34 32 32 32 31 32 32 33 33 36 34 32 32 32 32 31 29 29 28 25 28 30 30 30 30
45 47 48 45 42 46 46 51 52 52 49 48 48 45 39 35 33 31 29 31 32 31 29 29 29 28 31 32 32 31 31 31 30 30 29 29 29 28 28 27 25 24 27 27
42 45 42 43 45 43 43 44 47 45 44 42 40 36 36 33 31 29 30 30 29 28 28 27 27 27 30 31 30 30 30 30 30 31 31 31 31 29 27 26 25 24 24 25
40 43 43 41 41 40 40 39 38 38 38 36 34 31 30 29 28 27 27 27 25 24 25 25 25 27 29 29 29 29 29 29 30 30 29 29 30 28 27 26 25 23 22 24
34 36 37 38 38 37 34 34 34 33 33 31 29 29 27 26 24 23 23 23 24 23 24 25 25 27 28 28 28 28 29 28 28 28 28 29 28 27 26 24 22 21 20 22
33 34 35 35 34 35 33 31 29 28 26 25 25 23 22 21 20 21 21 22 22 22 24 25 27 27 28 29 29 29 28 27 27 26 26 26 26 27 26 25 24 23 21 21
31 29 29 30 32 32 31 28 26 25 23 22 20 18 18 19 20 20 22 21 20 20 22 24 25 26 26 27 29 29 28 27 27 26 26 25 25 25 24 24 23 22 22 20
28 28 27 26 26 25 23 23 23 22 22 22 21 20 19 19 19 19 18 16 18 21 23 24 25 25 26 27 28 28 26 24 24 23 23 22 21 19 19 20 20 20 19 18
24 24 23 22 21 22 22 22 21 19 19 20 18 16 16 17 20 21 18 15 18 20 22 22 24 25 26 26 26 24 23 22 22 21 20 19 19 19 18 18 18 17 17 17
24 22 22 22 21 20 21 22 21 20 19 19 18 18 17 16 15 15 16 16 19 19 20 20 20 20 22 22 23 21 21 21 20 20 19 19 18 17 16 16 16 16 16 16
23 23 22 20 20 20 20 20 19 18 17 16 15 15 15 16 18 16 12 18 19 18 18 17 17 17 18 20 19 19 18 17 17 17 16 16 16 16 15 13 15 15 14 13
23 23 22 22 22 20 18 18 19 18 17 17 16 18 18 15 15 18 17 14 13 14 14 15 15 16 17 17 17 17 17 16 16 15 15 14 15 14 14 12 12 13 12 11
23 23 22 21 20 19 18 18 18 18 18 17 17 18 19 20 16 16 16 16 15 15 14 13 14 14 16 15 15 14 13 13 14 15 14 13 13 13 13 12 11 9 10 10
24 23 23 23 23 23 22 22 20 20 19 17 17 17 17 17 17 16 15 15 16 15 15 14 15 15 15 14 14 14 14 14 13 11 12 12 12 12 10 9 9 10 9 9
24 24 24 22 23 23 24 23 21 19 19 17 15 16 16 15 15 16 15 15 15 15 14 14 13 12 13 14 13 13 14 13 6 10 11 11 11 11 9 8 8 8 8 7

GFSNGP_sfc_temp_090.txt.gz
Temp
48 51 52 50 51 53 52 54 47 51 54 61 65 68 70 73 74 76 77 78 78 77 77 78 76 74 74 71 70 70 70 67 65 65 65 65 66 66 66 66 67 67 66 67
43 50 50 48 51 53 53 54 55 56 55 66 69 71 71 73 75 75 76 78 79 79 79 78 78 76 75 73 70 71 70 69 69 68 67 66 66 66 66 65 66 66 66 66
34 46 46 39 48 52 53 57 56 48 55 62 63 67 69 72 73 74 75 76 76 75 77 78 77 76 75 74 73 71 70 71 70 70 68 67 68 67 66 64 64 64 64 64
34 38 28 48 59 57 55 56 58 57 59 62 59 67 72 73 72 74 73 72 73 72 72 73 75 77 77 78 75 71 71 71 71 70 68 68 68 67 66 65 63 63 63 62
31 34 41 47 54 54 50 50 51 49 52 54 60 68 69 72 72 70 70 70 69 70 70 70 70 75 77 77 76 74 71 71 71 70 69 67 66 65 64 63 62 54 48 45
36 30 29 46 50 57 57 42 51 47 47 50 55 52 56 68 70 69 69 68 67 68 68 68 70 72 72 75 74 74 73 72 72 71 69 66 65 62 52 47 42 40 37 37
34 32 40 52 49 49 39 39 50 52 47 48 46 51 53 57 69 69 68 66 65 64 61 61 64 67 67 66 67 72 71 67 61 60 58 52 47 45 42 39 36 34 33 33
36 33 30 53 54 41 46 53 53 53 50 49 53 57 58 57 63 63 60 59 57 55 52 53 57 59 54 50 52 52 50 47 47 47 46 44 40 39 38 36 34 32 31 30
41 42 49 45 49 54 55 51 51 51 53 54 55 58 58 54 55 53 52 50 49 47 45 45 47 49 47 45 46 45 43 41 41 41 40 40 39 37 35 34 31 30 29 28
41 48 49 47 52 54 55 52 52 53 54 56 54 55 54 53 50 47 44 42 43 41 39 38 41 42 41 42 42 40 38 36 36 35 35 36 36 35 34 32 30 30 29 28
44 47 48 48 50 50 51 53 52 53 52 53 53 51 47 43 42 40 40 39 38 37 36 36 38 38 39 38 38 35 34 33 32 32 31 31 31 31 30 31 31 30 29 29
36 44 46 44 47 49 48 49 51 50 49 51 48 44 42 37 36 36 34 35 35 35 34 34 35 35 36 36 36 34 32 31 30 30 30 30 29 28 31 30 31 31 30 29
41 47 47 47 48 48 46 47 50 49 47 45 44 41 37 33 32 32 33 32 30 29 29 30 30 31 32 34 34 32 31 30 30 29 29 28 27 25 23 26 29 30 30 30
45 47 43 44 41 46 46 46 50 48 45 41 39 39 35 32 31 29 28 29 30 29 28 29 29 29 31 32 32 32 30 30 29 28 28 27 26 25 24 22 21 22 27 27
41 45 44 46 46 45 45 43 43 40 39 36 35 31 30 28 26 26 28 28 28 27 27 28 27 28 30 31 31 31 31 30 30 29 28 27 26 25 24 23 22 22 23 24
39 44 43 42 41 41 39 37 36 34 34 32 30 28 26 25 24 24 25 25 24 23 25 26 26 27 29 30 29 29 29 29 29 29 28 27 26 24 22 21 20 19 20 22
31 31 33 33 34 35 34 33 32 30 30 28 26 26 25 23 22 22 22 23 23 23 25 25 25 28 29 29 28 28 28 27 27 27 26 25 24 22 21 20 18 18 18 21
32 32 32 31 31 31 31 30 29 27 25 25 23 22 21 21 20 20 21 21 21 21 22 24 25 27 27 27 27 27 26 26 26 25 26 25 24 24 23 21 20 18 18 19
30 28 27 27 28 28 27 26 25 24 22 21 20 18 19 18 18 18 18 18 18 18 20 23 25 24 25 26 27 26 25 24 24 23 23 22 22 22 21 19 18 18 17 17
26 26 25 23 23 24 22 23 23 22 22 22 21 20 19 18 18 17 17 15 16 17 20 22 23 23 24 26 25 24 23 22 21 21 20 19 18 17 17 17 17 16 15 14
23 23 21 21 20 21 20 20 19 17 18 18 16 15 14 14 17 18 15 13 16 18 18 19 22 23 25 25 24 22 21 20 19 18 18 17 16 16 16 15 15 14 13 13
22 21 20 20 19 18 20 20 20 19 18 18 18 18 16 14 14 14 14 14 16 16 17 18 19 20 21 20 21 19 19 19 18 18 17 16 15 14 13 13 13 13 12 11
22 21 20 19 18 18 19 18 18 18 16 15 14 14 13 13 15 12 10 15 17 16 17 16 17 18 18 18 18 16 16 15 15 14 14 14 13 12 10 10 11 11 9 7
22 22 21 22 21 20 17 18 18 18 17 16 17 18 17 14 14 15 14 13 12 13 13 14 15 16 16 16 15 15 15 15 14 13 13 11 12 10 10 7 7 9 7 6
22 22 21 21 20 18 19 19 18 18 17 16 16 17 17 18 15 15 16 16 16 15 14 14 14 14 14 14 13 11 10 9 11 12 11 11 10 9 9 7 5 3 4 6
24 23 23 23 23 23 22 22 19 19 18 16 16 16 16 16 16 16 15 15 15 14 13 12 12 14 13 13 12 12 11 11 11 10 10 9 8 9 6 4 4 4 5 3
24 23 23 22 23 22 22 21 20 18 18 16 14 16 15 15 15 15 15 15 14 14 13 12 11 11 11 12 12 12 12 8 3 7 8 7 7 7 4 3 3 2 2 1

GFSNGP_sfc_temp_093.txt.gz
Temp
43 46 47 46 46 47 46 45 38 43 48 55 58 58 62 65 70 67 67 72 70 66 69 68 67 66 65 63 63 63 61 60 60 63 63 63 62 61 61 60 61 61 61 61
38 45 46 44 48 48 48 49 49 50 48 57 59 61 59 60 66 69 69 73 70 70 68 69 68 67 67 65 64 65 63 60 62 61 62 61 61 61 61 61 61 62 61 61
31 41 40 33 42 47 49 52 50 42 47 50 50 53 53 55 60 65 65 65 64 65 64 63 63 67 67 66 66 65 64 63 62 62 61 61 62 61 60 60 62 62 62 62
28 33 21 42 53 53 50 46 46 47 47 49 49 53 57 56 61 63 61 61 62 62 63 63 63 62 63 67 66 65 65 65 65 63 62 62 62 61 61 61 60 60 61 62
26 26 36 43 46 43 39 40 46 45 46 49 51 53 54 55 54 60 59 60 59 59 58 58 58 60 63 63 67 66 65 66 66 65 64 63 62 61 61 60 60 55 48 44
28 26 23 40 46 50 50 34 48 48 45 45 48 42 45 53 54 56 54 55 53 52 51 50 50 56 57 53 56 60 66 67 65 63 64 62 61 57 47 48 41 39 37 37
28 27 34 44 46 50 34 34 47 48 47 47 43 46 52 55 53 52 50 49 51 49 46 46 47 52 47 48 46 48 49 59 60 60 61 57 48 45 42 39 36 34 33 33
28 28 25 44 46 38 39 47 45 45 48 48 49 50 53 52 48 47 45 45 46 44 42 44 44 46 43 42 45 45 45 44 45 47 46 44 42 40 39 37 34 32 31 30
35 33 41 44 44 50 48 44 44 45 48 49 47 46 45 44 44 42 41 41 42 40 40 41 42 41 38 39 40 41 40 39 39 41 42 42 39 35 34 35 33 31 30 29
37 43 42 44 47 49 49 47 47 48 49 48 43 43 42 41 39 39 38 37 39 39 37 37 39 39 38 37 37 35 34 34 35 35 34 35 36 36 34 33 31 30 29 28
39 42 43 44 44 45 46 48 48 48 46 44 42 39 38 36 35 35 35 35 35 34 33 33 36 37 37 37 36 33 32 32 31 31 31 30 30 31 30 30 31 30 29 29
31 35 40 40 43 46 44 43 46 44 42 40 39 36 35 32 32 32 32 32 31 31 31 31 32 33 35 37 36 33 30 30 29 29 28 29 28 28 31 30 31 31 30 30
36 43 43 44 44 44 43 43 44 42 40 37 37 35 33 30 30 29 29 29 28 28 29 29 30 30 32 33 34 31 29 29 28 27 26 26 26 26 24 28 30 30 31 31
40 42 40 42 39 41 41 42 42 40 37 34 33 33 30 28 28 27 26 27 28 28 28 29 29 29 31 33 31 30 29 28 27 26 25 24 24 23 23 22 22 23 28 28
37 41 40 42 42 39 38 38 36 33 33 30 30 27 26 25 24 24 26 28 28 28 27 27 27 27 30 32 31 30 29 28 27 26 25 25 24 23 23 22 21 21 21 22
35 35 36 35 35 36 34 32 31 29 29 27 26 25 24 24 23 23 24 24 24 23 25 25 26 28 29 29 29 28 28 28 27 26 24 23 22 21 21 20 21 21 20 19
28 27 29 29 30 30 29 29 28 27 26 25 24 25 24 23 22 21 21 22 22 22 23 24 25 26 27 27 27 26 26 26 25 24 23 22 21 19 19 18 17 18 17 19
28 28 27 27 27 26 25 25 25 24 23 23 23 21 19 19 18 19 19 20 20 20 21 23 24 24 25 26 25 25 24 24 24 23 23 21 20 20 19 18 17 15 15 15
25 23 23 23 24 24 23 23 22 22 20 20 18 17 16 16 16 15 16 15 15 16 18 21 24 23 22 23 24 23 21 20 20 19 20 19 19 18 17 16 14 14 14 13
22 22 21 20 19 20 17 17 17 16 17 17 16 16 15 15 15 14 14 12 14 15 18 20 21 21 22 22 22 21 19 19 19 17 17 16 15 14 14 13 12 9 7 8
18 16 17 17 16 16 16 15 15 14 15 15 13 12 11 12 14 14 12 11 14 17 18 19 19 20 21 22 21 19 19 17 16 15 14 13 12 11 9 7 7 6 6 6
13 14 13 14 15 15 15 15 15 14 13 13 14 14 13 12 12 12 13 12 15 15 17 17 18 18 18 18 17 16 16 15 14 13 12 11 7 5 3 4 5 3 2 4
16 15 14 12 13 13 14 15 15 14 12 12 11 11 10 11 12 9 8 14 16 15 16 15 16 16 16 15 14 13 12 12 11 9 8 7 4 1 2 2 -2 -4 -6 -2
18 19 17 17 17 16 13 14 15 15 14 14 14 15 14 11 10 13 14 13 13 13 13 14 14 14 12 11 10 10 10 10 8 8 7 3 3 -1 -3 -3 -3 -8 -9 -5
15 13 14 14 14 14 15 15 15 14 14 13 14 15 15 16 12 13 14 14 15 12 11 12 13 12 11 10 8 7 6 6 6 4 1 -0 -3 -6 -8 -9 -12 -10 -4 -4
19 19 20 20 19 19 18 18 14 14 14 12 12 11 10 12 13 13 13 13 12 11 10 9 9 10 8 9 7 4 3 3 1 1 -2 -5 -1 -7 -10 -10 -7 -6 -10 -13
20 19 19 18 19 18 18 18 15 13 12 9 8 8 10 10 10 11 9 8 7 7 6 3 2 4 4 2 2 2 -1 -7 -6 -7 -9 -9 -9 -9 -11 -13 -13 -13 -13 -12

GFSNGP_sfc_temp_096.txt.gz
Temp
40 43 43 44 40 43 42 41 35 41 43 50 51 54 55 58 59 62 64 66 63 61 63 62 60 60 60 59 59 59 59 60 61 61 61 61 60 60 60 59 58 59 59 59
36 42 42 40 44 44 46 47 46 47 45 49 52 53 53 53 55 61 62 60 61 62 62 63 62 60 60 59 59 60 59 59 61 61 61 60 60 59 59 58 59 58 58 58
29 37 38 32 40 44 46 42 44 39 42 48 47 50 49 50 55 57 57 56 57 56 57 57 57 61 60 59 60 59 59 59 59 60 60 61 61 60 59 59 59 57 57 57
28 31 20 41 50 48 42 43 44 43 44 46 47 52 52 53 51 51 52 51 51 50 51 51 52 56 58 64 62 60 60 59 60 59 59 60 60 61 60 60 59 58 57 58
25 23 34 41 42 42 41 38 46 43 45 46 50 52 49 54 51 48 48 49 48 48 48 48 49 51 52 51 57 61 61 61 60 59 59 59 58 59 60 59 59 59 59 58
27 25 22 36 46 50 48 34 44 44 44 45 47 39 43 52 50 48 48 48 47 46 46 46 47 49 48 47 47 48 49 51 57 61 60 59 59 58 58 58 55 46 42 40
28 25 32 41 44 47 31 32 43 44 45 45 42 41 44 46 45 46 45 45 47 46 44 43 45 47 44 43 42 44 46 46 48 50 54 57 58 52 45 42 41 39 37 36
29 26 24 44 44 36 39 43 44 44 45 44 44 45 44 43 42 41 41 42 43 42 40 41 42 43 40 38 40 41 41 39 39 41 45 45 43 41 40 39 35 33 32 31
34 32 42 42 42 46 46 43 42 41 43 43 41 41 41 39 39 38 37 38 40 38 37 38 39 39 36 36 38 37 36 35 35 36 37 39 40 38 36 36 34 32 31 29
36 40 41 43 45 45 46 43 43 42 42 41 38 39 38 37 36 35 35 34 36 36 34 34 36 37 36 36 36 35 33 32 32 31 31 33 34 35 34 32 32 31 30 29
36 37 40 39 42 43 42 43 42 40 39 38 37 36 35 33 33 32 32 33 33 32 32 32 34 34 36 36 35 33 32 32 31 30 30 30 30 31 31 31 32 30 29 29
29 34 37 37 40 43 40 40 39 38 36 36 35 34 33 30 30 30 30 30 30 30 30 30 32 32 34 34 33 31 29 28 29 30 29 30 29 28 32 31 32 32 32 31
32 35 36 39 41 40 39 37 36 34 34 33 33 32 30 28 28 29 28 28 28 27 28 29 30 30 31 31 30 29 27 27 27 27 27 27 27 27 25 28 31 31 31 31
36 40 38 38 34 36 37 38 36 33 31 30 30 30 28 27 27 26 26 27 28 28 28 28 28 28 31 31 29 28 26 26 25 24 25 25 25 24 24 23 22 23 28 28
32 36 37 38 37 34 35 35 32 29 28 26 26 25 26 24 23 24 25 27 27 27 26 27 27 26 30 31 29 28 26 25 24 24 24 24 23 23 22 21 20 19 19 20
33 33 34 32 33 32 31 30 28 26 27 25 24 24 24 24 23 22 23 24 23 21 24 24 24 26 28 28 27 26 25 25 24 22 21 21 21 21 21 20 19 18 17 16
27 26 27 27 28 26 25 25 26 25 25 25 24 24 24 23 22 21 21 21 21 21 22 23 23 25 25 26 26 25 24 23 23 21 20 20 19 19 19 18 17 16 14 15
25 24 25 26 26 25 24 24 23 23 22 21 20 19 17 17 16 16 16 18 19 18 19 22 23 23 23 23 24 23 23 23 22 21 20 19 18 18 17 16 15 13 13 12
23 21 21 24 24 23 23 22 21 21 18 17 15 14 14 14 14 14 15 14 14 14 16 20 23 21 21 22 22 21 20 19 19 19 19 17 16 16 14 13 12 12 12 10
21 21 19 18 17 17 15 15 14 13 13 14 14 12 11 11 12 12 13 11 13 15 18 19 20 20 20 21 21 20 19 18 17 16 15 14 13 11 11 9 8 7 7 6
14 14 14 14 12 13 13 13 12 11 12 11 10 9 9 11 12 13 12 10 13 16 17 18 18 18 19 19 19 18 17 15 14 13 13 11 11 10 8 7 6 5 5 6
8 10 8 9 12 12 13 13 12 11 11 12 11 11 10 10 10 11 12 11 14 16 16 16 17 16 16 16 16 14 14 14 13 12 10 9 8 7 6 5 3 4 2 -1
11 12 11 10 11 12 13 13 12 12 9 8 9 8 9 10 10 8 7 14 15 14 15 14 13 13 14 14 13 12 11 10 9 8 7 5 5 4 3 -1 -3 -1 -4 -6
13 13 14 15 14 14 12 12 13 13 11 12 11 11 11 9 10 13 13 12 12 12 12 12 12 12 11 10 9 9 9 8 7 6 5 3 1 -0 -1 -3 -3 -5 -6 -6
12 10 12 12 12 10 11 12 13 13 13 12 13 14 15 15 10 12 12 11 12 10 9 11 11 11 10 9 8 7 6 6 5 4 2 -1 -3 -5 -10 -8 -13 -11 -13 -13
17 17 16 16 16 16 16 15 12 12 12 10 11 8 10 12 13 12 11 9 9 8 7 6 6 6 7 5 3 2 2 3 1 -1 -2 -4 -6 -10 -13 -13 -13 -14 -16 -18
18 18 17 17 17 17 17 16 13 12 11 8 8 8 9 9 9 9 6 4 3 2 1 -1 1 3 1 -0 -1 -2 -4 -6 -9 -10 -14 -14 -14 -17 -17 -17 -18 -19 -19 -18

GFSNGP_sfc_temp_099.txt.gz
Temp
40 42 42 40 40 40 39 39 33 38 41 46 46 48 51 55 56 55 56 54 53 57 59 58 57 57 57 56 57 58 58 58 58 57 57 57 58 58 58 58 58 57 57 57
34 38 39 37 41 42 42 44 43 41 42 47 50 52 50 51 55 54 53 52 51 52 52 56 57 56 57 56 57 57 57 57 58 58 58 57 57 58 58 58 58 57 57 57
29 34 35 31 37 40 39 40 41 37 41 47 46 48 47 48 49 49 49 49 48 48 48 49 51 54 56 57 58 57 57 58 58 58 57 59 59 58 58 57 57 56 56 56
26 30 19 38 47 45 42 42 43 44 44 45 46 49 50 49 47 46 47 47 46 47 47 48 49 50 51 57 58 58 58 58 58 58 57 58 59 59 58 58 57 57 55 55
22 23 31 38 41 41 39 35 43 41 44 46 47 51 43 46 47 46 46 47 46 47 46 46 48 48 48 48 53 57 54 57 59 58 58 58 57 58 58 57 57 57 57 56
25 24 18 35 43 46 45 33 42 42 43 42 45 37 39 44 44 44 45 45 45 44 43 42 44 48 46 45 46 45 46 47 49 52 58 58 58 57 58 58 57 56 54 46
25 23 30 41 42 45 31 31 41 42 42 44 41 42 43 44 42 42 42 41 43 41 39 39 42 43 40 40 39 42 43 42 42 43 46 49 57 57 57 56 44 41 36 35
29 23 23 42 42 35 37 41 42 42 42 42 42 42 42 41 40 38 37 37 39 38 37 39 39 39 36 35 38 39 38 38 37 38 39 42 41 41 40 40 36 33 33 33
32 31 40 41 39 42 43 39 40 40 40 40 38 39 39 37 37 36 35 34 37 36 35 36 37 37 34 34 36 35 34 33 33 35 35 36 36 35 35 35 33 32 32 31
35 39 38 40 42 42 43 39 39 39 38 38 36 37 36 35 34 32 33 32 34 33 32 32 35 36 35 35 35 33 31 31 32 31 31 33 34 34 33 32 30 30 29 28
34 34 37 37 39 39 40 40 37 37 35 35 37 34 33 31 31 31 31 31 32 31 30 31 33 33 33 33 34 32 31 31 30 31 30 30 30 31 31 32 33 30 29 29
26 33 35 33 39 40 35 34 34 35 34 34 34 32 31 29 29 29 28 30 29 29 29 30 31 30 31 31 30 29 29 29 29 30 30 30 30 29 31 32 32 32 32 31
31 33 35 34 36 38 33 32 32 30 30 31 30 30 29 27 28 28 28 28 28 27 28 28 29 29 29 29 28 25 23 24 26 27 27 27 27 27 24 27 30 30 31 31
33 37 33 33 31 35 35 33 32 29 28 26 26 27 28 27 27 26 25 27 27 27 27 27 27 28 29 29 27 23 23 23 24 24 24 23 22 21 21 20 19 20 26 27
31 35 35 36 35 33 33 32 28 27 27 25 26 25 25 24 23 23 25 27 27 26 26 26 26 26 28 28 27 25 24 22 22 22 22 22 22 21 20 19 18 17 18 18
30 32 33 31 30 30 28 27 26 26 26 25 24 24 23 23 22 22 22 23 22 21 22 23 24 25 27 26 25 24 23 22 21 20 20 20 20 19 19 18 16 15 15 15
27 26 26 27 26 25 24 25 24 24 24 24 23 23 22 21 20 19 19 20 19 19 21 21 21 23 24 25 24 23 22 21 21 20 19 19 18 17 17 15 14 13 12 13
24 24 25 26 25 24 23 24 23 22 21 20 18 15 14 15 15 15 15 16 17 17 18 20 21 21 21 22 22 22 21 21 20 19 19 17 17 17 15 14 13 11 10 10
22 21 21 23 23 23 22 21 20 19 17 15 13 11 11 12 13 13 14 13 13 13 15 19 22 20 20 21 21 20 19 18 18 17 17 16 14 14 13 12 10 9 9 8
20 20 18 16 16 16 14 14 13 12 12 12 11 10 10 10 10 11 12 10 12 14 16 17 18 18 19 19 19 19 17 16 15 14 13 12 11 10 10 9 9 7 6 5
11 11 11 11 11 11 10 10 10 10 10 9 9 7 8 9 10 9 10 10 12 15 16 16 16 16 17 17 17 15 14 13 11 11 10 9 8 8 8 7 6 6 5 3
7 9 8 9 11 10 11 11 12 10 9 9 8 8 8 9 9 10 11 11 14 14 14 14 14 13 14 14 14 12 12 12 11 10 9 8 6 5 5 5 4 3 1 -1
8 10 9 7 8 9 10 10 8 8 7 6 6 7 8 9 10 8 7 13 14 13 13 11 10 10 10 11 10 9 9 8 7 6 5 5 5 3 3 2 0 -0 -2 -3
10 10 8 9 10 12 9 10 12 12 10 11 9 8 10 8 10 13 13 11 10 9 10 10 10 9 8 8 7 6 6 6 5 4 4 2 1 1 -1 -2 -3 -6 -5 -6
10 7 8 8 10 10 11 11 12 12 12 12 13 14 14 14 8 11 10 10 11 8 7 8 8 8 6 6 5 5 4 4 2 1 0 -1 -4 -7 -10 -8 -10 -9 -12 -12
13 12 10 12 13 14 14 13 10 10 11 9 10 8 9 12 12 11 9 8 8 6 5 3 3 3 2 2 0 -0 1 1 -1 -3 -4 -8 -7 -9 -10 -12 -13 -13 -16 -18
17 18 17 16 17 17 17 16 13 11 9 5 7 9 9 8 8 8 4 2 1 1 -0 -1 -0 1 -0 -2 -2 -4 -4 -4 -5 -8 -15 -15 -17 -19 -19 -19 -19 -21 -21 -20

GFSNGP_sfc_temp_105.txt.gz
Temp
36 38 38 39 40 41 40 41 38 41 41 47 48 49 49 52 53 52 50 50 47 46 45 47 49 55 58 58 58 58 58 57 55 56 57 59 59 60 60 60 61 61 59 59
33 38 39 37 41 41 42 42 42 43 43 47 51 50 47 46 47 46 46 46 45 45 43 43 45 48 55 56 57 58 58 57 57 56 57 58 59 59 59 60 61 60 59 59
30 36 37 33 39 41 41 42 41 38 42 47 46 43 42 43 44 43 43 42 42 41 40 41 43 46 49 54 58 57 57 57 57 56 56 57 59 59 59 59 60 60 59 58
31 33 23 37 45 46 43 42 42 44 45 45 44 43 43 43 41 40 40 40 40 39 39 39 42 44 46 54 57 57 57 58 58 57 56 57 58 58 58 59 57 58 58 57
28 29 34 38 41 40 39 37 42 40 44 45 47 45 40 42 41 39 39 39 39 39 38 39 40 41 42 43 44 45 44 45 47 50 54 57 55 56 58 58 57 56 57 56
30 26 23 35 42 46 46 33 43 43 43 44 47 37 37 40 39 38 38 38 38 38 37 37 37 39 39 38 38 38 39 40 42 43 45 45 46 53 56 57 56 56 47 39
30 28 34 38 41 46 32 33 40 42 40 41 38 38 38 39 37 36 35 36 38 37 35 36 37 38 35 35 34 37 38 38 38 39 40 40 42 42 43 52 40 36 34 34
31 27 25 39 41 37 36 38 39 38 39 38 39 38 38 36 35 33 32 33 34 35 34 35 36 37 34 33 35 36 36 35 35 36 37 38 38 38 38 37 35 33 32 31
33 32 37 38 37 39 42 38 37 37 38 39 36 35 34 33 33 31 30 31 33 33 34 34 34 34 33 33 35 35 34 33 33 33 34 35 34 34 34 34 32 31 31 30
33 35 35 35 37 38 39 36 37 37 38 38 34 34 32 31 31 30 29 29 31 31 31 30 32 32 32 34 36 35 33 32 32 31 31 32 33 32 32 32 32 31 30 29
31 33 35 34 34 34 35 36 35 34 34 34 34 31 30 29 29 29 28 29 29 29 29 29 31 31 32 33 35 33 33 32 31 31 31 30 30 30 30 31 31 29 29 29
27 31 32 31 32 33 30 31 32 32 30 30 32 30 31 28 28 28 27 28 28 28 28 28 29 29 31 32 33 33 31 31 30 31 31 30 29 28 31 31 32 32 32 30
30 33 32 32 32 31 29 30 30 29 29 28 29 30 30 28 28 28 28 27 27 26 27 27 26 26 27 29 28 28 28 29 28 27 28 27 27 27 24 27 30 31 31 31
32 34 30 31 29 31 31 31 30 29 28 28 27 29 28 27 27 25 25 26 27 26 26 26 26 25 26 27 26 25 25 25 26 25 25 25 24 23 23 22 21 22 27 28
30 34 32 33 32 31 32 31 29 27 27 26 27 25 26 24 23 23 24 26 26 25 24 25 24 24 27 26 25 24 24 24 25 25 24 24 24 23 23 23 22 22 23 21
29 31 31 28 28 27 28 28 27 26 25 25 24 23 23 23 22 22 22 22 21 19 21 21 22 24 26 26 25 25 24 23 25 26 25 24 24 23 22 21 20 19 18 19
28 25 26 27 26 25 24 25 25 24 23 22 21 23 23 21 20 20 19 20 19 18 20 21 21 23 24 24 25 25 25 24 23 24 24 23 22 20 19 18 17 16 15 14
25 25 26 25 25 25 23 22 22 21 19 19 17 15 13 14 15 15 15 17 17 17 17 19 21 22 22 23 24 24 24 23 23 22 22 20 20 19 18 17 16 15 14 12
22 21 21 22 22 22 21 19 18 17 15 14 12 10 11 11 13 13 14 14 14 15 15 19 21 20 21 22 23 23 22 21 21 20 19 17 17 17 16 15 14 14 14 13
19 19 17 15 15 16 13 13 13 12 12 12 11 11 10 10 11 12 13 12 13 15 17 17 19 19 19 19 20 22 20 19 18 17 17 17 15 14 13 12 12 11 11 10
12 13 12 11 10 11 10 11 10 10 10 11 10 8 9 11 11 13 14 14 14 15 16 16 17 19 19 19 20 19 18 17 16 16 15 14 14 13 12 12 11 10 10 9
11 10 9 10 10 10 10 11 11 10 10 9 10 10 11 11 11 12 12 13 15 14 16 16 16 13 15 16 18 16 16 15 15 15 14 13 13 12 11 11 10 10 9 9
11 11 10 9 10 10 10 9 8 8 7 8 8 10 12 13 14 13 11 14 16 13 15 13 11 11 12 14 14 13 13 13 12 12 12 11 11 11 11 10 9 9 8 8
13 13 12 13 13 13 11 12 12 11 9 11 9 9 13 12 12 15 14 11 10 11 11 11 10 9 11 12 12 11 11 11 11 10 10 9 10 9 9 8 7 8 6 6
14 14 13 13 13 13 13 13 13 13 13 13 14 14 14 14 12 12 12 11 11 11 10 7 8 8 11 10 10 9 9 9 9 9 8 8 7 7 7 7 6 6 5 6
16 16 16 16 16 16 16 15 13 14 13 11 11 11 12 12 12 12 11 10 10 9 9 9 8 9 9 9 8 8 8 8 8 7 6 6 6 6 5 5 5 5 4 4
18 17 18 17 18 18 17 17 15 13 13 12 10 11 11 10 10 10 7 8 8 8 8 8 9 8 8 8 7 7 7 7 5 6 6 5 5 4 4 3 3 3 2 2

GFSNGP_sfc_temp_108.txt.gz
Temp
44 44 44 45 46 49 48 49 43 49 49 54 54 56 53 52 51 52 50 51 49 48 48 45 44 45 46 58 58 58 57 57 56 58 62 64 64 63 64 63 62 64 62 62
38 45 44 42 47 49 50 49 49 50 50 55 54 51 48 49 48 46 46 47 48 45 44 42 41 42 45 55 57 58 57 56 57 58 60 61 63 63 62 62 63 62 60 59
35 42 41 37 44 48 50 50 48 45 48 51 49 44 42 44 45 43 42 43 43 40 39 39 40 41 41 47 57 57 56 57 58 60 59 60 62 62 61 61 63 62 63 61
36 39 26 43 52 52 50 49 50 47 46 50 46 43 42 43 41 39 39 39 41 39 37 37 39 41 41 48 54 54 53 55 57 57 59 61 61 61 62 63 62 63 62 61
32 34 40 44 41 44 45 39 45 41 46 51 47 44 38 41 40 38 37 37 38 39 37 35 36 38 37 40 42 43 43 44 45 49 52 56 57 59 61 61 62 63 63 61
37 30 27 38 40 51 51 34 45 44 44 46 50 38 35 40 39 38 37 37 36 38 36 34 34 36 36 36 36 36 39 39 42 44 45 44 45 47 54 58 57 55 43 41
34 33 40 43 43 47 35 34 41 43 42 43 38 37 39 40 37 36 35 34 36 37 35 34 34 34 34 34 33 34 37 38 38 39 40 40 41 41 43 45 39 35 34 34
36 31 29 42 47 38 38 42 42 41 42 40 39 38 37 36 34 33 32 32 34 33 34 34 36 37 35 33 33 34 35 36 36 37 37 39 38 37 38 36 34 33 32 32
35 34 38 39 37 42 45 44 43 42 42 41 39 36 35 33 33 31 30 30 32 32 32 34 36 35 35 36 37 36 36 34 34 35 36 36 36 36 35 35 33 31 31 29
34 34 34 35 37 39 43 43 44 44 43 42 37 36 34 33 32 30 30 29 30 30 30 30 33 35 34 37 38 37 35 34 33 32 32 33 33 33 33 32 31 30 29 27
32 33 33 33 34 35 37 40 41 40 41 40 39 35 35 33 31 31 30 30 29 28 28 28 30 32 35 36 39 37 37 36 35 33 32 30 30 30 30 30 31 29 29 29
30 32 32 31 33 36 34 35 38 39 37 37 38 36 36 34 34 32 30 31 29 28 28 28 29 29 32 35 36 38 36 34 34 33 32 32 30 29 31 31 32 32 32 31
31 33 32 32 32 33 32 30 34 36 36 35 35 35 34 33 33 32 34 32 30 27 28 28 27 27 28 30 31 31 31 32 32 32 32 31 31 30 27 28 30 30 31 31
34 34 31 32 29 32 32 31 32 34 34 35 34 34 33 33 33 32 30 31 31 31 29 29 28 27 28 29 30 29 30 30 30 30 30 30 29 29 30 28 26 25 27 28
34 34 32 32 31 31 35 36 34 33 33 32 33 32 31 30 28 28 30 31 30 29 28 28 27 26 29 29 28 29 30 29 29 29 30 29 30 30 29 29 28 27 28 27
33 34 32 29 30 31 33 34 32 30 31 30 30 29 29 29 28 27 27 27 26 24 25 24 25 26 28 29 30 29 29 29 30 30 30 30 30 29 29 28 27 26 26 27
31 30 30 28 29 30 29 30 30 28 28 28 27 28 28 27 26 25 24 24 22 23 24 24 24 25 27 29 30 30 30 30 29 30 30 29 28 28 28 27 25 24 21 21
30 30 30 29 29 29 27 27 27 26 24 23 21 20 19 19 20 20 20 22 23 21 22 23 24 26 26 28 30 30 30 29 29 28 28 27 27 27 26 26 25 23 22 21
27 25 25 26 27 27 26 24 22 21 19 18 18 16 17 17 18 19 20 21 21 21 20 23 24 25 25 25 30 30 29 27 27 26 25 24 25 25 25 24 23 23 22 21
23 23 21 19 19 19 17 18 18 16 17 17 17 17 16 16 17 18 19 17 18 19 21 22 25 25 25 25 27 29 27 26 25 24 24 24 23 21 20 20 21 20 20 19
18 17 16 15 14 15 15 16 16 15 15 16 16 15 15 16 17 19 21 20 18 20 21 22 22 25 26 27 28 26 25 25 24 23 23 22 21 21 20 20 19 19 18 18
17 16 15 15 15 15 16 17 16 15 15 15 15 16 17 17 17 17 16 19 21 19 22 22 21 18 22 24 26 24 24 23 23 23 22 21 21 19 19 19 18 18 18 17
18 17 16 16 16 16 16 15 15 15 14 14 15 17 17 19 20 20 18 19 21 18 21 18 16 17 19 22 22 22 21 20 20 20 20 20 20 19 18 18 17 17 16 16
18 18 17 18 18 18 16 16 17 16 15 16 14 16 19 19 18 21 20 16 15 16 16 16 15 16 18 20 20 19 19 19 19 18 18 17 18 17 17 16 15 15 13 14
18 18 18 18 19 19 18 18 19 18 18 18 18 19 19 20 19 19 19 17 15 18 17 12 13 15 18 18 17 17 17 17 17 17 17 16 16 15 15 14 14 14 13 13
21 23 23 21 22 23 22 23 21 21 21 18 18 18 18 19 18 19 16 15 16 15 16 16 15 16 16 16 15 15 16 16 15 14 14 14 14 14 13 12 12 13 12 12
23 22 24 24 25 25 24 23 22 20 20 19 17 18 18 17 16 16 15 16 16 15 15 16 16 14 15 15 15 15 15 14 11 14 14 13 13 12 11 11 11 12 11 10

GFSNGP_sfc_temp_111.txt.gz
Temp
44 45 49 45 47 53 50 51 44 48 49 51 52 54 52 52 53 53 52 52 52 51 51 53 52 49 45 46 47 58 59 58 57 59 62 64 64 64 63 65 66 65 63 63
43 50 49 46 51 52 54 54 53 55 53 60 57 55 50 49 50 48 47 47 48 48 47 47 46 43 42 43 44 48 56 56 57 57 60 64 63 62 61 63 66 64 62 61
37 46 46 40 48 51 53 56 54 47 51 56 48 47 44 44 43 43 43 45 43 42 42 43 42 40 39 41 42 49 56 56 56 57 59 61 61 62 62 61 62 64 65 64
37 41 29 47 56 56 54 52 53 52 53 55 48 43 41 41 42 42 41 42 38 39 39 40 39 39 39 39 41 50 52 53 56 57 59 60 61 61 61 63 61 61 60 61
34 36 43 48 46 42 43 39 48 47 48 49 45 43 38 42 44 42 39 39 37 39 37 36 36 37 37 36 36 40 41 43 45 49 54 60 59 61 62 61 61 60 61 61
38 32 28 34 46 49 48 34 43 46 45 47 47 38 35 43 44 42 41 38 36 37 36 34 33 35 34 33 33 34 36 37 40 42 44 45 46 49 52 60 57 47 42 40
37 35 40 46 50 48 33 32 43 46 45 46 40 39 41 43 42 41 38 35 35 35 34 33 33 33 32 32 32 32 34 36 36 37 39 40 41 42 43 40 37 35 34 33
39 33 29 45 47 35 35 42 44 44 44 41 41 40 39 39 40 37 35 33 34 33 33 33 33 32 32 32 32 33 33 32 34 33 34 38 37 37 37 36 34 32 31 30
35 31 38 41 37 42 45 44 45 45 46 44 43 40 39 38 37 34 32 31 32 31 31 32 33 32 32 32 34 33 32 32 32 32 33 34 34 34 34 34 32 31 30 28
38 32 33 35 38 42 45 46 47 48 47 46 41 41 40 38 35 34 31 31 31 30 29 29 32 32 34 39 40 37 34 32 32 30 30 32 32 31 32 31 30 29 28 26
33 33 36 37 35 37 39 44 45 45 45 44 44 42 42 39 37 36 33 32 31 29 28 28 30 30 34 36 39 37 36 36 34 32 31 30 30 30 29 30 30 28 28 28
30 32 34 32 34 36 35 38 42 43 41 42 43 41 42 39 39 38 36 36 33 31 30 29 30 31 32 35 36 35 34 33 32 32 32 31 29 28 31 31 32 32 32 30
32 34 34 33 34 35 34 33 36 40 41 41 40 39 39 38 37 36 36 35 33 30 30 30 29 29 30 32 33 31 31 32 32 31 31 31 30 29 26 27 30 30 31 31
35 35 32 32 32 34 34 35 35 36 39 39 39 39 37 36 36 34 33 33 34 32 31 31 30 28 30 31 32 31 31 31 31 31 31 31 31 30 30 28 26 26 29 30
34 35 33 33 33 33 35 38 37 36 37 36 37 34 34 32 31 30 32 34 33 31 29 29 28 28 31 32 31 31 31 31 31 31 31 31 31 31 31 30 29 28 29 29
35 35 34 31 30 30 33 37 36 34 35 35 33 32 32 32 30 29 28 28 26 25 26 25 26 27 30 31 31 32 32 30 32 32 32 31 31 30 30 28 27 26 26 29
34 33 33 30 29 30 32 33 34 32 32 30 28 29 31 29 27 26 25 26 24 24 25 25 26 26 29 31 31 32 31 31 30 31 31 31 30 29 29 27 25 24 23 26
35 34 34 33 33 32 30 30 30 28 25 25 24 23 21 22 22 22 23 25 25 23 24 25 26 27 27 30 31 31 31 30 29 28 29 29 29 29 28 27 26 25 24 25
31 28 28 28 30 30 28 25 24 23 22 22 21 19 20 20 21 22 23 23 23 21 21 25 26 27 27 28 31 31 30 29 28 28 28 27 28 28 27 27 26 26 26 25
26 25 23 21 22 22 20 21 21 19 21 21 21 21 19 19 21 23 23 20 20 21 24 24 27 28 28 29 30 30 29 28 27 26 27 26 25 24 24 24 25 24 23 23
21 20 19 18 17 19 19 20 19 18 18 19 19 18 18 19 19 21 24 22 21 23 25 25 25 28 30 30 29 28 27 26 26 26 26 25 25 25 24 24 23 23 22 22
21 19 18 19 19 18 19 20 19 19 18 18 18 19 21 21 20 19 19 20 24 22 25 24 24 23 27 28 29 28 28 27 27 26 25 25 24 23 23 22 21 21 21 20
21 21 20 19 19 19 19 19 18 19 18 18 18 19 21 21 23 21 19 21 23 21 24 20 19 21 24 25 25 25 25 24 24 24 24 23 23 22 22 21 21 20 20 19
22 21 21 22 22 23 20 20 21 20 19 19 18 19 20 21 21 24 23 20 19 19 17 18 19 20 23 23 23 23 23 23 22 22 21 21 21 20 20 19 18 17 17 17
22 22 22 22 23 23 22 22 23 23 22 22 22 23 22 23 21 20 21 20 18 21 20 17 18 19 21 21 20 20 19 19 20 21 20 20 19 19 19 18 17 17 16 16
24 26 25 24 25 26 26 26 24 25 26 23 23 22 22 23 22 22 19 19 19 19 19 19 18 20 19 19 19 19 19 19 18 18 18 18 17 17 16 16 16 16 15 15
26 25 27 27 28 28 27 25 25 23 23 22 21 22 22 21 19 20 19 20 19 19 19 19 18 17 18 19 18 19 18 16 12 17 17 17 16 15 15 15 15 14 14 12

GFSNGP_sfc_temp_114.txt.gz
Temp
42 45 36 39 42 50 50 50 44 42 44 47 46 44 49 52 52 50 49 50 49 48 47 47 47 46 45 45 45 45 45 51 57 59 60 61 60 62 63 62 63 63 62 60
41 49 46 38 42 43 42 46 49 48 47 47 49 51 48 47 46 45 46 46 45 44 43 42 42 41 42 42 42 43 45 49 58 58 58 58 59 60 61 60 61 62 62 59
36 46 46 40 48 50 52 55 52 43 45 49 46 44 42 43 44 42 42 43 40 39 39 39 38 39 39 40 42 41 46 54 57 57 57 58 59 59 59 59 60 60 60 60
35 40 29 43 49 49 49 49 50 49 48 47 42 41 42 43 42 40 40 39 38 38 37 37 37 37 38 40 40 38 39 43 51 56 56 58 58 58 58 59 58 59 59 59
32 33 42 38 42 41 39 38 45 46 47 44 43 42 37 43 44 40 39 38 37 37 36 35 35 36 37 37 37 36 35 37 40 44 55 56 57 57 58 58 57 55 52 49
36 30 27 35 46 52 50 31 35 44 46 46 45 37 34 42 42 40 38 36 35 36 35 34 33 35 34 33 32 32 33 34 37 39 43 47 49 51 51 52 46 41 37 37
35 33 33 39 46 51 34 30 38 40 42 41 37 37 40 42 40 39 36 35 36 37 33 33 33 33 33 32 31 32 32 33 35 35 37 39 40 42 42 39 36 33 32 32
32 32 27 39 45 34 35 39 39 40 42 40 41 41 41 40 38 35 33 33 33 32 32 32 33 32 32 31 32 32 32 32 32 33 33 36 36 36 37 35 33 31 29 28
32 30 35 37 36 39 42 42 44 44 45 44 42 41 40 37 36 33 32 31 32 30 30 31 31 31 30 32 32 32 31 30 30 31 32 32 32 33 32 32 31 29 28 27
36 33 35 35 37 37 39 40 45 46 46 45 42 42 41 39 37 33 32 31 31 30 29 28 30 31 31 33 33 32 31 30 29 29 29 31 31 31 30 30 29 28 28 26
32 35 37 34 35 35 37 40 42 44 43 43 44 42 41 38 38 37 34 33 31 29 29 28 29 30 31 32 34 32 31 32 30 29 28 28 29 29 29 29 29 28 28 28
28 31 33 31 34 35 33 33 39 41 41 41 41 40 40 37 37 36 34 34 32 30 30 29 29 30 31 32 32 32 31 31 31 30 29 27 27 27 31 31 32 32 32 31
31 34 34 33 34 34 33 32 35 37 39 39 40 39 39 36 35 35 34 33 31 28 28 29 28 28 29 31 32 30 30 30 31 30 30 29 28 26 24 28 31 31 32 32
35 35 32 33 31 34 35 35 37 37 38 38 37 38 36 34 33 31 29 31 31 29 28 28 28 27 30 31 31 30 30 30 30 30 30 30 29 27 26 24 24 25 30 31
34 35 33 33 33 32 34 35 35 35 36 35 35 33 32 30 28 27 28 29 29 27 27 27 25 26 30 32 31 30 31 30 30 30 30 30 30 28 28 27 27 26 28 28
37 37 35 31 30 30 30 30 31 33 33 31 30 30 31 30 28 27 26 26 24 22 24 24 25 25 29 31 31 31 31 30 30 30 29 29 28 26 25 24 23 23 24 26
33 31 34 32 31 28 28 30 31 29 28 26 26 26 28 28 26 25 25 25 23 23 24 24 24 26 27 29 31 31 30 30 29 29 28 28 27 25 24 23 22 21 22 24
34 33 33 33 31 31 29 28 26 25 23 23 23 21 20 20 21 21 22 24 23 21 22 24 26 26 27 28 30 29 29 28 27 27 27 26 26 26 25 24 23 22 22 22
29 27 26 26 28 27 26 23 22 22 21 21 20 19 19 20 21 21 21 19 19 20 20 23 27 27 27 27 29 29 28 27 27 26 26 26 25 25 24 23 22 22 21 20
25 24 22 20 20 21 19 20 20 19 20 21 20 19 19 18 17 20 19 17 18 21 23 22 25 26 27 27 28 28 27 26 25 25 24 23 22 21 21 21 21 20 19 18
20 20 19 18 18 19 19 20 19 17 17 17 18 18 17 18 17 19 21 18 19 22 23 22 23 24 28 28 28 27 26 25 25 24 24 23 22 22 21 21 20 19 18 17
20 19 19 19 19 18 19 20 19 18 18 17 16 18 21 20 17 17 16 18 21 20 22 21 21 21 24 24 25 24 24 24 24 23 23 22 21 20 19 19 18 17 17 17
21 21 20 19 19 19 19 19 18 18 17 16 15 17 20 20 21 18 15 19 20 17 20 19 18 20 22 23 23 22 22 21 21 21 20 20 19 19 18 18 17 17 17 16
22 21 21 22 22 22 20 20 20 19 18 19 16 16 20 20 20 22 21 18 17 15 15 17 17 18 19 21 20 20 20 20 20 19 19 17 18 18 17 15 14 14 13 11
22 22 22 22 23 23 22 23 20 21 22 22 22 22 22 22 19 19 20 19 17 19 18 15 16 16 19 19 18 16 16 16 17 18 17 17 17 16 15 13 13 13 11 11
24 25 25 24 25 26 26 26 24 24 24 21 21 21 21 21 21 20 19 17 18 18 18 17 16 18 17 17 17 16 16 15 16 16 15 15 14 13 12 12 11 12 11 8
26 25 26 26 28 27 25 24 23 21 21 20 19 21 21 20 18 19 17 19 19 18 18 17 16 15 16 17 16 16 15 13 8 14 15 14 13 11 10 11 11 9 7 4

GFSNGP_sfc_temp_117.txt.gz
Temp
39 42 34 35 40 42 41 43 39 40 39 40 40 41 42 45 45 44 43 42 41 40 40 40 40 39 40 40 41 43 42 43 44 48 57 59 59 59 61 62 62 60 60 59
35 44 41 40 41 43 43 43 44 43 39 45 44 44 41 42 42 40 40 40 40 39 39 38 37 37 38 39 40 41 41 41 44 50 57 58 58 59 59 59 61 59 58 57
30 41 40 32 35 38 38 40 45 36 39 43 39 39 38 39 39 38 38 38 37 37 36 36 36 36 36 37 39 39 40 41 42 43 57 58 59 59 58 58 59 58 57 57
29 34 25 35 45 45 36 36 38 41 40 39 38 39 40 40 37 36 36 36 35 35 35 34 35 36 37 38 37 37 37 38 39 40 46 57 58 58 57 58 57 57 56 57
26 27 35 36 37 36 36 33 36 38 40 39 39 39 36 40 39 35 35 35 35 36 35 34 34 35 36 35 35 35 34 35 36 38 40 54 56 56 57 57 56 52 52 49
27 26 22 30 36 43 42 27 36 36 35 38 40 33 31 38 38 35 35 34 33 35 34 33 32 34 33 32 32 31 32 33 35 36 37 39 51 55 55 49 43 41 36 36
26 26 30 34 38 43 29 28 38 37 36 37 33 34 37 38 35 35 34 33 33 33 31 31 32 32 31 32 30 31 32 32 33 34 36 35 39 45 43 38 35 33 32 32
27 25 22 36 38 30 34 38 39 38 38 38 39 38 38 36 34 33 31 31 32 31 30 31 31 31 30 31 32 32 31 30 30 32 33 34 34 35 36 35 32 30 29 28
28 27 34 35 34 36 38 37 39 41 42 41 40 38 37 35 33 32 31 30 31 30 29 30 30 30 29 31 32 32 30 28 28 29 31 32 32 32 31 32 31 29 28 26
31 32 33 33 35 36 36 36 40 41 40 43 40 39 37 36 34 31 30 29 29 29 28 27 29 30 31 32 33 32 30 28 28 27 28 30 31 31 30 30 29 28 27 26
30 32 32 32 33 34 35 36 38 40 38 37 39 38 36 35 34 33 31 29 29 27 26 26 29 29 31 32 32 31 31 30 28 27 27 28 29 29 29 30 30 28 28 28
26 31 31 30 33 34 32 33 35 36 37 38 38 36 35 33 33 32 30 29 28 27 27 27 28 29 30 32 32 31 30 30 29 29 27 27 27 27 31 31 32 32 32 31
31 33 33 32 33 34 32 32 34 35 34 32 35 35 33 30 29 29 29 27 26 24 25 25 25 26 29 30 31 29 29 29 29 28 27 26 26 25 25 28 31 31 32 32
34 34 30 31 29 33 34 35 35 35 34 32 32 32 31 28 27 25 24 26 26 25 25 25 25 25 28 29 29 29 29 29 29 29 29 27 26 25 25 25 24 25 29 31
33 33 31 32 31 31 32 33 31 29 29 28 31 29 27 25 24 23 24 26 25 24 24 24 23 24 27 31 30 29 29 29 29 28 27 26 25 24 23 23 25 25 25 26
35 35 33 30 29 28 28 28 27 25 25 26 25 25 26 25 24 24 23 23 21 20 22 21 23 24 26 29 28 28 28 28 28 27 26 25 24 23 22 22 22 22 22 22
29 27 29 28 27 27 26 27 25 24 24 23 23 23 25 25 24 22 22 21 18 18 20 22 23 24 25 27 26 26 26 26 26 26 25 24 23 22 21 20 20 19 19 20
25 24 24 26 25 25 23 23 23 23 21 22 21 18 18 18 18 18 17 17 16 14 18 20 24 23 25 26 27 26 25 25 25 24 25 23 23 23 21 20 20 18 18 18
23 21 21 22 22 22 21 20 20 21 19 19 15 12 12 14 15 11 8 12 13 13 16 19 24 22 22 25 26 25 24 23 23 22 22 22 22 21 20 19 17 16 16 16
21 20 19 17 17 17 14 13 14 11 13 12 11 11 12 13 14 11 6 9 14 17 16 18 20 22 24 25 24 24 22 20 21 18 19 19 18 18 18 17 16 15 14 13
15 14 13 14 13 11 9 9 7 7 5 6 7 9 8 8 11 13 11 12 14 16 18 19 18 21 24 23 23 22 19 18 19 18 17 15 16 16 15 14 13 12 12 12
12 12 11 12 13 12 12 10 10 9 10 10 10 13 14 11 10 11 8 12 15 14 16 16 18 17 20 20 20 18 19 18 18 18 16 14 13 13 12 9 9 9 9 7
12 14 13 10 9 8 8 8 5 5 4 3 4 8 13 12 14 11 9 15 17 14 16 14 14 15 14 17 16 15 14 14 14 14 14 13 13 12 12 12 11 10 8 9
14 13 11 13 14 17 12 9 10 9 6 7 6 4 13 14 14 17 16 13 12 6 10 14 12 13 10 11 10 11 11 14 12 10 10 7 8 7 5 3 4 1 0 3
12 10 12 13 15 10 12 13 15 15 15 16 14 17 18 16 6 8 7 7 12 11 6 8 11 7 9 12 10 8 9 9 9 11 11 11 11 6 4 6 4 7 8 6
14 18 13 13 14 17 19 20 15 14 20 14 12 6 7 9 14 14 10 9 8 10 6 0 6 10 8 7 5 5 4 6 6 7 5 5 4 2 3 5 3 0 -6 -8
14 16 18 18 20 18 16 17 16 15 11 9 9 7 10 7 8 11 8 8 7 8 7 1 -1 2 4 2 6 8 1 1 3 5 5 4 1 -0 1 -1 -4 -7 -9 -8

GFSNGP_sfc_temp_120.txt.gz
Temp
36 40 36 35 35 38 38 39 36 38 36 36 36 37 37 36 39 39 39 38 38 37 36 37 37 37 38 39 39 39 40 41 41 42 44 46 50 56 59 60 61 61 60 59
33 42 35 33 39 37 36 36 38 38 35 39 39 40 38 36 36 36 36 36 36 36 36 35 35 35 36 37 38 38 37 38 40 41 43 45 47 57 58 59 61 60 58 57
28 38 38 29 30 33 34 34 38 34 36 37 35 35 34 35 36 35 35 34 34 34 34 34 34 35 34 36 37 36 36 37 39 39 40 43 44 57 58 58 58 58 58 57
27 32 23 32 38 36 32 33 34 36 34 35 34 36 36 35 34 33 34 34 34 34 33 33 35 34 35 37 35 34 34 34 36 37 38 41 43 50 58 57 57 57 56 56
25 26 31 33 34 33 32 30 35 34 36 36 36 38 33 36 36 33 33 33 33 34 33 33 32 33 33 34 34 33 32 32 33 34 36 39 39 41 58 57 56 56 55 54
27 25 21 30 34 40 39 26 36 35 34 35 37 30 30 34 35 33 33 33 32 33 33 30 30 32 32 31 31 30 31 31 32 33 34 35 37 38 56 53 45 42 38 39
25 25 29 32 35 39 27 27 36 36 35 36 31 33 33 35 34 34 32 32 32 32 29 29 30 31 30 31 29 31 31 30 30 32 32 34 36 36 41 39 37 35 33 33
25 23 20 34 35 29 32 35 37 38 39 36 36 36 34 34 32 31 30 30 31 29 28 29 29 30 29 29 32 32 31 28 28 30 31 32 33 32 34 35 33 32 31 30
29 27 33 34 33 35 36 34 34 35 38 40 37 35 35 32 32 30 29 28 28 29 28 30 30 30 29 30 32 31 29 28 27 29 30 30 31 31 30 32 31 31 30 27
30 31 31 32 34 35 35 35 37 35 36 40 36 36 34 32 31 29 28 26 25 25 26 26 29 30 30 31 32 31 29 28 28 27 28 29 30 30 30 29 29 29 28 27
29 31 32 32 33 33 34 35 37 37 36 35 35 32 31 30 29 29 27 25 24 23 23 24 27 29 30 31 31 31 30 29 28 27 27 28 29 30 30 30 30 29 29 29
19 25 30 30 32 33 30 33 34 33 32 33 34 31 30 27 27 27 25 25 24 24 24 24 25 27 30 31 30 30 30 29 27 27 27 26 27 28 30 31 32 32 32 31
30 32 30 31 32 34 31 32 33 32 32 30 30 30 28 26 26 26 25 25 23 23 23 23 23 24 27 29 29 29 28 28 29 28 27 26 26 25 24 27 30 30 31 31
33 33 28 30 28 32 32 34 33 31 30 29 29 28 27 25 26 24 23 24 25 24 23 23 24 24 26 29 27 28 28 28 27 25 24 24 23 24 25 23 22 23 27 28
32 32 30 30 30 29 31 31 28 26 26 25 27 26 26 24 23 22 23 24 25 24 23 23 23 23 26 29 27 27 28 27 26 25 24 24 23 23 23 23 22 22 22 23
33 32 29 27 25 26 26 26 24 24 24 24 23 24 25 25 24 22 22 21 19 17 19 19 22 23 25 26 25 25 25 25 25 24 23 22 22 21 21 21 20 19 18 18
26 24 25 25 24 23 23 24 24 23 23 22 22 23 24 23 22 21 20 20 18 16 18 18 20 23 24 25 24 23 23 23 23 24 23 22 21 21 20 19 18 17 16 17
24 23 24 25 23 22 21 22 22 22 20 20 19 17 16 16 16 15 15 16 16 15 16 17 20 22 23 24 24 24 23 23 23 22 22 21 21 21 20 19 18 16 15 15
21 20 21 22 22 21 20 19 19 19 18 15 14 11 11 12 11 7 10 13 13 13 14 18 21 21 22 24 24 23 21 20 21 20 20 19 19 18 16 16 15 14 14 13
20 20 19 17 16 16 12 9 11 10 7 8 8 9 8 10 9 5 5 10 12 13 16 17 19 21 22 22 22 22 20 19 20 18 17 16 15 15 14 14 13 12 11 10
12 12 12 12 10 9 6 5 7 10 10 10 8 7 7 6 10 10 10 10 11 12 16 17 19 20 21 21 21 19 19 18 17 14 14 12 13 13 12 11 11 10 9 8
7 8 5 6 8 4 3 4 5 2 1 3 5 6 5 6 5 6 5 9 15 14 16 17 18 16 17 18 18 16 17 16 15 14 13 12 9 9 8 9 8 7 4 2
10 10 8 5 6 5 4 4 -0 0 0 -1 2 5 6 6 7 4 4 13 15 12 16 14 13 13 12 12 11 11 12 11 12 12 11 8 6 4 5 5 4 4 2 1
8 9 7 8 8 12 8 5 7 7 2 3 0 0 11 3 4 13 13 9 6 3 5 10 10 11 10 9 10 9 10 10 9 8 9 7 3 2 2 -0 -1 -1 0 -1
9 7 7 8 11 8 9 9 10 10 12 14 11 14 15 14 4 6 3 4 10 5 3 5 7 5 5 4 5 5 5 5 6 6 6 4 2 4 4 1 -2 -0 -1 -3
10 11 11 12 14 12 13 17 11 14 16 9 8 1 1 4 8 9 6 5 6 4 0 -5 -2 0 0 1 -1 -0 3 5 4 4 2 -1 -3 -2 -3 -3 -4 -4 -7 -12
11 12 13 14 15 16 14 16 12 9 10 9 7 3 3 1 1 5 2 -2 -2 3 -2 -6 -6 -2 -1 -1 0 -3 -4 -3 -3 -2 -6 -7 -9 -9 -9 -10 -11 -13 -13 -12

GFSNGP_sfc_temp_123.txt.gz
Temp
34 38 34 33 34 35 33 35 32 33 31 32 33 33 32 33 36 33 34 35 35 35 35 36 35 36 37 38 38 38 37 37 38 40 40 41 43 45 47 51 58 61 61 61
31 39 35 31 34 34 34 33 36 34 31 35 35 36 35 35 33 34 34 34 35 35 35 34 34 34 35 36 37 37 36 36 38 38 39 39 41 43 46 48 57 60 60 60
27 36 34 27 28 31 32 33 34 31 33 33 32 31 31 33 33 32 33 33 34 33 32 33 32 33 33 35 36 36 35 36 36 36 37 38 40 42 44 46 56 59 59 59
26 31 21 30 34 34 31 32 32 33 33 32 32 33 33 34 32 31 31 32 32 32 31 31 32 32 34 35 34 34 33 33 34 34 34 36 38 40 42 44 52 58 58 58
24 26 29 34 33 30 30 29 34 33 35 36 36 38 31 34 34 31 31 31 32 32 31 31 30 32 33 33 33 32 31 31 31 32 33 34 36 36 39 42 46 57 58 56
27 24 19 27 33 38 36 25 34 34 33 34 36 30 29 33 33 32 32 32 30 29 30 29 29 32 31 31 31 29 30 29 31 31 32 33 33 35 37 40 49 45 40 44
25 26 27 31 34 37 25 24 34 36 34 34 30 31 32 34 33 32 31 30 31 29 28 29 30 31 29 29 29 31 30 29 29 31 31 33 33 35 35 36 37 36 34 34
25 22 17 33 34 27 31 33 33 33 36 34 34 34 33 33 31 30 27 27 27 26 28 29 30 30 28 27 30 31 30 27 28 29 31 32 32 32 33 33 33 33 33 32
28 25 32 33 33 34 35 33 33 32 35 38 34 33 33 31 30 28 27 25 25 24 24 26 29 29 27 28 30 29 27 26 26 27 30 30 30 30 31 31 31 30 31 31
29 31 31 32 35 35 34 33 34 34 34 36 32 32 30 28 27 27 25 22 22 22 23 24 27 29 29 29 31 30 26 25 26 26 27 29 29 30 29 29 29 29 29 29
29 31 31 32 33 32 34 33 34 33 32 33 31 28 27 26 26 25 23 23 21 21 22 22 25 27 30 30 31 30 28 26 26 26 26 27 28 27 28 29 30 29 29 29
15 29 30 29 32 32 28 33 31 31 30 30 30 27 26 24 25 25 23 24 23 23 23 23 24 27 28 29 30 29 28 26 26 26 26 26 26 26 29 29 30 31 31 29
30 32 30 29 31 33 32 31 31 30 30 29 28 27 25 24 25 25 24 23 23 21 21 21 21 23 26 29 29 28 26 26 25 25 25 24 24 24 22 25 27 28 29 29
33 33 27 30 27 30 32 31 30 29 28 28 27 27 25 24 24 23 22 23 24 23 22 22 22 22 24 27 27 27 27 24 22 23 23 23 22 22 22 20 20 20 24 26
31 29 27 27 26 27 30 29 26 25 25 25 26 25 25 23 21 21 22 24 24 22 20 20 21 21 24 26 24 25 25 23 22 22 22 22 22 22 21 20 18 18 19 21
31 29 27 25 23 24 25 25 24 23 24 24 23 24 24 23 22 21 21 21 18 16 18 16 19 21 23 24 22 22 22 23 22 22 21 21 21 20 19 18 17 15 15 15
25 23 26 23 23 22 22 23 23 22 22 22 21 22 23 22 20 18 17 18 17 16 17 16 16 21 22 22 21 21 21 22 21 22 21 20 20 19 18 17 16 15 13 15
24 24 25 25 23 22 21 22 22 21 18 18 18 16 14 13 13 13 12 15 15 15 15 16 18 21 21 23 23 21 20 20 21 20 20 18 18 17 16 15 14 14 13 13
22 21 22 22 22 21 19 18 18 17 14 12 10 10 10 9 6 4 6 9 10 10 13 16 20 21 20 22 22 22 20 18 18 18 18 16 15 15 13 12 11 10 11 10
19 19 18 15 14 14 10 8 7 7 4 5 5 9 9 7 5 2 1 4 7 11 15 17 18 19 20 20 20 20 19 17 18 16 14 14 12 11 11 10 9 8 7 7
11 10 10 9 3 0 -1 -2 2 2 -1 -2 4 -2 -2 -2 2 4 6 9 10 14 16 17 17 17 19 18 19 17 17 16 14 12 11 10 9 9 9 8 7 6 6 5
5 5 1 3 6 2 -1 -0 2 -3 -3 -3 -4 -4 -3 0 -1 1 -1 4 12 10 14 15 15 12 13 14 15 15 16 15 14 13 11 10 8 7 5 7 6 4 3 3
7 8 6 4 4 3 1 2 -3 -2 -2 -4 -2 -2 2 4 4 2 2 11 13 9 13 10 7 7 7 9 10 10 9 9 9 9 8 7 6 5 4 3 2 1 -0 1
7 7 5 5 5 11 7 4 5 4 -1 0 -3 -3 5 0 1 11 11 5 2 0 2 5 3 5 2 4 5 5 6 6 6 5 7 4 2 3 2 1 1 0 -2 -0
9 5 6 5 9 7 7 6 8 7 9 10 9 12 13 11 3 5 1 3 5 3 -1 -2 -0 -1 -3 -3 -2 -0 -1 -0 -0 1 1 -0 1 1 -0 0 -2 -2 -5 -6
9 11 9 11 12 11 11 13 9 12 13 7 6 -2 -1 0 5 6 2 1 2 1 -3 -9 -9 -8 -8 -7 -8 -6 -5 -1 -3 -4 -7 -6 -3 -2 -2 -3 -6 -8 -9 -12
9 11 11 11 13 13 13 14 10 9 8 4 3 -1 0 -3 -3 1 -4 -6 -7 -6 -8 -10 -10 -7 -7 -9 -8 -9 -9 -8 -8 -9 -13 -11 -9 -9 -9 -9 -10 -13 -13 -12

GFSNGP_sfc_temp_129.txt.gz
Temp
35 37 34 31 32 31 29 32 30 26 26 28 30 30 30 31 31 31 30 30 30 29 30 31 32 33 36 36 37 38 38 37 38 39 40 40 40 42 42 43 45 48 50 52
33 38 34 30 32 34 30 31 32 30 28 33 33 33 32 30 30 29 29 30 31 31 31 31 31 33 34 35 35 37 36 36 37 38 38 39 40 40 42 42 43 44 47 50
29 36 33 26 28 30 30 31 31 27 30 32 31 30 29 30 29 28 29 29 29 30 30 30 31 32 32 34 36 35 36 36 35 36 37 37 38 39 39 39 40 41 43 46
29 32 21 29 36 33 30 31 32 31 31 33 31 31 32 32 30 28 29 29 29 29 30 31 32 32 33 33 33 34 34 34 34 34 35 35 36 37 37 38 38 39 41 44
27 28 29 32 32 29 29 28 33 32 33 35 35 34 32 32 32 29 28 29 28 30 30 30 31 32 32 31 33 32 32 31 32 33 33 34 33 35 36 36 37 38 40 40
30 24 21 28 34 37 34 25 32 34 33 33 35 29 28 31 31 30 30 29 28 29 30 29 29 31 30 29 30 29 29 30 32 33 32 31 32 33 36 36 36 37 37 37
27 26 27 31 35 37 26 24 32 33 33 32 30 31 31 32 30 30 29 28 29 29 28 28 30 30 28 29 28 30 29 29 30 32 31 32 32 33 34 34 33 33 34 35
28 24 21 34 36 28 29 34 34 32 33 32 32 31 30 30 29 28 26 26 27 27 27 28 29 29 28 28 30 31 29 28 28 29 30 31 30 30 32 33 31 29 30 32
30 28 32 34 32 34 35 33 32 32 33 33 31 30 29 28 28 26 25 24 26 25 26 28 28 29 27 28 30 29 29 27 27 28 29 29 29 27 29 30 30 28 28 28
30 31 31 32 34 35 35 33 34 33 33 33 29 29 28 28 28 26 24 24 24 24 24 24 27 29 28 29 31 30 28 27 28 28 28 28 30 29 28 27 27 28 28 26
30 31 31 32 32 33 34 34 33 32 31 30 30 27 27 26 26 26 26 26 25 24 24 24 26 28 29 30 31 29 29 28 28 29 27 27 28 27 27 27 26 26 26 28
28 31 32 30 32 33 32 31 32 31 29 29 29 27 27 26 26 26 26 27 26 26 25 25 27 27 28 29 30 29 28 28 28 28 28 28 27 27 29 27 27 27 27 27
31 33 32 31 31 32 31 29 30 29 29 28 28 28 27 26 26 25 26 25 25 22 22 22 22 23 25 28 28 26 25 26 26 26 26 25 24 24 22 26 27 25 26 26
35 33 29 30 28 31 30 29 29 28 28 28 28 28 27 26 26 24 23 24 25 25 24 24 24 23 24 26 26 24 26 24 25 25 24 24 24 23 22 21 20 21 24 23
30 31 29 28 28 28 29 29 26 24 25 25 26 26 25 23 22 21 22 24 24 23 22 22 22 22 25 26 26 25 25 26 25 25 24 24 24 24 23 22 20 19 20 20
29 29 29 26 25 25 26 26 24 23 24 23 23 24 23 23 21 20 20 20 19 17 19 18 20 22 23 24 25 25 25 23 23 24 24 23 23 22 22 21 20 18 16 16
27 25 26 24 24 24 23 24 24 23 22 22 21 22 22 21 19 17 16 17 17 17 17 18 18 21 22 23 24 24 24 24 22 23 22 22 21 20 20 20 19 18 16 14
30 31 31 29 26 24 23 22 22 21 19 19 18 14 11 11 12 12 11 14 14 15 16 16 19 20 20 22 23 24 23 23 22 20 20 19 19 19 18 18 17 16 16 15
27 25 26 26 26 23 21 20 19 17 15 13 11 8 8 6 8 8 10 11 12 13 14 16 19 19 19 20 23 23 22 21 20 20 19 17 16 17 16 16 15 15 15 14
22 21 20 17 18 18 13 12 12 9 7 9 7 8 9 5 5 8 10 11 11 12 15 16 18 19 19 20 19 22 21 19 19 18 16 17 15 14 15 13 13 13 13 12
15 14 12 11 8 7 8 6 8 10 5 6 10 7 7 5 6 9 13 14 13 13 15 16 17 17 19 18 20 20 19 18 17 16 15 15 14 14 13 13 12 12 12 12
12 11 8 8 10 8 6 8 9 6 6 5 1 2 8 10 9 11 7 11 16 10 16 17 16 8 13 14 17 17 16 16 16 16 15 15 14 13 12 12 11 11 11 11
12 12 11 10 11 12 8 9 6 9 8 7 7 10 14 14 15 14 13 15 16 12 16 14 7 6 7 14 14 14 13 13 13 13 12 12 12 12 12 11 10 11 11 11
12 13 12 12 11 13 13 11 12 12 9 9 8 6 14 15 15 17 17 10 7 9 11 10 7 5 6 12 12 11 12 12 11 11 12 9 11 10 10 10 9 10 9 9
13 11 11 10 13 15 15 14 13 13 14 16 16 15 15 17 17 17 16 15 10 12 14 5 4 4 11 11 10 10 10 10 9 10 10 10 9 9 9 9 7 7 7 7
14 15 15 16 19 19 19 18 18 18 18 16 17 15 15 14 16 16 14 8 13 9 14 12 10 10 11 11 10 9 10 10 10 9 8 8 8 8 7 7 6 6 6 6
16 15 17 17 18 19 20 19 19 18 17 18 18 16 15 14 13 13 7 13 13 11 11 11 11 9 10 10 10 10 10 10 4 8 8 8 8 8 6 6 6 6 5 5

GFSNGP_sfc_temp_132.txt.gz
Temp
43 44 38 32 37 36 32 35 33 29 28 30 31 31 31 31 31 31 31 31 30 31 31 31 31 32 33 34 37 39 37 38 39 41 45 47 48 49 50 50 50 52 52 54
39 43 38 32 38 40 36 33 35 33 32 35 35 37 37 36 31 30 30 31 31 31 32 31 32 33 35 35 37 39 38 38 39 42 43 42 43 47 48 48 48 47 47 49
35 42 32 29 29 32 33 34 33 29 31 34 36 36 34 35 35 31 31 32 32 33 33 33 33 34 34 37 39 39 40 39 39 39 40 40 43 45 45 44 45 45 45 46
36 39 25 30 37 35 31 32 32 33 33 36 34 37 38 36 34 33 33 33 32 32 33 33 34 35 36 38 39 39 40 39 39 39 40 41 41 41 41 43 43 42 43 44
33 36 30 33 37 33 31 29 35 34 36 40 39 40 38 37 37 35 34 34 34 34 33 33 32 35 35 35 37 37 36 37 38 37 39 39 38 37 40 41 41 40 41 40
37 30 26 34 39 39 38 28 36 37 35 37 42 35 35 35 37 37 37 35 34 36 35 32 31 33 32 31 31 30 31 34 38 38 37 36 37 37 38 40 41 41 39 37
35 34 31 38 42 39 27 26 37 38 35 36 34 34 35 37 37 37 36 34 35 36 33 31 32 31 30 30 29 30 31 33 34 35 36 36 37 37 37 36 39 39 38 36
34 31 26 41 42 34 31 37 37 37 36 34 34 35 35 36 35 34 32 31 33 33 33 32 32 31 29 29 31 32 32 31 31 32 33 33 33 33 35 34 33 33 34 34
35 32 37 41 37 38 38 35 35 36 37 37 36 35 35 34 34 33 29 28 30 30 31 32 32 31 29 30 32 32 32 31 31 32 32 31 31 30 32 32 32 30 30 31
35 34 36 38 40 41 40 36 36 38 38 38 35 35 35 35 34 32 28 28 29 29 28 28 30 32 31 32 34 33 31 31 31 32 31 32 32 31 30 28 28 29 28 28
32 34 35 37 38 39 37 37 35 36 36 36 36 34 34 34 33 33 32 30 30 28 27 28 30 32 33 33 34 32 32 32 31 33 31 31 31 30 29 28 27 26 27 27
32 35 36 34 36 39 36 35 36 35 34 35 35 33 34 33 33 32 31 32 31 30 28 28 30 30 31 32 34 32 31 31 31 32 32 32 31 31 32 30 28 27 27 27
34 36 36 35 36 38 34 34 36 35 34 31 32 33 32 31 31 30 31 30 29 26 27 27 27 26 28 30 31 29 28 29 30 30 29 29 30 29 27 31 31 29 27 26
39 36 31 34 31 34 34 33 34 34 32 32 32 32 32 31 31 30 28 29 30 30 28 28 27 25 27 28 29 28 29 28 28 28 28 29 29 29 29 27 26 26 28 26
38 39 38 34 33 32 34 34 32 30 30 29 30 30 30 28 27 26 28 29 30 28 26 26 25 25 27 28 29 28 28 27 28 28 28 29 29 29 29 28 27 26 26 26
38 37 36 33 32 32 32 32 31 29 29 29 29 28 29 28 27 26 26 26 23 22 23 21 23 23 25 26 28 29 29 26 27 28 28 28 28 28 28 28 27 26 22 20
34 32 34 32 32 32 31 32 32 30 29 28 27 28 28 26 24 23 22 22 22 21 22 21 21 23 24 25 27 28 29 28 26 27 25 25 26 25 26 26 25 25 24 19
40 40 39 37 33 31 30 29 29 28 26 25 22 18 15 16 17 17 17 19 20 20 19 20 22 24 24 24 27 28 28 28 27 25 25 23 23 24 24 24 24 23 23 23
37 35 35 34 34 32 30 28 27 25 21 19 16 14 14 14 16 16 18 17 18 19 18 21 23 24 24 23 27 28 27 26 26 25 25 23 23 23 21 21 21 21 21 21
32 31 30 28 28 27 22 20 19 17 17 16 14 15 14 13 14 15 18 16 17 18 20 21 23 25 24 25 25 28 26 25 25 24 22 23 21 21 21 19 19 20 20 19
24 23 20 18 17 18 18 17 16 15 15 16 17 14 14 14 14 17 21 22 19 18 21 21 22 22 25 24 27 25 25 24 23 22 21 21 21 21 20 20 19 19 18 18
21 19 17 16 16 15 15 18 18 15 15 14 11 12 14 16 15 16 14 18 23 16 22 22 21 15 19 21 24 23 22 22 22 21 20 20 20 19 19 18 18 18 18 18
21 19 18 17 18 19 17 18 16 17 15 14 14 16 21 23 25 23 22 21 23 18 23 20 14 14 16 21 21 21 20 19 19 19 19 18 18 17 17 16 17 17 16 16
20 20 19 21 19 18 17 18 19 19 18 18 17 16 21 22 22 25 23 17 15 17 18 17 15 13 17 19 19 18 19 18 18 18 18 16 17 17 16 15 15 16 15 15
20 20 19 17 19 21 22 21 21 21 20 23 22 21 21 25 24 24 24 22 15 19 21 12 13 14 19 19 18 17 18 17 15 17 16 16 16 15 16 15 14 13 14 14
21 23 23 22 26 27 26 25 25 26 25 24 24 24 24 24 23 22 22 18 20 17 21 21 19 18 19 19 18 17 17 17 17 16 15 16 15 15 14 13 13 14 13 13
24 24 25 25 26 27 28 27 26 26 25 25 25 25 24 23 23 21 19 21 21 20 20 21 20 18 18 17 18 18 18 18 12 15 16 15 15 15 13 13 13 13 13 12